<?xml version="1.0" encoding="UTF-8" standalone="no" ?>
<gpx xmlns="http://www.topografix.com/GPX/1/1" xmlns:xsi="http://www.w3.org/2001/XMLSchema-instance" xsi:schemaLocation="http://www.topografix.com/GPX/1/1 http://www.topografix.com/GPX/1/1/gpx.xsd" version="1.1" creator="VisuGPX - https://www.visugpx.com">
  <metadata>
    <name>Cabrières/Villeneuvette/Pic du Vissou</name>
    <desc><![CDATA[Sortie AM / ENDURO au départ de la cave coopérative de Cabrières. On attaque l'ascension avec des raidillons sur chemin pour arriver sur le plateau des Causses. De là on part vers la première descente ludique du mas des vaques pour aboutir au Mas de roujou. On enchaine sur Villeneuvette pour faire une petite boucle avec une petite montée technique sur single puis on va vers le ruisseau de la Dourbie pour le longer.
On quitte Villeneuvette en passant par les sculptures taillées dans la roche  avant d'attaquer la montée du Pic de Vissou ou plutôt du Vissounel. Avec un dernier petit coup de cul avant de s'engfager dans la descente typée Enduro. Toujours aussi Plaisante mais un peu exigeante quand même car ça secoue sur la caillasse !
Retour sur Cabrières par un single qui passe sous le Pic du Vissou.]]></desc>
  </metadata>
  <trk>
    <name><![CDATA[Cabrières/Villeneuvette/Pic du Vissou_1]]></name>
    <trkseg>
      <trkpt lat="43.57247" lon="3.36361">
        <ele>123.3</ele>
        <time>2016-12-28T12:42:52Z</time>
      </trkpt>
      <trkpt lat="43.57255" lon="3.36354">
        <ele>169.5</ele>
        <time>2016-12-28T12:43:02Z</time>
      </trkpt>
      <trkpt lat="43.57248" lon="3.36341">
        <ele>157.3</ele>
        <time>2016-12-28T12:43:15Z</time>
      </trkpt>
      <trkpt lat="43.57253" lon="3.36347">
        <ele>155.5</ele>
        <time>2016-12-28T12:43:22Z</time>
      </trkpt>
      <trkpt lat="43.57257" lon="3.36357">
        <ele>158.1</ele>
        <time>2016-12-28T12:48:38Z</time>
      </trkpt>
      <trkpt lat="43.57257" lon="3.36349">
        <ele>159.3</ele>
        <time>2016-12-28T12:49:07Z</time>
      </trkpt>
      <trkpt lat="43.57257" lon="3.36356">
        <ele>159.8</ele>
        <time>2016-12-28T12:49:27Z</time>
      </trkpt>
      <trkpt lat="43.5725" lon="3.36348">
        <ele>161.2</ele>
        <time>2016-12-28T12:51:00Z</time>
      </trkpt>
      <trkpt lat="43.57252" lon="3.36354">
        <ele>162.8</ele>
        <time>2016-12-28T12:52:21Z</time>
      </trkpt>
      <trkpt lat="43.57255" lon="3.36353">
        <ele>163.4</ele>
        <time>2016-12-28T12:52:28Z</time>
      </trkpt>
      <trkpt lat="43.57258" lon="3.36351">
        <ele>162.9</ele>
        <time>2016-12-28T12:52:35Z</time>
      </trkpt>
      <trkpt lat="43.57253" lon="3.36352">
        <ele>162.2</ele>
        <time>2016-12-28T12:52:42Z</time>
      </trkpt>
      <trkpt lat="43.57252" lon="3.36356">
        <ele>162.1</ele>
        <time>2016-12-28T12:52:49Z</time>
      </trkpt>
      <trkpt lat="43.57251" lon="3.36358">
        <ele>161.1</ele>
        <time>2016-12-28T12:54:46Z</time>
      </trkpt>
      <trkpt lat="43.57247" lon="3.36362">
        <ele>160.4</ele>
        <time>2016-12-28T12:54:53Z</time>
      </trkpt>
      <trkpt lat="43.57251" lon="3.36349">
        <ele>157.6</ele>
        <time>2016-12-28T12:55:24Z</time>
      </trkpt>
      <trkpt lat="43.57252" lon="3.36351">
        <ele>158.4</ele>
        <time>2016-12-28T12:55:31Z</time>
      </trkpt>
      <trkpt lat="43.57252" lon="3.36354">
        <ele>158.3</ele>
        <time>2016-12-28T12:55:38Z</time>
      </trkpt>
      <trkpt lat="43.57266" lon="3.3635">
        <ele>158.8</ele>
        <time>2016-12-28T12:55:50Z</time>
      </trkpt>
      <trkpt lat="43.57274" lon="3.36352">
        <ele>158.8</ele>
        <time>2016-12-28T12:55:53Z</time>
      </trkpt>
      <trkpt lat="43.57283" lon="3.36354">
        <ele>158.9</ele>
        <time>2016-12-28T12:55:56Z</time>
      </trkpt>
      <trkpt lat="43.57291" lon="3.36355">
        <ele>158.9</ele>
        <time>2016-12-28T12:55:59Z</time>
      </trkpt>
      <trkpt lat="43.573" lon="3.36356">
        <ele>159.1</ele>
        <time>2016-12-28T12:56:02Z</time>
      </trkpt>
      <trkpt lat="43.57309" lon="3.36358">
        <ele>159.1</ele>
        <time>2016-12-28T12:56:05Z</time>
      </trkpt>
      <trkpt lat="43.57317" lon="3.3636">
        <ele>159</ele>
        <time>2016-12-28T12:56:08Z</time>
      </trkpt>
      <trkpt lat="43.57326" lon="3.36362">
        <ele>159</ele>
        <time>2016-12-28T12:56:11Z</time>
      </trkpt>
      <trkpt lat="43.57334" lon="3.36364">
        <ele>159.3</ele>
        <time>2016-12-28T12:56:14Z</time>
      </trkpt>
      <trkpt lat="43.57344" lon="3.36367">
        <ele>159.5</ele>
        <time>2016-12-28T12:56:17Z</time>
      </trkpt>
      <trkpt lat="43.57354" lon="3.36369">
        <ele>159.5</ele>
        <time>2016-12-28T12:56:20Z</time>
      </trkpt>
      <trkpt lat="43.57364" lon="3.36372">
        <ele>159.5</ele>
        <time>2016-12-28T12:56:23Z</time>
      </trkpt>
      <trkpt lat="43.57373" lon="3.36371">
        <ele>159.4</ele>
        <time>2016-12-28T12:56:26Z</time>
      </trkpt>
      <trkpt lat="43.57382" lon="3.36369">
        <ele>159.4</ele>
        <time>2016-12-28T12:56:29Z</time>
      </trkpt>
      <trkpt lat="43.5739" lon="3.36366">
        <ele>159.4</ele>
        <time>2016-12-28T12:56:32Z</time>
      </trkpt>
      <trkpt lat="43.57397" lon="3.36363">
        <ele>159.4</ele>
        <time>2016-12-28T12:56:34Z</time>
      </trkpt>
      <trkpt lat="43.57407" lon="3.3636">
        <ele>159.4</ele>
        <time>2016-12-28T12:56:37Z</time>
      </trkpt>
      <trkpt lat="43.57416" lon="3.36358">
        <ele>159.3</ele>
        <time>2016-12-28T12:56:40Z</time>
      </trkpt>
      <trkpt lat="43.57424" lon="3.36355">
        <ele>159.3</ele>
        <time>2016-12-28T12:56:43Z</time>
      </trkpt>
      <trkpt lat="43.57432" lon="3.36353">
        <ele>159.2</ele>
        <time>2016-12-28T12:56:46Z</time>
      </trkpt>
      <trkpt lat="43.57441" lon="3.36354">
        <ele>159.1</ele>
        <time>2016-12-28T12:56:49Z</time>
      </trkpt>
      <trkpt lat="43.57451" lon="3.36357">
        <ele>158.9</ele>
        <time>2016-12-28T12:56:54Z</time>
      </trkpt>
      <trkpt lat="43.57462" lon="3.36359">
        <ele>159.1</ele>
        <time>2016-12-28T12:56:56Z</time>
      </trkpt>
      <trkpt lat="43.5747" lon="3.3636">
        <ele>159.3</ele>
        <time>2016-12-28T12:56:59Z</time>
      </trkpt>
      <trkpt lat="43.57478" lon="3.36362">
        <ele>159.4</ele>
        <time>2016-12-28T12:57:02Z</time>
      </trkpt>
      <trkpt lat="43.57488" lon="3.36364">
        <ele>159.3</ele>
        <time>2016-12-28T12:57:05Z</time>
      </trkpt>
      <trkpt lat="43.57498" lon="3.36364">
        <ele>159.1</ele>
        <time>2016-12-28T12:57:08Z</time>
      </trkpt>
      <trkpt lat="43.57506" lon="3.36364">
        <ele>159.2</ele>
        <time>2016-12-28T12:57:11Z</time>
      </trkpt>
      <trkpt lat="43.57515" lon="3.36366">
        <ele>159.3</ele>
        <time>2016-12-28T12:57:14Z</time>
      </trkpt>
      <trkpt lat="43.57524" lon="3.36367">
        <ele>159.2</ele>
        <time>2016-12-28T12:57:17Z</time>
      </trkpt>
      <trkpt lat="43.57533" lon="3.36368">
        <ele>159.2</ele>
        <time>2016-12-28T12:57:20Z</time>
      </trkpt>
      <trkpt lat="43.57541" lon="3.3637">
        <ele>159.4</ele>
        <time>2016-12-28T12:57:23Z</time>
      </trkpt>
      <trkpt lat="43.57549" lon="3.36371">
        <ele>159.8</ele>
        <time>2016-12-28T12:57:26Z</time>
      </trkpt>
      <trkpt lat="43.57557" lon="3.36373">
        <ele>160.4</ele>
        <time>2016-12-28T12:57:29Z</time>
      </trkpt>
      <trkpt lat="43.57567" lon="3.36374">
        <ele>160.9</ele>
        <time>2016-12-28T12:57:32Z</time>
      </trkpt>
      <trkpt lat="43.57577" lon="3.36375">
        <ele>161.1</ele>
        <time>2016-12-28T12:57:35Z</time>
      </trkpt>
      <trkpt lat="43.57587" lon="3.36377">
        <ele>161.3</ele>
        <time>2016-12-28T12:57:38Z</time>
      </trkpt>
      <trkpt lat="43.57596" lon="3.3638">
        <ele>161.5</ele>
        <time>2016-12-28T12:57:41Z</time>
      </trkpt>
      <trkpt lat="43.57605" lon="3.36381">
        <ele>162</ele>
        <time>2016-12-28T12:57:44Z</time>
      </trkpt>
      <trkpt lat="43.57615" lon="3.36382">
        <ele>162.5</ele>
        <time>2016-12-28T12:57:47Z</time>
      </trkpt>
      <trkpt lat="43.57624" lon="3.36383">
        <ele>163.1</ele>
        <time>2016-12-28T12:57:50Z</time>
      </trkpt>
      <trkpt lat="43.57632" lon="3.36384">
        <ele>163.9</ele>
        <time>2016-12-28T12:57:53Z</time>
      </trkpt>
      <trkpt lat="43.57643" lon="3.36387">
        <ele>164.6</ele>
        <time>2016-12-28T12:57:56Z</time>
      </trkpt>
      <trkpt lat="43.57652" lon="3.36389">
        <ele>165.3</ele>
        <time>2016-12-28T12:57:59Z</time>
      </trkpt>
      <trkpt lat="43.57662" lon="3.3639">
        <ele>165.8</ele>
        <time>2016-12-28T12:58:02Z</time>
      </trkpt>
      <trkpt lat="43.57671" lon="3.36391">
        <ele>166.5</ele>
        <time>2016-12-28T12:58:05Z</time>
      </trkpt>
      <trkpt lat="43.5768" lon="3.36394">
        <ele>167.3</ele>
        <time>2016-12-28T12:58:08Z</time>
      </trkpt>
      <trkpt lat="43.57691" lon="3.36396">
        <ele>168</ele>
        <time>2016-12-28T12:58:11Z</time>
      </trkpt>
      <trkpt lat="43.57698" lon="3.36396">
        <ele>168.3</ele>
        <time>2016-12-28T12:58:13Z</time>
      </trkpt>
      <trkpt lat="43.57706" lon="3.36397">
        <ele>168.4</ele>
        <time>2016-12-28T12:58:15Z</time>
      </trkpt>
      <trkpt lat="43.57715" lon="3.36399">
        <ele>168.2</ele>
        <time>2016-12-28T12:58:18Z</time>
      </trkpt>
      <trkpt lat="43.57725" lon="3.364">
        <ele>168.3</ele>
        <time>2016-12-28T12:58:21Z</time>
      </trkpt>
      <trkpt lat="43.57733" lon="3.36403">
        <ele>168.7</ele>
        <time>2016-12-28T12:58:24Z</time>
      </trkpt>
      <trkpt lat="43.57744" lon="3.36403">
        <ele>169.2</ele>
        <time>2016-12-28T12:58:27Z</time>
      </trkpt>
      <trkpt lat="43.57753" lon="3.36403">
        <ele>169.2</ele>
        <time>2016-12-28T12:58:29Z</time>
      </trkpt>
      <trkpt lat="43.57763" lon="3.36401">
        <ele>170.7</ele>
        <time>2016-12-28T12:58:32Z</time>
      </trkpt>
      <trkpt lat="43.57771" lon="3.36399">
        <ele>171</ele>
        <time>2016-12-28T12:58:34Z</time>
      </trkpt>
      <trkpt lat="43.57778" lon="3.36398">
        <ele>171.3</ele>
        <time>2016-12-28T12:58:36Z</time>
      </trkpt>
      <trkpt lat="43.57789" lon="3.36396">
        <ele>171.6</ele>
        <time>2016-12-28T12:58:39Z</time>
      </trkpt>
      <trkpt lat="43.57796" lon="3.36395">
        <ele>171.5</ele>
        <time>2016-12-28T12:58:41Z</time>
      </trkpt>
      <trkpt lat="43.57806" lon="3.36392">
        <ele>171.3</ele>
        <time>2016-12-28T12:58:44Z</time>
      </trkpt>
      <trkpt lat="43.57817" lon="3.3639">
        <ele>170.9</ele>
        <time>2016-12-28T12:58:47Z</time>
      </trkpt>
      <trkpt lat="43.57824" lon="3.36389">
        <ele>170.7</ele>
        <time>2016-12-28T12:58:49Z</time>
      </trkpt>
      <trkpt lat="43.57834" lon="3.36387">
        <ele>170.3</ele>
        <time>2016-12-28T12:58:52Z</time>
      </trkpt>
      <trkpt lat="43.57844" lon="3.36385">
        <ele>169.8</ele>
        <time>2016-12-28T12:58:55Z</time>
      </trkpt>
      <trkpt lat="43.57854" lon="3.36383">
        <ele>169.4</ele>
        <time>2016-12-28T12:58:58Z</time>
      </trkpt>
      <trkpt lat="43.57863" lon="3.36382">
        <ele>169.1</ele>
        <time>2016-12-28T12:59:01Z</time>
      </trkpt>
      <trkpt lat="43.57873" lon="3.36381">
        <ele>168.9</ele>
        <time>2016-12-28T12:59:04Z</time>
      </trkpt>
      <trkpt lat="43.57882" lon="3.36388">
        <ele>167.1</ele>
        <time>2016-12-28T12:59:07Z</time>
      </trkpt>
      <trkpt lat="43.57886" lon="3.36399">
        <ele>165.3</ele>
        <time>2016-12-28T12:59:09Z</time>
      </trkpt>
      <trkpt lat="43.57888" lon="3.36413">
        <ele>164.1</ele>
        <time>2016-12-28T12:59:11Z</time>
      </trkpt>
      <trkpt lat="43.5789" lon="3.36426">
        <ele>163.7</ele>
        <time>2016-12-28T12:59:13Z</time>
      </trkpt>
      <trkpt lat="43.57891" lon="3.3644">
        <ele>163.7</ele>
        <time>2016-12-28T12:59:15Z</time>
      </trkpt>
      <trkpt lat="43.57896" lon="3.36457">
        <ele>162.7</ele>
        <time>2016-12-28T12:59:17Z</time>
      </trkpt>
      <trkpt lat="43.57903" lon="3.36473">
        <ele>161.6</ele>
        <time>2016-12-28T12:59:19Z</time>
      </trkpt>
      <trkpt lat="43.5791" lon="3.36487">
        <ele>161.6</ele>
        <time>2016-12-28T12:59:21Z</time>
      </trkpt>
      <trkpt lat="43.57916" lon="3.365">
        <ele>162.5</ele>
        <time>2016-12-28T12:59:23Z</time>
      </trkpt>
      <trkpt lat="43.57917" lon="3.36511">
        <ele>162.9</ele>
        <time>2016-12-28T12:59:25Z</time>
      </trkpt>
      <trkpt lat="43.57916" lon="3.36521">
        <ele>163.1</ele>
        <time>2016-12-28T12:59:27Z</time>
      </trkpt>
      <trkpt lat="43.5791" lon="3.36527">
        <ele>163.6</ele>
        <time>2016-12-28T12:59:30Z</time>
      </trkpt>
      <trkpt lat="43.57902" lon="3.3653">
        <ele>164.1</ele>
        <time>2016-12-28T12:59:33Z</time>
      </trkpt>
      <trkpt lat="43.57894" lon="3.36532">
        <ele>164.6</ele>
        <time>2016-12-28T12:59:36Z</time>
      </trkpt>
      <trkpt lat="43.57886" lon="3.36533">
        <ele>165</ele>
        <time>2016-12-28T12:59:39Z</time>
      </trkpt>
      <trkpt lat="43.57878" lon="3.36533">
        <ele>165.5</ele>
        <time>2016-12-28T12:59:42Z</time>
      </trkpt>
      <trkpt lat="43.5787" lon="3.36533">
        <ele>165.8</ele>
        <time>2016-12-28T12:59:45Z</time>
      </trkpt>
      <trkpt lat="43.57862" lon="3.36533">
        <ele>166</ele>
        <time>2016-12-28T12:59:48Z</time>
      </trkpt>
      <trkpt lat="43.57853" lon="3.36536">
        <ele>166.4</ele>
        <time>2016-12-28T12:59:51Z</time>
      </trkpt>
      <trkpt lat="43.57845" lon="3.3654">
        <ele>166.6</ele>
        <time>2016-12-28T12:59:54Z</time>
      </trkpt>
      <trkpt lat="43.57838" lon="3.36548">
        <ele>166.9</ele>
        <time>2016-12-28T12:59:57Z</time>
      </trkpt>
      <trkpt lat="43.57835" lon="3.36559">
        <ele>167.3</ele>
        <time>2016-12-28T13:00:00Z</time>
      </trkpt>
      <trkpt lat="43.57832" lon="3.36573">
        <ele>167.8</ele>
        <time>2016-12-28T13:00:03Z</time>
      </trkpt>
      <trkpt lat="43.5783" lon="3.36586">
        <ele>168.3</ele>
        <time>2016-12-28T13:00:06Z</time>
      </trkpt>
      <trkpt lat="43.57828" lon="3.36598">
        <ele>168.7</ele>
        <time>2016-12-28T13:00:09Z</time>
      </trkpt>
      <trkpt lat="43.57825" lon="3.36611">
        <ele>169.2</ele>
        <time>2016-12-28T13:00:12Z</time>
      </trkpt>
      <trkpt lat="43.5782" lon="3.36623">
        <ele>169.6</ele>
        <time>2016-12-28T13:00:15Z</time>
      </trkpt>
      <trkpt lat="43.57816" lon="3.36632">
        <ele>169.8</ele>
        <time>2016-12-28T13:00:17Z</time>
      </trkpt>
      <trkpt lat="43.57811" lon="3.36643">
        <ele>170.1</ele>
        <time>2016-12-28T13:00:20Z</time>
      </trkpt>
      <trkpt lat="43.57805" lon="3.36652">
        <ele>170.6</ele>
        <time>2016-12-28T13:00:22Z</time>
      </trkpt>
      <trkpt lat="43.578" lon="3.3666">
        <ele>170.7</ele>
        <time>2016-12-28T13:00:24Z</time>
      </trkpt>
      <trkpt lat="43.57794" lon="3.36669">
        <ele>170.8</ele>
        <time>2016-12-28T13:00:26Z</time>
      </trkpt>
      <trkpt lat="43.57788" lon="3.36678">
        <ele>171</ele>
        <time>2016-12-28T13:00:29Z</time>
      </trkpt>
      <trkpt lat="43.57782" lon="3.36687">
        <ele>171.3</ele>
        <time>2016-12-28T13:00:32Z</time>
      </trkpt>
      <trkpt lat="43.57775" lon="3.36697">
        <ele>171.7</ele>
        <time>2016-12-28T13:00:35Z</time>
      </trkpt>
      <trkpt lat="43.57772" lon="3.36707">
        <ele>172</ele>
        <time>2016-12-28T13:00:37Z</time>
      </trkpt>
      <trkpt lat="43.57772" lon="3.3672">
        <ele>172.5</ele>
        <time>2016-12-28T13:00:41Z</time>
      </trkpt>
      <trkpt lat="43.57773" lon="3.36731">
        <ele>172.7</ele>
        <time>2016-12-28T13:00:43Z</time>
      </trkpt>
      <trkpt lat="43.57777" lon="3.36744">
        <ele>172.8</ele>
        <time>2016-12-28T13:00:46Z</time>
      </trkpt>
      <trkpt lat="43.57781" lon="3.36758">
        <ele>172.9</ele>
        <time>2016-12-28T13:00:49Z</time>
      </trkpt>
      <trkpt lat="43.57784" lon="3.3677">
        <ele>173.1</ele>
        <time>2016-12-28T13:00:52Z</time>
      </trkpt>
      <trkpt lat="43.57787" lon="3.3678">
        <ele>173.2</ele>
        <time>2016-12-28T13:00:54Z</time>
      </trkpt>
      <trkpt lat="43.57789" lon="3.36794">
        <ele>173.4</ele>
        <time>2016-12-28T13:00:57Z</time>
      </trkpt>
      <trkpt lat="43.5779" lon="3.36805">
        <ele>173.7</ele>
        <time>2016-12-28T13:01:00Z</time>
      </trkpt>
      <trkpt lat="43.57793" lon="3.36819">
        <ele>174</ele>
        <time>2016-12-28T13:01:04Z</time>
      </trkpt>
      <trkpt lat="43.57798" lon="3.36831">
        <ele>174.3</ele>
        <time>2016-12-28T13:01:08Z</time>
      </trkpt>
      <trkpt lat="43.57801" lon="3.36839">
        <ele>174.5</ele>
        <time>2016-12-28T13:01:11Z</time>
      </trkpt>
      <trkpt lat="43.57804" lon="3.36849">
        <ele>174.7</ele>
        <time>2016-12-28T13:01:14Z</time>
      </trkpt>
      <trkpt lat="43.57806" lon="3.36861">
        <ele>175.2</ele>
        <time>2016-12-28T13:01:18Z</time>
      </trkpt>
      <trkpt lat="43.57807" lon="3.36872">
        <ele>175.7</ele>
        <time>2016-12-28T13:01:21Z</time>
      </trkpt>
      <trkpt lat="43.57808" lon="3.36881">
        <ele>176</ele>
        <time>2016-12-28T13:01:23Z</time>
      </trkpt>
      <trkpt lat="43.57809" lon="3.36897">
        <ele>179.8</ele>
        <time>2016-12-28T13:01:26Z</time>
      </trkpt>
      <trkpt lat="43.57809" lon="3.36912">
        <ele>181</ele>
        <time>2016-12-28T13:01:28Z</time>
      </trkpt>
      <trkpt lat="43.57809" lon="3.36926">
        <ele>181.4</ele>
        <time>2016-12-28T13:01:30Z</time>
      </trkpt>
      <trkpt lat="43.57809" lon="3.3694">
        <ele>182.2</ele>
        <time>2016-12-28T13:01:32Z</time>
      </trkpt>
      <trkpt lat="43.57811" lon="3.36954">
        <ele>181.9</ele>
        <time>2016-12-28T13:01:34Z</time>
      </trkpt>
      <trkpt lat="43.57813" lon="3.36966">
        <ele>181.3</ele>
        <time>2016-12-28T13:01:36Z</time>
      </trkpt>
      <trkpt lat="43.57816" lon="3.36976">
        <ele>180.8</ele>
        <time>2016-12-28T13:01:38Z</time>
      </trkpt>
      <trkpt lat="43.5782" lon="3.36986">
        <ele>179.6</ele>
        <time>2016-12-28T13:01:40Z</time>
      </trkpt>
      <trkpt lat="43.57822" lon="3.36997">
        <ele>179.1</ele>
        <time>2016-12-28T13:01:42Z</time>
      </trkpt>
      <trkpt lat="43.57824" lon="3.37009">
        <ele>179.2</ele>
        <time>2016-12-28T13:01:45Z</time>
      </trkpt>
      <trkpt lat="43.57825" lon="3.37019">
        <ele>179.3</ele>
        <time>2016-12-28T13:01:47Z</time>
      </trkpt>
      <trkpt lat="43.57829" lon="3.37032">
        <ele>179.5</ele>
        <time>2016-12-28T13:01:50Z</time>
      </trkpt>
      <trkpt lat="43.57836" lon="3.37042">
        <ele>179.6</ele>
        <time>2016-12-28T13:01:53Z</time>
      </trkpt>
      <trkpt lat="43.57844" lon="3.37049">
        <ele>179.7</ele>
        <time>2016-12-28T13:01:56Z</time>
      </trkpt>
      <trkpt lat="43.57853" lon="3.37053">
        <ele>179.8</ele>
        <time>2016-12-28T13:01:59Z</time>
      </trkpt>
      <trkpt lat="43.57859" lon="3.37057">
        <ele>180.1</ele>
        <time>2016-12-28T13:02:02Z</time>
      </trkpt>
      <trkpt lat="43.57867" lon="3.37063">
        <ele>180.3</ele>
        <time>2016-12-28T13:02:05Z</time>
      </trkpt>
      <trkpt lat="43.57873" lon="3.37071">
        <ele>180.6</ele>
        <time>2016-12-28T13:02:08Z</time>
      </trkpt>
      <trkpt lat="43.57878" lon="3.3708">
        <ele>180.9</ele>
        <time>2016-12-28T13:02:11Z</time>
      </trkpt>
      <trkpt lat="43.57883" lon="3.37089">
        <ele>181.2</ele>
        <time>2016-12-28T13:02:14Z</time>
      </trkpt>
      <trkpt lat="43.57889" lon="3.37099">
        <ele>181.5</ele>
        <time>2016-12-28T13:02:17Z</time>
      </trkpt>
      <trkpt lat="43.57897" lon="3.37107">
        <ele>181.8</ele>
        <time>2016-12-28T13:02:20Z</time>
      </trkpt>
      <trkpt lat="43.57904" lon="3.37113">
        <ele>182</ele>
        <time>2016-12-28T13:02:23Z</time>
      </trkpt>
      <trkpt lat="43.57911" lon="3.37118">
        <ele>182.3</ele>
        <time>2016-12-28T13:02:26Z</time>
      </trkpt>
      <trkpt lat="43.57918" lon="3.37123">
        <ele>182.6</ele>
        <time>2016-12-28T13:02:29Z</time>
      </trkpt>
      <trkpt lat="43.57927" lon="3.37127">
        <ele>183</ele>
        <time>2016-12-28T13:02:32Z</time>
      </trkpt>
      <trkpt lat="43.57935" lon="3.37132">
        <ele>183.4</ele>
        <time>2016-12-28T13:02:35Z</time>
      </trkpt>
      <trkpt lat="43.57945" lon="3.37136">
        <ele>183.7</ele>
        <time>2016-12-28T13:02:39Z</time>
      </trkpt>
      <trkpt lat="43.57953" lon="3.37139">
        <ele>183.8</ele>
        <time>2016-12-28T13:02:42Z</time>
      </trkpt>
      <trkpt lat="43.57962" lon="3.37139">
        <ele>184</ele>
        <time>2016-12-28T13:02:46Z</time>
      </trkpt>
      <trkpt lat="43.57969" lon="3.37139">
        <ele>184.2</ele>
        <time>2016-12-28T13:02:49Z</time>
      </trkpt>
      <trkpt lat="43.57978" lon="3.37137">
        <ele>184.5</ele>
        <time>2016-12-28T13:02:52Z</time>
      </trkpt>
      <trkpt lat="43.57988" lon="3.37134">
        <ele>184.6</ele>
        <time>2016-12-28T13:02:55Z</time>
      </trkpt>
      <trkpt lat="43.57997" lon="3.37134">
        <ele>184.8</ele>
        <time>2016-12-28T13:02:58Z</time>
      </trkpt>
      <trkpt lat="43.58007" lon="3.37137">
        <ele>185.1</ele>
        <time>2016-12-28T13:03:01Z</time>
      </trkpt>
      <trkpt lat="43.58017" lon="3.37141">
        <ele>186.5</ele>
        <time>2016-12-28T13:03:04Z</time>
      </trkpt>
      <trkpt lat="43.58026" lon="3.37146">
        <ele>186.9</ele>
        <time>2016-12-28T13:03:07Z</time>
      </trkpt>
      <trkpt lat="43.58035" lon="3.37152">
        <ele>187.1</ele>
        <time>2016-12-28T13:03:10Z</time>
      </trkpt>
      <trkpt lat="43.58044" lon="3.37156">
        <ele>187.3</ele>
        <time>2016-12-28T13:03:13Z</time>
      </trkpt>
      <trkpt lat="43.58053" lon="3.3716">
        <ele>187.4</ele>
        <time>2016-12-28T13:03:16Z</time>
      </trkpt>
      <trkpt lat="43.58061" lon="3.37162">
        <ele>187.7</ele>
        <time>2016-12-28T13:03:19Z</time>
      </trkpt>
      <trkpt lat="43.58069" lon="3.37164">
        <ele>188</ele>
        <time>2016-12-28T13:03:22Z</time>
      </trkpt>
      <trkpt lat="43.58077" lon="3.37166">
        <ele>188.2</ele>
        <time>2016-12-28T13:03:25Z</time>
      </trkpt>
      <trkpt lat="43.58085" lon="3.37172">
        <ele>188.4</ele>
        <time>2016-12-28T13:03:28Z</time>
      </trkpt>
      <trkpt lat="43.5809" lon="3.37181">
        <ele>188.9</ele>
        <time>2016-12-28T13:03:31Z</time>
      </trkpt>
      <trkpt lat="43.58094" lon="3.3719">
        <ele>189.3</ele>
        <time>2016-12-28T13:03:34Z</time>
      </trkpt>
      <trkpt lat="43.58098" lon="3.372">
        <ele>189.5</ele>
        <time>2016-12-28T13:03:38Z</time>
      </trkpt>
      <trkpt lat="43.58104" lon="3.37209">
        <ele>189.9</ele>
        <time>2016-12-28T13:03:42Z</time>
      </trkpt>
      <trkpt lat="43.58111" lon="3.37217">
        <ele>190.5</ele>
        <time>2016-12-28T13:03:46Z</time>
      </trkpt>
      <trkpt lat="43.58117" lon="3.37223">
        <ele>190.9</ele>
        <time>2016-12-28T13:03:49Z</time>
      </trkpt>
      <trkpt lat="43.58124" lon="3.37226">
        <ele>191.6</ele>
        <time>2016-12-28T13:03:52Z</time>
      </trkpt>
      <trkpt lat="43.58132" lon="3.3723">
        <ele>192</ele>
        <time>2016-12-28T13:03:55Z</time>
      </trkpt>
      <trkpt lat="43.58139" lon="3.37235">
        <ele>192.4</ele>
        <time>2016-12-28T13:03:58Z</time>
      </trkpt>
      <trkpt lat="43.58146" lon="3.3724">
        <ele>192.9</ele>
        <time>2016-12-28T13:04:01Z</time>
      </trkpt>
      <trkpt lat="43.58152" lon="3.3725">
        <ele>193.7</ele>
        <time>2016-12-28T13:04:05Z</time>
      </trkpt>
      <trkpt lat="43.58157" lon="3.37258">
        <ele>194</ele>
        <time>2016-12-28T13:04:07Z</time>
      </trkpt>
      <trkpt lat="43.58163" lon="3.37269">
        <ele>194.5</ele>
        <time>2016-12-28T13:04:10Z</time>
      </trkpt>
      <trkpt lat="43.5817" lon="3.37279">
        <ele>194.8</ele>
        <time>2016-12-28T13:04:13Z</time>
      </trkpt>
      <trkpt lat="43.58179" lon="3.37285">
        <ele>195</ele>
        <time>2016-12-28T13:04:16Z</time>
      </trkpt>
      <trkpt lat="43.58187" lon="3.37285">
        <ele>195.1</ele>
        <time>2016-12-28T13:04:18Z</time>
      </trkpt>
      <trkpt lat="43.58195" lon="3.37284">
        <ele>195.5</ele>
        <time>2016-12-28T13:04:20Z</time>
      </trkpt>
      <trkpt lat="43.58203" lon="3.37283">
        <ele>195.6</ele>
        <time>2016-12-28T13:04:22Z</time>
      </trkpt>
      <trkpt lat="43.58212" lon="3.37287">
        <ele>195.4</ele>
        <time>2016-12-28T13:04:24Z</time>
      </trkpt>
      <trkpt lat="43.58216" lon="3.37302">
        <ele>195.4</ele>
        <time>2016-12-28T13:04:27Z</time>
      </trkpt>
      <trkpt lat="43.58212" lon="3.37313">
        <ele>195.7</ele>
        <time>2016-12-28T13:04:30Z</time>
      </trkpt>
      <trkpt lat="43.58205" lon="3.37321">
        <ele>195.9</ele>
        <time>2016-12-28T13:04:33Z</time>
      </trkpt>
      <trkpt lat="43.582" lon="3.37331">
        <ele>196.1</ele>
        <time>2016-12-28T13:04:36Z</time>
      </trkpt>
      <trkpt lat="43.58196" lon="3.37343">
        <ele>196.1</ele>
        <time>2016-12-28T13:04:39Z</time>
      </trkpt>
      <trkpt lat="43.58196" lon="3.37358">
        <ele>197.5</ele>
        <time>2016-12-28T13:04:42Z</time>
      </trkpt>
      <trkpt lat="43.58198" lon="3.37372">
        <ele>197.9</ele>
        <time>2016-12-28T13:04:44Z</time>
      </trkpt>
      <trkpt lat="43.58199" lon="3.37387">
        <ele>198</ele>
        <time>2016-12-28T13:04:46Z</time>
      </trkpt>
      <trkpt lat="43.582" lon="3.37401">
        <ele>198.4</ele>
        <time>2016-12-28T13:04:48Z</time>
      </trkpt>
      <trkpt lat="43.582" lon="3.37414">
        <ele>198.6</ele>
        <time>2016-12-28T13:04:50Z</time>
      </trkpt>
      <trkpt lat="43.582" lon="3.37425">
        <ele>199.1</ele>
        <time>2016-12-28T13:04:52Z</time>
      </trkpt>
      <trkpt lat="43.58199" lon="3.37439">
        <ele>199.1</ele>
        <time>2016-12-28T13:04:54Z</time>
      </trkpt>
      <trkpt lat="43.58202" lon="3.37457">
        <ele>198.8</ele>
        <time>2016-12-28T13:04:56Z</time>
      </trkpt>
      <trkpt lat="43.58205" lon="3.37465">
        <ele>198.3</ele>
        <time>2016-12-28T13:04:57Z</time>
      </trkpt>
      <trkpt lat="43.58208" lon="3.37476">
        <ele>197.6</ele>
        <time>2016-12-28T13:04:58Z</time>
      </trkpt>
      <trkpt lat="43.58211" lon="3.37485">
        <ele>196.8</ele>
        <time>2016-12-28T13:04:59Z</time>
      </trkpt>
      <trkpt lat="43.58215" lon="3.37502">
        <ele>195.3</ele>
        <time>2016-12-28T13:05:01Z</time>
      </trkpt>
      <trkpt lat="43.58226" lon="3.37517">
        <ele>193.6</ele>
        <time>2016-12-28T13:05:03Z</time>
      </trkpt>
      <trkpt lat="43.58234" lon="3.37533">
        <ele>191.4</ele>
        <time>2016-12-28T13:05:05Z</time>
      </trkpt>
      <trkpt lat="43.58238" lon="3.37544">
        <ele>191.6</ele>
        <time>2016-12-28T13:05:07Z</time>
      </trkpt>
      <trkpt lat="43.58241" lon="3.37554">
        <ele>191.6</ele>
        <time>2016-12-28T13:05:09Z</time>
      </trkpt>
      <trkpt lat="43.58242" lon="3.37567">
        <ele>191.6</ele>
        <time>2016-12-28T13:05:12Z</time>
      </trkpt>
      <trkpt lat="43.58242" lon="3.37579">
        <ele>191.7</ele>
        <time>2016-12-28T13:05:15Z</time>
      </trkpt>
      <trkpt lat="43.58242" lon="3.3759">
        <ele>191.9</ele>
        <time>2016-12-28T13:05:18Z</time>
      </trkpt>
      <trkpt lat="43.5824" lon="3.376">
        <ele>192.1</ele>
        <time>2016-12-28T13:05:21Z</time>
      </trkpt>
      <trkpt lat="43.58238" lon="3.37611">
        <ele>192.4</ele>
        <time>2016-12-28T13:05:24Z</time>
      </trkpt>
      <trkpt lat="43.58236" lon="3.37623">
        <ele>192.6</ele>
        <time>2016-12-28T13:05:28Z</time>
      </trkpt>
      <trkpt lat="43.58233" lon="3.37634">
        <ele>193</ele>
        <time>2016-12-28T13:05:32Z</time>
      </trkpt>
      <trkpt lat="43.58232" lon="3.37644">
        <ele>193.8</ele>
        <time>2016-12-28T13:05:36Z</time>
      </trkpt>
      <trkpt lat="43.58227" lon="3.37655">
        <ele>194.6</ele>
        <time>2016-12-28T13:05:40Z</time>
      </trkpt>
      <trkpt lat="43.58223" lon="3.37665">
        <ele>195.2</ele>
        <time>2016-12-28T13:05:44Z</time>
      </trkpt>
      <trkpt lat="43.58215" lon="3.37675">
        <ele>195.8</ele>
        <time>2016-12-28T13:05:49Z</time>
      </trkpt>
      <trkpt lat="43.58208" lon="3.3768">
        <ele>196.5</ele>
        <time>2016-12-28T13:05:54Z</time>
      </trkpt>
      <trkpt lat="43.58201" lon="3.37673">
        <ele>196.9</ele>
        <time>2016-12-28T13:05:59Z</time>
      </trkpt>
      <trkpt lat="43.58197" lon="3.37665">
        <ele>197.3</ele>
        <time>2016-12-28T13:06:03Z</time>
      </trkpt>
      <trkpt lat="43.58194" lon="3.37655">
        <ele>198.1</ele>
        <time>2016-12-28T13:06:08Z</time>
      </trkpt>
      <trkpt lat="43.58189" lon="3.37648">
        <ele>199.1</ele>
        <time>2016-12-28T13:06:13Z</time>
      </trkpt>
      <trkpt lat="43.58181" lon="3.37644">
        <ele>199.4</ele>
        <time>2016-12-28T13:06:17Z</time>
      </trkpt>
      <trkpt lat="43.58173" lon="3.37639">
        <ele>200</ele>
        <time>2016-12-28T13:06:21Z</time>
      </trkpt>
      <trkpt lat="43.58165" lon="3.37633">
        <ele>200.4</ele>
        <time>2016-12-28T13:06:25Z</time>
      </trkpt>
      <trkpt lat="43.58159" lon="3.37626">
        <ele>201</ele>
        <time>2016-12-28T13:06:29Z</time>
      </trkpt>
      <trkpt lat="43.58154" lon="3.37615">
        <ele>201.8</ele>
        <time>2016-12-28T13:06:34Z</time>
      </trkpt>
      <trkpt lat="43.58148" lon="3.37607">
        <ele>202.1</ele>
        <time>2016-12-28T13:06:38Z</time>
      </trkpt>
      <trkpt lat="43.5814" lon="3.37601">
        <ele>202.9</ele>
        <time>2016-12-28T13:06:43Z</time>
      </trkpt>
      <trkpt lat="43.58133" lon="3.37596">
        <ele>203.7</ele>
        <time>2016-12-28T13:06:48Z</time>
      </trkpt>
      <trkpt lat="43.58126" lon="3.37593">
        <ele>204.4</ele>
        <time>2016-12-28T13:06:52Z</time>
      </trkpt>
      <trkpt lat="43.58118" lon="3.37596">
        <ele>205.2</ele>
        <time>2016-12-28T13:06:56Z</time>
      </trkpt>
      <trkpt lat="43.5812" lon="3.37606">
        <ele>206.3</ele>
        <time>2016-12-28T13:07:01Z</time>
      </trkpt>
      <trkpt lat="43.58124" lon="3.37615">
        <ele>207.5</ele>
        <time>2016-12-28T13:07:06Z</time>
      </trkpt>
      <trkpt lat="43.58126" lon="3.37625">
        <ele>208.8</ele>
        <time>2016-12-28T13:07:11Z</time>
      </trkpt>
      <trkpt lat="43.58126" lon="3.37635">
        <ele>209.8</ele>
        <time>2016-12-28T13:07:15Z</time>
      </trkpt>
      <trkpt lat="43.58125" lon="3.37645">
        <ele>210.5</ele>
        <time>2016-12-28T13:07:18Z</time>
      </trkpt>
      <trkpt lat="43.58124" lon="3.37655">
        <ele>211.5</ele>
        <time>2016-12-28T13:07:22Z</time>
      </trkpt>
      <trkpt lat="43.58121" lon="3.37666">
        <ele>212.7</ele>
        <time>2016-12-28T13:07:26Z</time>
      </trkpt>
      <trkpt lat="43.58119" lon="3.37676">
        <ele>213.9</ele>
        <time>2016-12-28T13:07:30Z</time>
      </trkpt>
      <trkpt lat="43.58118" lon="3.37686">
        <ele>214.9</ele>
        <time>2016-12-28T13:07:34Z</time>
      </trkpt>
      <trkpt lat="43.58117" lon="3.37699">
        <ele>215.9</ele>
        <time>2016-12-28T13:07:38Z</time>
      </trkpt>
      <trkpt lat="43.58117" lon="3.3771">
        <ele>216.7</ele>
        <time>2016-12-28T13:07:42Z</time>
      </trkpt>
      <trkpt lat="43.5812" lon="3.37721">
        <ele>217.4</ele>
        <time>2016-12-28T13:07:46Z</time>
      </trkpt>
      <trkpt lat="43.58127" lon="3.3773">
        <ele>218</ele>
        <time>2016-12-28T13:07:50Z</time>
      </trkpt>
      <trkpt lat="43.58133" lon="3.37737">
        <ele>218.4</ele>
        <time>2016-12-28T13:07:54Z</time>
      </trkpt>
      <trkpt lat="43.58138" lon="3.37745">
        <ele>218.8</ele>
        <time>2016-12-28T13:07:57Z</time>
      </trkpt>
      <trkpt lat="43.58144" lon="3.37753">
        <ele>219.3</ele>
        <time>2016-12-28T13:08:01Z</time>
      </trkpt>
      <trkpt lat="43.58149" lon="3.37761">
        <ele>219.5</ele>
        <time>2016-12-28T13:08:04Z</time>
      </trkpt>
      <trkpt lat="43.58152" lon="3.37769">
        <ele>219.8</ele>
        <time>2016-12-28T13:08:07Z</time>
      </trkpt>
      <trkpt lat="43.58157" lon="3.3778">
        <ele>220.2</ele>
        <time>2016-12-28T13:08:11Z</time>
      </trkpt>
      <trkpt lat="43.58161" lon="3.37791">
        <ele>220.5</ele>
        <time>2016-12-28T13:08:14Z</time>
      </trkpt>
      <trkpt lat="43.58164" lon="3.37802">
        <ele>220.7</ele>
        <time>2016-12-28T13:08:17Z</time>
      </trkpt>
      <trkpt lat="43.58171" lon="3.3781">
        <ele>221.1</ele>
        <time>2016-12-28T13:08:20Z</time>
      </trkpt>
      <trkpt lat="43.58178" lon="3.37815">
        <ele>222.5</ele>
        <time>2016-12-28T13:08:22Z</time>
      </trkpt>
      <trkpt lat="43.58187" lon="3.37819">
        <ele>222.6</ele>
        <time>2016-12-28T13:08:24Z</time>
      </trkpt>
      <trkpt lat="43.58197" lon="3.37824">
        <ele>222.9</ele>
        <time>2016-12-28T13:08:27Z</time>
      </trkpt>
      <trkpt lat="43.58204" lon="3.37831">
        <ele>223.1</ele>
        <time>2016-12-28T13:08:30Z</time>
      </trkpt>
      <trkpt lat="43.5821" lon="3.3784">
        <ele>223.3</ele>
        <time>2016-12-28T13:08:33Z</time>
      </trkpt>
      <trkpt lat="43.58214" lon="3.3785">
        <ele>223.5</ele>
        <time>2016-12-28T13:08:36Z</time>
      </trkpt>
      <trkpt lat="43.58219" lon="3.37859">
        <ele>223.6</ele>
        <time>2016-12-28T13:08:38Z</time>
      </trkpt>
      <trkpt lat="43.58225" lon="3.37866">
        <ele>224.1</ele>
        <time>2016-12-28T13:08:40Z</time>
      </trkpt>
      <trkpt lat="43.58232" lon="3.37872">
        <ele>225.2</ele>
        <time>2016-12-28T13:08:42Z</time>
      </trkpt>
      <trkpt lat="43.5824" lon="3.37877">
        <ele>224.8</ele>
        <time>2016-12-28T13:08:44Z</time>
      </trkpt>
      <trkpt lat="43.5825" lon="3.37882">
        <ele>224.9</ele>
        <time>2016-12-28T13:08:46Z</time>
      </trkpt>
      <trkpt lat="43.58259" lon="3.37887">
        <ele>224.5</ele>
        <time>2016-12-28T13:08:48Z</time>
      </trkpt>
      <trkpt lat="43.58266" lon="3.37892">
        <ele>223.9</ele>
        <time>2016-12-28T13:08:49Z</time>
      </trkpt>
      <trkpt lat="43.58276" lon="3.37901">
        <ele>222.6</ele>
        <time>2016-12-28T13:08:51Z</time>
      </trkpt>
      <trkpt lat="43.58283" lon="3.37908">
        <ele>222</ele>
        <time>2016-12-28T13:08:52Z</time>
      </trkpt>
      <trkpt lat="43.58289" lon="3.37914">
        <ele>221.6</ele>
        <time>2016-12-28T13:08:53Z</time>
      </trkpt>
      <trkpt lat="43.58297" lon="3.37923">
        <ele>221.5</ele>
        <time>2016-12-28T13:08:55Z</time>
      </trkpt>
      <trkpt lat="43.58305" lon="3.3793">
        <ele>221.6</ele>
        <time>2016-12-28T13:08:57Z</time>
      </trkpt>
      <trkpt lat="43.58312" lon="3.37939">
        <ele>222.1</ele>
        <time>2016-12-28T13:08:59Z</time>
      </trkpt>
      <trkpt lat="43.5832" lon="3.37948">
        <ele>221.9</ele>
        <time>2016-12-28T13:09:01Z</time>
      </trkpt>
      <trkpt lat="43.58324" lon="3.37958">
        <ele>221.9</ele>
        <time>2016-12-28T13:09:03Z</time>
      </trkpt>
      <trkpt lat="43.58324" lon="3.3797">
        <ele>221.9</ele>
        <time>2016-12-28T13:09:06Z</time>
      </trkpt>
      <trkpt lat="43.58322" lon="3.37984">
        <ele>222.1</ele>
        <time>2016-12-28T13:09:09Z</time>
      </trkpt>
      <trkpt lat="43.58322" lon="3.37995">
        <ele>222</ele>
        <time>2016-12-28T13:09:11Z</time>
      </trkpt>
      <trkpt lat="43.58325" lon="3.38009">
        <ele>222</ele>
        <time>2016-12-28T13:09:14Z</time>
      </trkpt>
      <trkpt lat="43.58327" lon="3.38022">
        <ele>222.1</ele>
        <time>2016-12-28T13:09:17Z</time>
      </trkpt>
      <trkpt lat="43.58329" lon="3.38034">
        <ele>222.2</ele>
        <time>2016-12-28T13:09:20Z</time>
      </trkpt>
      <trkpt lat="43.58333" lon="3.38044">
        <ele>222.3</ele>
        <time>2016-12-28T13:09:23Z</time>
      </trkpt>
      <trkpt lat="43.58339" lon="3.38055">
        <ele>222.7</ele>
        <time>2016-12-28T13:09:26Z</time>
      </trkpt>
      <trkpt lat="43.58344" lon="3.38065">
        <ele>223</ele>
        <time>2016-12-28T13:09:29Z</time>
      </trkpt>
      <trkpt lat="43.58349" lon="3.38074">
        <ele>223.1</ele>
        <time>2016-12-28T13:09:32Z</time>
      </trkpt>
      <trkpt lat="43.5835" lon="3.38084">
        <ele>223.4</ele>
        <time>2016-12-28T13:09:35Z</time>
      </trkpt>
      <trkpt lat="43.58351" lon="3.38097">
        <ele>223.6</ele>
        <time>2016-12-28T13:09:38Z</time>
      </trkpt>
      <trkpt lat="43.58353" lon="3.38107">
        <ele>223.7</ele>
        <time>2016-12-28T13:09:40Z</time>
      </trkpt>
      <trkpt lat="43.58356" lon="3.38122">
        <ele>223.8</ele>
        <time>2016-12-28T13:09:43Z</time>
      </trkpt>
      <trkpt lat="43.5836" lon="3.38134">
        <ele>224.1</ele>
        <time>2016-12-28T13:09:46Z</time>
      </trkpt>
      <trkpt lat="43.58366" lon="3.38143">
        <ele>224.5</ele>
        <time>2016-12-28T13:09:49Z</time>
      </trkpt>
      <trkpt lat="43.58373" lon="3.38152">
        <ele>224.8</ele>
        <time>2016-12-28T13:09:52Z</time>
      </trkpt>
      <trkpt lat="43.5838" lon="3.38163">
        <ele>225.2</ele>
        <time>2016-12-28T13:09:55Z</time>
      </trkpt>
      <trkpt lat="43.58386" lon="3.38171">
        <ele>225.4</ele>
        <time>2016-12-28T13:09:58Z</time>
      </trkpt>
      <trkpt lat="43.58391" lon="3.3818">
        <ele>225.7</ele>
        <time>2016-12-28T13:10:01Z</time>
      </trkpt>
      <trkpt lat="43.58398" lon="3.38188">
        <ele>225.9</ele>
        <time>2016-12-28T13:10:04Z</time>
      </trkpt>
      <trkpt lat="43.58407" lon="3.38196">
        <ele>226.3</ele>
        <time>2016-12-28T13:10:07Z</time>
      </trkpt>
      <trkpt lat="43.58408" lon="3.38209">
        <ele>226.4</ele>
        <time>2016-12-28T13:10:10Z</time>
      </trkpt>
      <trkpt lat="43.58408" lon="3.38223">
        <ele>226.7</ele>
        <time>2016-12-28T13:10:14Z</time>
      </trkpt>
      <trkpt lat="43.5841" lon="3.38234">
        <ele>226.9</ele>
        <time>2016-12-28T13:10:17Z</time>
      </trkpt>
      <trkpt lat="43.58411" lon="3.38245">
        <ele>227.2</ele>
        <time>2016-12-28T13:10:22Z</time>
      </trkpt>
      <trkpt lat="43.58416" lon="3.38256">
        <ele>227.5</ele>
        <time>2016-12-28T13:10:26Z</time>
      </trkpt>
      <trkpt lat="43.58421" lon="3.38267">
        <ele>227.7</ele>
        <time>2016-12-28T13:10:30Z</time>
      </trkpt>
      <trkpt lat="43.58424" lon="3.38278">
        <ele>228.1</ele>
        <time>2016-12-28T13:10:35Z</time>
      </trkpt>
      <trkpt lat="43.58427" lon="3.38289">
        <ele>228.6</ele>
        <time>2016-12-28T13:10:39Z</time>
      </trkpt>
      <trkpt lat="43.58429" lon="3.38299">
        <ele>229.3</ele>
        <time>2016-12-28T13:10:44Z</time>
      </trkpt>
      <trkpt lat="43.5843" lon="3.3831">
        <ele>230.1</ele>
        <time>2016-12-28T13:10:49Z</time>
      </trkpt>
      <trkpt lat="43.58431" lon="3.3832">
        <ele>230.8</ele>
        <time>2016-12-28T13:10:53Z</time>
      </trkpt>
      <trkpt lat="43.58432" lon="3.38331">
        <ele>232</ele>
        <time>2016-12-28T13:10:59Z</time>
      </trkpt>
      <trkpt lat="43.58432" lon="3.38342">
        <ele>233.4</ele>
        <time>2016-12-28T13:11:05Z</time>
      </trkpt>
      <trkpt lat="43.58438" lon="3.38366">
        <ele>236.7</ele>
        <time>2016-12-28T13:11:25Z</time>
      </trkpt>
      <trkpt lat="43.58438" lon="3.38368">
        <ele>237.8</ele>
        <time>2016-12-28T13:11:32Z</time>
      </trkpt>
      <trkpt lat="43.5844" lon="3.38393">
        <ele>240.2</ele>
        <time>2016-12-28T13:11:48Z</time>
      </trkpt>
      <trkpt lat="43.5844" lon="3.384">
        <ele>240.6</ele>
        <time>2016-12-28T13:11:55Z</time>
      </trkpt>
      <trkpt lat="43.5844" lon="3.38411">
        <ele>240.8</ele>
        <time>2016-12-28T13:12:01Z</time>
      </trkpt>
      <trkpt lat="43.5844" lon="3.38419">
        <ele>241.4</ele>
        <time>2016-12-28T13:12:08Z</time>
      </trkpt>
      <trkpt lat="43.58439" lon="3.38426">
        <ele>241.8</ele>
        <time>2016-12-28T13:12:15Z</time>
      </trkpt>
      <trkpt lat="43.58436" lon="3.38435">
        <ele>242</ele>
        <time>2016-12-28T13:12:19Z</time>
      </trkpt>
      <trkpt lat="43.58432" lon="3.38442">
        <ele>242.1</ele>
        <time>2016-12-28T13:12:26Z</time>
      </trkpt>
      <trkpt lat="43.58431" lon="3.38448">
        <ele>242.6</ele>
        <time>2016-12-28T13:12:33Z</time>
      </trkpt>
      <trkpt lat="43.58435" lon="3.38458">
        <ele>243</ele>
        <time>2016-12-28T13:12:39Z</time>
      </trkpt>
      <trkpt lat="43.58438" lon="3.38465">
        <ele>243.7</ele>
        <time>2016-12-28T13:12:46Z</time>
      </trkpt>
      <trkpt lat="43.58442" lon="3.38467">
        <ele>244</ele>
        <time>2016-12-28T13:12:53Z</time>
      </trkpt>
      <trkpt lat="43.58467" lon="3.38475">
        <ele>246.4</ele>
        <time>2016-12-28T13:13:35Z</time>
      </trkpt>
      <trkpt lat="43.58473" lon="3.38483">
        <ele>246.6</ele>
        <time>2016-12-28T13:13:40Z</time>
      </trkpt>
      <trkpt lat="43.58479" lon="3.38489">
        <ele>246.6</ele>
        <time>2016-12-28T13:13:43Z</time>
      </trkpt>
      <trkpt lat="43.58486" lon="3.38499">
        <ele>246.7</ele>
        <time>2016-12-28T13:13:47Z</time>
      </trkpt>
      <trkpt lat="43.58492" lon="3.38509">
        <ele>246.7</ele>
        <time>2016-12-28T13:13:50Z</time>
      </trkpt>
      <trkpt lat="43.58495" lon="3.38521">
        <ele>246.5</ele>
        <time>2016-12-28T13:13:53Z</time>
      </trkpt>
      <trkpt lat="43.58495" lon="3.38531">
        <ele>246.3</ele>
        <time>2016-12-28T13:13:55Z</time>
      </trkpt>
      <trkpt lat="43.58494" lon="3.38541">
        <ele>246.1</ele>
        <time>2016-12-28T13:13:57Z</time>
      </trkpt>
      <trkpt lat="43.58494" lon="3.38555">
        <ele>245.9</ele>
        <time>2016-12-28T13:14:00Z</time>
      </trkpt>
      <trkpt lat="43.58495" lon="3.38565">
        <ele>245.7</ele>
        <time>2016-12-28T13:14:02Z</time>
      </trkpt>
      <trkpt lat="43.58496" lon="3.38576">
        <ele>245.4</ele>
        <time>2016-12-28T13:14:04Z</time>
      </trkpt>
      <trkpt lat="43.58499" lon="3.38588">
        <ele>245.1</ele>
        <time>2016-12-28T13:14:07Z</time>
      </trkpt>
      <trkpt lat="43.58501" lon="3.38598">
        <ele>244.9</ele>
        <time>2016-12-28T13:14:10Z</time>
      </trkpt>
      <trkpt lat="43.58503" lon="3.38611">
        <ele>244.8</ele>
        <time>2016-12-28T13:14:14Z</time>
      </trkpt>
      <trkpt lat="43.58503" lon="3.38622">
        <ele>244.8</ele>
        <time>2016-12-28T13:14:18Z</time>
      </trkpt>
      <trkpt lat="43.58504" lon="3.38635">
        <ele>244.7</ele>
        <time>2016-12-28T13:14:22Z</time>
      </trkpt>
      <trkpt lat="43.58504" lon="3.38646">
        <ele>244.7</ele>
        <time>2016-12-28T13:14:26Z</time>
      </trkpt>
      <trkpt lat="43.58506" lon="3.38657">
        <ele>244.7</ele>
        <time>2016-12-28T13:14:30Z</time>
      </trkpt>
      <trkpt lat="43.58509" lon="3.3867">
        <ele>244.7</ele>
        <time>2016-12-28T13:14:34Z</time>
      </trkpt>
      <trkpt lat="43.58512" lon="3.38682">
        <ele>244.9</ele>
        <time>2016-12-28T13:14:38Z</time>
      </trkpt>
      <trkpt lat="43.58514" lon="3.38692">
        <ele>245.1</ele>
        <time>2016-12-28T13:14:42Z</time>
      </trkpt>
      <trkpt lat="43.58516" lon="3.38703">
        <ele>245.6</ele>
        <time>2016-12-28T13:14:46Z</time>
      </trkpt>
      <trkpt lat="43.58518" lon="3.38714">
        <ele>245.9</ele>
        <time>2016-12-28T13:14:49Z</time>
      </trkpt>
      <trkpt lat="43.58519" lon="3.38725">
        <ele>246.2</ele>
        <time>2016-12-28T13:14:52Z</time>
      </trkpt>
      <trkpt lat="43.58519" lon="3.38738">
        <ele>246.5</ele>
        <time>2016-12-28T13:14:56Z</time>
      </trkpt>
      <trkpt lat="43.58519" lon="3.38748">
        <ele>246.6</ele>
        <time>2016-12-28T13:14:59Z</time>
      </trkpt>
      <trkpt lat="43.58518" lon="3.3876">
        <ele>246.9</ele>
        <time>2016-12-28T13:15:03Z</time>
      </trkpt>
      <trkpt lat="43.58519" lon="3.38773">
        <ele>247.2</ele>
        <time>2016-12-28T13:15:07Z</time>
      </trkpt>
      <trkpt lat="43.58519" lon="3.38785">
        <ele>247.5</ele>
        <time>2016-12-28T13:15:11Z</time>
      </trkpt>
      <trkpt lat="43.58518" lon="3.38795">
        <ele>247.6</ele>
        <time>2016-12-28T13:15:14Z</time>
      </trkpt>
      <trkpt lat="43.58515" lon="3.38805">
        <ele>247.8</ele>
        <time>2016-12-28T13:15:17Z</time>
      </trkpt>
      <trkpt lat="43.58512" lon="3.38816">
        <ele>248</ele>
        <time>2016-12-28T13:15:20Z</time>
      </trkpt>
      <trkpt lat="43.5851" lon="3.38826">
        <ele>248.2</ele>
        <time>2016-12-28T13:15:24Z</time>
      </trkpt>
      <trkpt lat="43.58509" lon="3.38838">
        <ele>248.4</ele>
        <time>2016-12-28T13:15:28Z</time>
      </trkpt>
      <trkpt lat="43.58509" lon="3.38851">
        <ele>248.6</ele>
        <time>2016-12-28T13:15:32Z</time>
      </trkpt>
      <trkpt lat="43.58508" lon="3.38861">
        <ele>248.8</ele>
        <time>2016-12-28T13:15:36Z</time>
      </trkpt>
      <trkpt lat="43.58507" lon="3.38874">
        <ele>249.1</ele>
        <time>2016-12-28T13:15:40Z</time>
      </trkpt>
      <trkpt lat="43.58505" lon="3.38884">
        <ele>249.8</ele>
        <time>2016-12-28T13:15:44Z</time>
      </trkpt>
      <trkpt lat="43.585" lon="3.38895">
        <ele>250.3</ele>
        <time>2016-12-28T13:15:48Z</time>
      </trkpt>
      <trkpt lat="43.58493" lon="3.38901">
        <ele>250.8</ele>
        <time>2016-12-28T13:15:52Z</time>
      </trkpt>
      <trkpt lat="43.58486" lon="3.38906">
        <ele>251.1</ele>
        <time>2016-12-28T13:15:55Z</time>
      </trkpt>
      <trkpt lat="43.58479" lon="3.38911">
        <ele>251.4</ele>
        <time>2016-12-28T13:15:58Z</time>
      </trkpt>
      <trkpt lat="43.58472" lon="3.3892">
        <ele>251.9</ele>
        <time>2016-12-28T13:16:02Z</time>
      </trkpt>
      <trkpt lat="43.58468" lon="3.38928">
        <ele>252.2</ele>
        <time>2016-12-28T13:16:05Z</time>
      </trkpt>
      <trkpt lat="43.58464" lon="3.38938">
        <ele>252.6</ele>
        <time>2016-12-28T13:16:08Z</time>
      </trkpt>
      <trkpt lat="43.5846" lon="3.38947">
        <ele>252.9</ele>
        <time>2016-12-28T13:16:11Z</time>
      </trkpt>
      <trkpt lat="43.58458" lon="3.38959">
        <ele>253.2</ele>
        <time>2016-12-28T13:16:15Z</time>
      </trkpt>
      <trkpt lat="43.58455" lon="3.3897">
        <ele>253.7</ele>
        <time>2016-12-28T13:16:19Z</time>
      </trkpt>
      <trkpt lat="43.58453" lon="3.38983">
        <ele>254.4</ele>
        <time>2016-12-28T13:16:23Z</time>
      </trkpt>
      <trkpt lat="43.58451" lon="3.38996">
        <ele>254.9</ele>
        <time>2016-12-28T13:16:27Z</time>
      </trkpt>
      <trkpt lat="43.58449" lon="3.39007">
        <ele>255.4</ele>
        <time>2016-12-28T13:16:31Z</time>
      </trkpt>
      <trkpt lat="43.58448" lon="3.39016">
        <ele>256.2</ele>
        <time>2016-12-28T13:16:35Z</time>
      </trkpt>
      <trkpt lat="43.58445" lon="3.39027">
        <ele>257</ele>
        <time>2016-12-28T13:16:39Z</time>
      </trkpt>
      <trkpt lat="43.58442" lon="3.39038">
        <ele>257.9</ele>
        <time>2016-12-28T13:16:43Z</time>
      </trkpt>
      <trkpt lat="43.58439" lon="3.39047">
        <ele>258.5</ele>
        <time>2016-12-28T13:16:46Z</time>
      </trkpt>
      <trkpt lat="43.58435" lon="3.39056">
        <ele>259.1</ele>
        <time>2016-12-28T13:16:49Z</time>
      </trkpt>
      <trkpt lat="43.58431" lon="3.39066">
        <ele>259.9</ele>
        <time>2016-12-28T13:16:53Z</time>
      </trkpt>
      <trkpt lat="43.58425" lon="3.39074">
        <ele>260.6</ele>
        <time>2016-12-28T13:16:57Z</time>
      </trkpt>
      <trkpt lat="43.5842" lon="3.39084">
        <ele>261.3</ele>
        <time>2016-12-28T13:17:01Z</time>
      </trkpt>
      <trkpt lat="43.58418" lon="3.39095">
        <ele>262</ele>
        <time>2016-12-28T13:17:05Z</time>
      </trkpt>
      <trkpt lat="43.58419" lon="3.39107">
        <ele>262.9</ele>
        <time>2016-12-28T13:17:09Z</time>
      </trkpt>
      <trkpt lat="43.58417" lon="3.39119">
        <ele>263.8</ele>
        <time>2016-12-28T13:17:13Z</time>
      </trkpt>
      <trkpt lat="43.58413" lon="3.3913">
        <ele>264.5</ele>
        <time>2016-12-28T13:17:17Z</time>
      </trkpt>
      <trkpt lat="43.58409" lon="3.39139">
        <ele>265.2</ele>
        <time>2016-12-28T13:17:21Z</time>
      </trkpt>
      <trkpt lat="43.58404" lon="3.3915">
        <ele>265.9</ele>
        <time>2016-12-28T13:17:25Z</time>
      </trkpt>
      <trkpt lat="43.584" lon="3.39158">
        <ele>266.3</ele>
        <time>2016-12-28T13:17:28Z</time>
      </trkpt>
      <trkpt lat="43.58396" lon="3.39169">
        <ele>266.7</ele>
        <time>2016-12-28T13:17:32Z</time>
      </trkpt>
      <trkpt lat="43.58393" lon="3.39178">
        <ele>267.1</ele>
        <time>2016-12-28T13:17:36Z</time>
      </trkpt>
      <trkpt lat="43.58389" lon="3.39189">
        <ele>267.4</ele>
        <time>2016-12-28T13:17:40Z</time>
      </trkpt>
      <trkpt lat="43.58384" lon="3.39199">
        <ele>267.7</ele>
        <time>2016-12-28T13:17:44Z</time>
      </trkpt>
      <trkpt lat="43.58379" lon="3.39208">
        <ele>268</ele>
        <time>2016-12-28T13:17:48Z</time>
      </trkpt>
      <trkpt lat="43.58372" lon="3.39217">
        <ele>268.5</ele>
        <time>2016-12-28T13:17:52Z</time>
      </trkpt>
      <trkpt lat="43.58365" lon="3.39225">
        <ele>269.1</ele>
        <time>2016-12-28T13:17:56Z</time>
      </trkpt>
      <trkpt lat="43.58359" lon="3.39231">
        <ele>269.9</ele>
        <time>2016-12-28T13:18:00Z</time>
      </trkpt>
      <trkpt lat="43.58352" lon="3.39238">
        <ele>270.7</ele>
        <time>2016-12-28T13:18:04Z</time>
      </trkpt>
      <trkpt lat="43.58345" lon="3.39244">
        <ele>271.7</ele>
        <time>2016-12-28T13:18:08Z</time>
      </trkpt>
      <trkpt lat="43.58338" lon="3.39253">
        <ele>272.6</ele>
        <time>2016-12-28T13:18:12Z</time>
      </trkpt>
      <trkpt lat="43.58333" lon="3.39259">
        <ele>273.2</ele>
        <time>2016-12-28T13:18:15Z</time>
      </trkpt>
      <trkpt lat="43.58327" lon="3.39267">
        <ele>273.7</ele>
        <time>2016-12-28T13:18:18Z</time>
      </trkpt>
      <trkpt lat="43.58321" lon="3.39274">
        <ele>274.2</ele>
        <time>2016-12-28T13:18:21Z</time>
      </trkpt>
      <trkpt lat="43.58316" lon="3.39283">
        <ele>274.9</ele>
        <time>2016-12-28T13:18:25Z</time>
      </trkpt>
      <trkpt lat="43.58311" lon="3.39292">
        <ele>275.2</ele>
        <time>2016-12-28T13:18:28Z</time>
      </trkpt>
      <trkpt lat="43.58307" lon="3.39301">
        <ele>275.6</ele>
        <time>2016-12-28T13:18:31Z</time>
      </trkpt>
      <trkpt lat="43.58303" lon="3.3931">
        <ele>275.9</ele>
        <time>2016-12-28T13:18:34Z</time>
      </trkpt>
      <trkpt lat="43.58301" lon="3.39321">
        <ele>276.1</ele>
        <time>2016-12-28T13:18:37Z</time>
      </trkpt>
      <trkpt lat="43.58298" lon="3.39332">
        <ele>276.2</ele>
        <time>2016-12-28T13:18:41Z</time>
      </trkpt>
      <trkpt lat="43.58296" lon="3.39341">
        <ele>276.6</ele>
        <time>2016-12-28T13:18:44Z</time>
      </trkpt>
      <trkpt lat="43.58291" lon="3.39352">
        <ele>277.5</ele>
        <time>2016-12-28T13:18:48Z</time>
      </trkpt>
      <trkpt lat="43.58285" lon="3.3936">
        <ele>278.4</ele>
        <time>2016-12-28T13:18:52Z</time>
      </trkpt>
      <trkpt lat="43.58282" lon="3.39369">
        <ele>279.1</ele>
        <time>2016-12-28T13:18:56Z</time>
      </trkpt>
      <trkpt lat="43.58288" lon="3.39378">
        <ele>279.9</ele>
        <time>2016-12-28T13:19:00Z</time>
      </trkpt>
      <trkpt lat="43.58294" lon="3.39383">
        <ele>280.6</ele>
        <time>2016-12-28T13:19:03Z</time>
      </trkpt>
      <trkpt lat="43.58302" lon="3.3939">
        <ele>281.6</ele>
        <time>2016-12-28T13:19:07Z</time>
      </trkpt>
      <trkpt lat="43.58308" lon="3.39398">
        <ele>282.7</ele>
        <time>2016-12-28T13:19:11Z</time>
      </trkpt>
      <trkpt lat="43.58316" lon="3.39403">
        <ele>283.7</ele>
        <time>2016-12-28T13:19:15Z</time>
      </trkpt>
      <trkpt lat="43.58322" lon="3.39408">
        <ele>284.7</ele>
        <time>2016-12-28T13:19:19Z</time>
      </trkpt>
      <trkpt lat="43.58329" lon="3.39414">
        <ele>285.5</ele>
        <time>2016-12-28T13:19:22Z</time>
      </trkpt>
      <trkpt lat="43.58335" lon="3.39419">
        <ele>286.2</ele>
        <time>2016-12-28T13:19:25Z</time>
      </trkpt>
      <trkpt lat="43.58342" lon="3.39426">
        <ele>286.7</ele>
        <time>2016-12-28T13:19:28Z</time>
      </trkpt>
      <trkpt lat="43.58348" lon="3.39434">
        <ele>287</ele>
        <time>2016-12-28T13:19:31Z</time>
      </trkpt>
      <trkpt lat="43.58354" lon="3.39444">
        <ele>287.2</ele>
        <time>2016-12-28T13:19:34Z</time>
      </trkpt>
      <trkpt lat="43.58357" lon="3.39453">
        <ele>287.4</ele>
        <time>2016-12-28T13:19:37Z</time>
      </trkpt>
      <trkpt lat="43.58361" lon="3.39467">
        <ele>287.6</ele>
        <time>2016-12-28T13:19:40Z</time>
      </trkpt>
      <trkpt lat="43.58362" lon="3.39477">
        <ele>287.6</ele>
        <time>2016-12-28T13:19:43Z</time>
      </trkpt>
      <trkpt lat="43.58364" lon="3.3949">
        <ele>287.7</ele>
        <time>2016-12-28T13:19:47Z</time>
      </trkpt>
      <trkpt lat="43.58366" lon="3.39501">
        <ele>287.7</ele>
        <time>2016-12-28T13:19:50Z</time>
      </trkpt>
      <trkpt lat="43.58369" lon="3.39511">
        <ele>287.8</ele>
        <time>2016-12-28T13:19:53Z</time>
      </trkpt>
      <trkpt lat="43.58372" lon="3.39522">
        <ele>287.8</ele>
        <time>2016-12-28T13:19:56Z</time>
      </trkpt>
      <trkpt lat="43.58375" lon="3.39534">
        <ele>288</ele>
        <time>2016-12-28T13:20:00Z</time>
      </trkpt>
      <trkpt lat="43.58381" lon="3.39544">
        <ele>288.3</ele>
        <time>2016-12-28T13:20:04Z</time>
      </trkpt>
      <trkpt lat="43.58387" lon="3.39554">
        <ele>288.7</ele>
        <time>2016-12-28T13:20:08Z</time>
      </trkpt>
      <trkpt lat="43.58392" lon="3.39564">
        <ele>289.2</ele>
        <time>2016-12-28T13:20:12Z</time>
      </trkpt>
      <trkpt lat="43.58396" lon="3.39573">
        <ele>290.1</ele>
        <time>2016-12-28T13:20:16Z</time>
      </trkpt>
      <trkpt lat="43.58396" lon="3.39585">
        <ele>291.2</ele>
        <time>2016-12-28T13:20:21Z</time>
      </trkpt>
      <trkpt lat="43.58392" lon="3.39593">
        <ele>292</ele>
        <time>2016-12-28T13:20:25Z</time>
      </trkpt>
      <trkpt lat="43.58384" lon="3.396">
        <ele>293</ele>
        <time>2016-12-28T13:20:30Z</time>
      </trkpt>
      <trkpt lat="43.58377" lon="3.39606">
        <ele>293.6</ele>
        <time>2016-12-28T13:20:34Z</time>
      </trkpt>
      <trkpt lat="43.58372" lon="3.39614">
        <ele>294.3</ele>
        <time>2016-12-28T13:20:38Z</time>
      </trkpt>
      <trkpt lat="43.58368" lon="3.39625">
        <ele>295</ele>
        <time>2016-12-28T13:20:42Z</time>
      </trkpt>
      <trkpt lat="43.58367" lon="3.39635">
        <ele>295.3</ele>
        <time>2016-12-28T13:20:46Z</time>
      </trkpt>
      <trkpt lat="43.58367" lon="3.39646">
        <ele>295.9</ele>
        <time>2016-12-28T13:20:50Z</time>
      </trkpt>
      <trkpt lat="43.58368" lon="3.39657">
        <ele>296.7</ele>
        <time>2016-12-28T13:20:54Z</time>
      </trkpt>
      <trkpt lat="43.58371" lon="3.39669">
        <ele>297.2</ele>
        <time>2016-12-28T13:20:58Z</time>
      </trkpt>
      <trkpt lat="43.58372" lon="3.39679">
        <ele>297.7</ele>
        <time>2016-12-28T13:21:02Z</time>
      </trkpt>
      <trkpt lat="43.58373" lon="3.39692">
        <ele>298.3</ele>
        <time>2016-12-28T13:21:06Z</time>
      </trkpt>
      <trkpt lat="43.58374" lon="3.39702">
        <ele>298.9</ele>
        <time>2016-12-28T13:21:09Z</time>
      </trkpt>
      <trkpt lat="43.58375" lon="3.39714">
        <ele>300</ele>
        <time>2016-12-28T13:21:14Z</time>
      </trkpt>
      <trkpt lat="43.58374" lon="3.39725">
        <ele>300.9</ele>
        <time>2016-12-28T13:21:18Z</time>
      </trkpt>
      <trkpt lat="43.58373" lon="3.39736">
        <ele>301.5</ele>
        <time>2016-12-28T13:21:22Z</time>
      </trkpt>
      <trkpt lat="43.58373" lon="3.39746">
        <ele>302.4</ele>
        <time>2016-12-28T13:21:27Z</time>
      </trkpt>
      <trkpt lat="43.58378" lon="3.39755">
        <ele>303.5</ele>
        <time>2016-12-28T13:21:31Z</time>
      </trkpt>
      <trkpt lat="43.58384" lon="3.39765">
        <ele>304.7</ele>
        <time>2016-12-28T13:21:36Z</time>
      </trkpt>
      <trkpt lat="43.58389" lon="3.39771">
        <ele>305.6</ele>
        <time>2016-12-28T13:21:40Z</time>
      </trkpt>
      <trkpt lat="43.58396" lon="3.39778">
        <ele>306.9</ele>
        <time>2016-12-28T13:21:45Z</time>
      </trkpt>
      <trkpt lat="43.58403" lon="3.39783">
        <ele>307.9</ele>
        <time>2016-12-28T13:21:49Z</time>
      </trkpt>
      <trkpt lat="43.5841" lon="3.39788">
        <ele>308.9</ele>
        <time>2016-12-28T13:21:53Z</time>
      </trkpt>
      <trkpt lat="43.58416" lon="3.39793">
        <ele>309.8</ele>
        <time>2016-12-28T13:21:57Z</time>
      </trkpt>
      <trkpt lat="43.58423" lon="3.39797">
        <ele>310.7</ele>
        <time>2016-12-28T13:22:01Z</time>
      </trkpt>
      <trkpt lat="43.58429" lon="3.39803">
        <ele>311.6</ele>
        <time>2016-12-28T13:22:05Z</time>
      </trkpt>
      <trkpt lat="43.58433" lon="3.39814">
        <ele>312.3</ele>
        <time>2016-12-28T13:22:09Z</time>
      </trkpt>
      <trkpt lat="43.58433" lon="3.39825">
        <ele>312.7</ele>
        <time>2016-12-28T13:22:13Z</time>
      </trkpt>
      <trkpt lat="43.58428" lon="3.39836">
        <ele>312.9</ele>
        <time>2016-12-28T13:22:17Z</time>
      </trkpt>
      <trkpt lat="43.58424" lon="3.39844">
        <ele>313</ele>
        <time>2016-12-28T13:22:21Z</time>
      </trkpt>
      <trkpt lat="43.5842" lon="3.39852">
        <ele>313.1</ele>
        <time>2016-12-28T13:22:25Z</time>
      </trkpt>
      <trkpt lat="43.58415" lon="3.39862">
        <ele>313.5</ele>
        <time>2016-12-28T13:22:31Z</time>
      </trkpt>
      <trkpt lat="43.58411" lon="3.39872">
        <ele>314.2</ele>
        <time>2016-12-28T13:22:36Z</time>
      </trkpt>
      <trkpt lat="43.58407" lon="3.39881">
        <ele>314.9</ele>
        <time>2016-12-28T13:22:40Z</time>
      </trkpt>
      <trkpt lat="43.58402" lon="3.39888">
        <ele>315.5</ele>
        <time>2016-12-28T13:22:45Z</time>
      </trkpt>
      <trkpt lat="43.58397" lon="3.39899">
        <ele>316.5</ele>
        <time>2016-12-28T13:22:50Z</time>
      </trkpt>
      <trkpt lat="43.58394" lon="3.3991">
        <ele>317.2</ele>
        <time>2016-12-28T13:22:54Z</time>
      </trkpt>
      <trkpt lat="43.58392" lon="3.39922">
        <ele>317.9</ele>
        <time>2016-12-28T13:22:58Z</time>
      </trkpt>
      <trkpt lat="43.58395" lon="3.39935">
        <ele>318.7</ele>
        <time>2016-12-28T13:23:02Z</time>
      </trkpt>
      <trkpt lat="43.58402" lon="3.39942">
        <ele>319.4</ele>
        <time>2016-12-28T13:23:05Z</time>
      </trkpt>
      <trkpt lat="43.5841" lon="3.39944">
        <ele>320.2</ele>
        <time>2016-12-28T13:23:09Z</time>
      </trkpt>
      <trkpt lat="43.58417" lon="3.39939">
        <ele>321.2</ele>
        <time>2016-12-28T13:23:14Z</time>
      </trkpt>
      <trkpt lat="43.58423" lon="3.39934">
        <ele>322.4</ele>
        <time>2016-12-28T13:23:18Z</time>
      </trkpt>
      <trkpt lat="43.5843" lon="3.39931">
        <ele>323.9</ele>
        <time>2016-12-28T13:23:23Z</time>
      </trkpt>
      <trkpt lat="43.58437" lon="3.39928">
        <ele>325</ele>
        <time>2016-12-28T13:23:27Z</time>
      </trkpt>
      <trkpt lat="43.58446" lon="3.39926">
        <ele>326.2</ele>
        <time>2016-12-28T13:23:31Z</time>
      </trkpt>
      <trkpt lat="43.58453" lon="3.39926">
        <ele>327.4</ele>
        <time>2016-12-28T13:23:35Z</time>
      </trkpt>
      <trkpt lat="43.58461" lon="3.39927">
        <ele>328.6</ele>
        <time>2016-12-28T13:23:39Z</time>
      </trkpt>
      <trkpt lat="43.58469" lon="3.39928">
        <ele>329.7</ele>
        <time>2016-12-28T13:23:43Z</time>
      </trkpt>
      <trkpt lat="43.5848" lon="3.39928">
        <ele>330.6</ele>
        <time>2016-12-28T13:23:47Z</time>
      </trkpt>
      <trkpt lat="43.58487" lon="3.39928">
        <ele>331.2</ele>
        <time>2016-12-28T13:23:50Z</time>
      </trkpt>
      <trkpt lat="43.58495" lon="3.39926">
        <ele>331.7</ele>
        <time>2016-12-28T13:23:52Z</time>
      </trkpt>
      <trkpt lat="43.58505" lon="3.39922">
        <ele>335</ele>
        <time>2016-12-28T13:23:55Z</time>
      </trkpt>
      <trkpt lat="43.58513" lon="3.39919">
        <ele>337</ele>
        <time>2016-12-28T13:23:57Z</time>
      </trkpt>
      <trkpt lat="43.58521" lon="3.39917">
        <ele>338.1</ele>
        <time>2016-12-28T13:23:59Z</time>
      </trkpt>
      <trkpt lat="43.5853" lon="3.39914">
        <ele>338.6</ele>
        <time>2016-12-28T13:24:01Z</time>
      </trkpt>
      <trkpt lat="43.5854" lon="3.3991">
        <ele>337.9</ele>
        <time>2016-12-28T13:24:03Z</time>
      </trkpt>
      <trkpt lat="43.58548" lon="3.39906">
        <ele>337.5</ele>
        <time>2016-12-28T13:24:05Z</time>
      </trkpt>
      <trkpt lat="43.58556" lon="3.399">
        <ele>336.9</ele>
        <time>2016-12-28T13:24:07Z</time>
      </trkpt>
      <trkpt lat="43.58564" lon="3.39893">
        <ele>336.3</ele>
        <time>2016-12-28T13:24:09Z</time>
      </trkpt>
      <trkpt lat="43.58571" lon="3.39887">
        <ele>335.7</ele>
        <time>2016-12-28T13:24:11Z</time>
      </trkpt>
      <trkpt lat="43.58578" lon="3.3988">
        <ele>335.1</ele>
        <time>2016-12-28T13:24:13Z</time>
      </trkpt>
      <trkpt lat="43.58586" lon="3.39873">
        <ele>334.8</ele>
        <time>2016-12-28T13:24:15Z</time>
      </trkpt>
      <trkpt lat="43.58593" lon="3.39865">
        <ele>334.9</ele>
        <time>2016-12-28T13:24:17Z</time>
      </trkpt>
      <trkpt lat="43.58601" lon="3.39858">
        <ele>334.8</ele>
        <time>2016-12-28T13:24:19Z</time>
      </trkpt>
      <trkpt lat="43.58609" lon="3.39852">
        <ele>334.7</ele>
        <time>2016-12-28T13:24:21Z</time>
      </trkpt>
      <trkpt lat="43.58619" lon="3.39847">
        <ele>334.5</ele>
        <time>2016-12-28T13:24:23Z</time>
      </trkpt>
      <trkpt lat="43.58627" lon="3.39842">
        <ele>334.5</ele>
        <time>2016-12-28T13:24:25Z</time>
      </trkpt>
      <trkpt lat="43.58638" lon="3.39839">
        <ele>334.5</ele>
        <time>2016-12-28T13:24:27Z</time>
      </trkpt>
      <trkpt lat="43.58648" lon="3.39838">
        <ele>334.1</ele>
        <time>2016-12-28T13:24:29Z</time>
      </trkpt>
      <trkpt lat="43.58659" lon="3.39839">
        <ele>333.8</ele>
        <time>2016-12-28T13:24:31Z</time>
      </trkpt>
      <trkpt lat="43.5867" lon="3.3984">
        <ele>334.5</ele>
        <time>2016-12-28T13:24:33Z</time>
      </trkpt>
      <trkpt lat="43.5868" lon="3.39841">
        <ele>335.1</ele>
        <time>2016-12-28T13:24:35Z</time>
      </trkpt>
      <trkpt lat="43.5869" lon="3.39841">
        <ele>335.8</ele>
        <time>2016-12-28T13:24:37Z</time>
      </trkpt>
      <trkpt lat="43.58702" lon="3.39841">
        <ele>336.7</ele>
        <time>2016-12-28T13:24:39Z</time>
      </trkpt>
      <trkpt lat="43.58712" lon="3.39841">
        <ele>337.2</ele>
        <time>2016-12-28T13:24:41Z</time>
      </trkpt>
      <trkpt lat="43.58722" lon="3.39842">
        <ele>337.5</ele>
        <time>2016-12-28T13:24:43Z</time>
      </trkpt>
      <trkpt lat="43.58733" lon="3.39841">
        <ele>337</ele>
        <time>2016-12-28T13:24:45Z</time>
      </trkpt>
      <trkpt lat="43.58744" lon="3.39839">
        <ele>336.2</ele>
        <time>2016-12-28T13:24:47Z</time>
      </trkpt>
      <trkpt lat="43.58754" lon="3.39838">
        <ele>336.5</ele>
        <time>2016-12-28T13:24:49Z</time>
      </trkpt>
      <trkpt lat="43.58764" lon="3.39837">
        <ele>336.6</ele>
        <time>2016-12-28T13:24:51Z</time>
      </trkpt>
      <trkpt lat="43.58775" lon="3.39836">
        <ele>336.4</ele>
        <time>2016-12-28T13:24:53Z</time>
      </trkpt>
      <trkpt lat="43.58787" lon="3.39837">
        <ele>336.8</ele>
        <time>2016-12-28T13:24:55Z</time>
      </trkpt>
      <trkpt lat="43.58797" lon="3.39838">
        <ele>337.2</ele>
        <time>2016-12-28T13:24:57Z</time>
      </trkpt>
      <trkpt lat="43.58807" lon="3.39838">
        <ele>337.5</ele>
        <time>2016-12-28T13:24:59Z</time>
      </trkpt>
      <trkpt lat="43.58818" lon="3.39838">
        <ele>337.9</ele>
        <time>2016-12-28T13:25:01Z</time>
      </trkpt>
      <trkpt lat="43.58828" lon="3.39838">
        <ele>338.4</ele>
        <time>2016-12-28T13:25:03Z</time>
      </trkpt>
      <trkpt lat="43.58837" lon="3.39837">
        <ele>338.9</ele>
        <time>2016-12-28T13:25:05Z</time>
      </trkpt>
      <trkpt lat="43.58849" lon="3.39836">
        <ele>338.4</ele>
        <time>2016-12-28T13:25:07Z</time>
      </trkpt>
      <trkpt lat="43.58861" lon="3.39834">
        <ele>337.7</ele>
        <time>2016-12-28T13:25:09Z</time>
      </trkpt>
      <trkpt lat="43.58872" lon="3.3983">
        <ele>337</ele>
        <time>2016-12-28T13:25:11Z</time>
      </trkpt>
      <trkpt lat="43.58883" lon="3.39825">
        <ele>336.6</ele>
        <time>2016-12-28T13:25:13Z</time>
      </trkpt>
      <trkpt lat="43.58896" lon="3.3982">
        <ele>336</ele>
        <time>2016-12-28T13:25:15Z</time>
      </trkpt>
      <trkpt lat="43.58907" lon="3.39814">
        <ele>335.8</ele>
        <time>2016-12-28T13:25:17Z</time>
      </trkpt>
      <trkpt lat="43.5892" lon="3.39808">
        <ele>335.2</ele>
        <time>2016-12-28T13:25:19Z</time>
      </trkpt>
      <trkpt lat="43.58931" lon="3.39803">
        <ele>334.4</ele>
        <time>2016-12-28T13:25:21Z</time>
      </trkpt>
      <trkpt lat="43.58942" lon="3.39803">
        <ele>333.6</ele>
        <time>2016-12-28T13:25:23Z</time>
      </trkpt>
      <trkpt lat="43.58952" lon="3.39807">
        <ele>333.3</ele>
        <time>2016-12-28T13:25:25Z</time>
      </trkpt>
      <trkpt lat="43.58963" lon="3.39815">
        <ele>333.2</ele>
        <time>2016-12-28T13:25:27Z</time>
      </trkpt>
      <trkpt lat="43.58971" lon="3.39823">
        <ele>333.5</ele>
        <time>2016-12-28T13:25:29Z</time>
      </trkpt>
      <trkpt lat="43.58979" lon="3.39834">
        <ele>334.6</ele>
        <time>2016-12-28T13:25:31Z</time>
      </trkpt>
      <trkpt lat="43.58985" lon="3.39841">
        <ele>336.3</ele>
        <time>2016-12-28T13:25:33Z</time>
      </trkpt>
      <trkpt lat="43.58993" lon="3.39846">
        <ele>337.5</ele>
        <time>2016-12-28T13:25:35Z</time>
      </trkpt>
      <trkpt lat="43.59001" lon="3.39849">
        <ele>338</ele>
        <time>2016-12-28T13:25:37Z</time>
      </trkpt>
      <trkpt lat="43.5901" lon="3.3985">
        <ele>337.8</ele>
        <time>2016-12-28T13:25:39Z</time>
      </trkpt>
      <trkpt lat="43.59018" lon="3.39848">
        <ele>337.6</ele>
        <time>2016-12-28T13:25:41Z</time>
      </trkpt>
      <trkpt lat="43.59028" lon="3.39843">
        <ele>337.8</ele>
        <time>2016-12-28T13:25:43Z</time>
      </trkpt>
      <trkpt lat="43.59035" lon="3.39839">
        <ele>337.8</ele>
        <time>2016-12-28T13:25:45Z</time>
      </trkpt>
      <trkpt lat="43.59045" lon="3.39837">
        <ele>336.7</ele>
        <time>2016-12-28T13:25:47Z</time>
      </trkpt>
      <trkpt lat="43.59054" lon="3.39837">
        <ele>336.5</ele>
        <time>2016-12-28T13:25:49Z</time>
      </trkpt>
      <trkpt lat="43.59061" lon="3.39839">
        <ele>337.5</ele>
        <time>2016-12-28T13:25:51Z</time>
      </trkpt>
      <trkpt lat="43.59071" lon="3.39843">
        <ele>338.5</ele>
        <time>2016-12-28T13:25:53Z</time>
      </trkpt>
      <trkpt lat="43.59079" lon="3.39843">
        <ele>339.4</ele>
        <time>2016-12-28T13:25:55Z</time>
      </trkpt>
      <trkpt lat="43.59086" lon="3.3984">
        <ele>339.6</ele>
        <time>2016-12-28T13:25:57Z</time>
      </trkpt>
      <trkpt lat="43.59094" lon="3.39834">
        <ele>339.6</ele>
        <time>2016-12-28T13:25:59Z</time>
      </trkpt>
      <trkpt lat="43.59101" lon="3.39827">
        <ele>339.8</ele>
        <time>2016-12-28T13:26:01Z</time>
      </trkpt>
      <trkpt lat="43.59106" lon="3.39816">
        <ele>339.9</ele>
        <time>2016-12-28T13:26:04Z</time>
      </trkpt>
      <trkpt lat="43.5911" lon="3.39804">
        <ele>340</ele>
        <time>2016-12-28T13:26:07Z</time>
      </trkpt>
      <trkpt lat="43.59116" lon="3.39794">
        <ele>340.1</ele>
        <time>2016-12-28T13:26:11Z</time>
      </trkpt>
      <trkpt lat="43.59122" lon="3.39784">
        <ele>340.4</ele>
        <time>2016-12-28T13:26:14Z</time>
      </trkpt>
      <trkpt lat="43.59128" lon="3.39774">
        <ele>340.7</ele>
        <time>2016-12-28T13:26:17Z</time>
      </trkpt>
      <trkpt lat="43.59133" lon="3.39764">
        <ele>341</ele>
        <time>2016-12-28T13:26:20Z</time>
      </trkpt>
      <trkpt lat="43.5914" lon="3.39753">
        <ele>341.2</ele>
        <time>2016-12-28T13:26:23Z</time>
      </trkpt>
      <trkpt lat="43.59148" lon="3.39746">
        <ele>341.4</ele>
        <time>2016-12-28T13:26:26Z</time>
      </trkpt>
      <trkpt lat="43.59159" lon="3.39746">
        <ele>341.7</ele>
        <time>2016-12-28T13:26:29Z</time>
      </trkpt>
      <trkpt lat="43.59167" lon="3.39747">
        <ele>341.7</ele>
        <time>2016-12-28T13:26:31Z</time>
      </trkpt>
      <trkpt lat="43.59176" lon="3.39749">
        <ele>341.8</ele>
        <time>2016-12-28T13:26:34Z</time>
      </trkpt>
      <trkpt lat="43.59185" lon="3.3975">
        <ele>341.8</ele>
        <time>2016-12-28T13:26:36Z</time>
      </trkpt>
      <trkpt lat="43.59192" lon="3.39751">
        <ele>341.2</ele>
        <time>2016-12-28T13:26:38Z</time>
      </trkpt>
      <trkpt lat="43.592" lon="3.39752">
        <ele>340.9</ele>
        <time>2016-12-28T13:26:40Z</time>
      </trkpt>
      <trkpt lat="43.59207" lon="3.39752">
        <ele>340.9</ele>
        <time>2016-12-28T13:26:42Z</time>
      </trkpt>
      <trkpt lat="43.59218" lon="3.39753">
        <ele>340.8</ele>
        <time>2016-12-28T13:26:45Z</time>
      </trkpt>
      <trkpt lat="43.59226" lon="3.39754">
        <ele>340.9</ele>
        <time>2016-12-28T13:26:47Z</time>
      </trkpt>
      <trkpt lat="43.59236" lon="3.39756">
        <ele>340.8</ele>
        <time>2016-12-28T13:26:50Z</time>
      </trkpt>
      <trkpt lat="43.59248" lon="3.39757">
        <ele>340.4</ele>
        <time>2016-12-28T13:26:53Z</time>
      </trkpt>
      <trkpt lat="43.59256" lon="3.39756">
        <ele>340.4</ele>
        <time>2016-12-28T13:26:55Z</time>
      </trkpt>
      <trkpt lat="43.59265" lon="3.39752">
        <ele>340.4</ele>
        <time>2016-12-28T13:26:57Z</time>
      </trkpt>
      <trkpt lat="43.59274" lon="3.39748">
        <ele>339.5</ele>
        <time>2016-12-28T13:26:59Z</time>
      </trkpt>
      <trkpt lat="43.59283" lon="3.39745">
        <ele>338.3</ele>
        <time>2016-12-28T13:27:01Z</time>
      </trkpt>
      <trkpt lat="43.59293" lon="3.39744">
        <ele>337.3</ele>
        <time>2016-12-28T13:27:03Z</time>
      </trkpt>
      <trkpt lat="43.59304" lon="3.39744">
        <ele>336.6</ele>
        <time>2016-12-28T13:27:05Z</time>
      </trkpt>
      <trkpt lat="43.59316" lon="3.39743">
        <ele>335.2</ele>
        <time>2016-12-28T13:27:07Z</time>
      </trkpt>
      <trkpt lat="43.59329" lon="3.39741">
        <ele>334.6</ele>
        <time>2016-12-28T13:27:09Z</time>
      </trkpt>
      <trkpt lat="43.59341" lon="3.3974">
        <ele>335.1</ele>
        <time>2016-12-28T13:27:11Z</time>
      </trkpt>
      <trkpt lat="43.59352" lon="3.39745">
        <ele>336</ele>
        <time>2016-12-28T13:27:13Z</time>
      </trkpt>
      <trkpt lat="43.59363" lon="3.39752">
        <ele>336.8</ele>
        <time>2016-12-28T13:27:15Z</time>
      </trkpt>
      <trkpt lat="43.59371" lon="3.39758">
        <ele>337.4</ele>
        <time>2016-12-28T13:27:17Z</time>
      </trkpt>
      <trkpt lat="43.59378" lon="3.39764">
        <ele>337.5</ele>
        <time>2016-12-28T13:27:19Z</time>
      </trkpt>
      <trkpt lat="43.59385" lon="3.39771">
        <ele>338.1</ele>
        <time>2016-12-28T13:27:21Z</time>
      </trkpt>
      <trkpt lat="43.59393" lon="3.39777">
        <ele>337.7</ele>
        <time>2016-12-28T13:27:23Z</time>
      </trkpt>
      <trkpt lat="43.59402" lon="3.39786">
        <ele>337.1</ele>
        <time>2016-12-28T13:27:25Z</time>
      </trkpt>
      <trkpt lat="43.59409" lon="3.39793">
        <ele>336.6</ele>
        <time>2016-12-28T13:27:26Z</time>
      </trkpt>
      <trkpt lat="43.59415" lon="3.39799">
        <ele>336.6</ele>
        <time>2016-12-28T13:27:27Z</time>
      </trkpt>
      <trkpt lat="43.59424" lon="3.39812">
        <ele>337.1</ele>
        <time>2016-12-28T13:27:29Z</time>
      </trkpt>
      <trkpt lat="43.5943" lon="3.39819">
        <ele>337.1</ele>
        <time>2016-12-28T13:27:30Z</time>
      </trkpt>
      <trkpt lat="43.59435" lon="3.39826">
        <ele>337</ele>
        <time>2016-12-28T13:27:31Z</time>
      </trkpt>
      <trkpt lat="43.59441" lon="3.39834">
        <ele>336.5</ele>
        <time>2016-12-28T13:27:32Z</time>
      </trkpt>
      <trkpt lat="43.5945" lon="3.3985">
        <ele>335.4</ele>
        <time>2016-12-28T13:27:34Z</time>
      </trkpt>
      <trkpt lat="43.59453" lon="3.39861">
        <ele>335.1</ele>
        <time>2016-12-28T13:27:35Z</time>
      </trkpt>
      <trkpt lat="43.59457" lon="3.39873">
        <ele>334.8</ele>
        <time>2016-12-28T13:27:36Z</time>
      </trkpt>
      <trkpt lat="43.59459" lon="3.39884">
        <ele>334.2</ele>
        <time>2016-12-28T13:27:37Z</time>
      </trkpt>
      <trkpt lat="43.59461" lon="3.39895">
        <ele>333.7</ele>
        <time>2016-12-28T13:27:38Z</time>
      </trkpt>
      <trkpt lat="43.59464" lon="3.39905">
        <ele>333.1</ele>
        <time>2016-12-28T13:27:39Z</time>
      </trkpt>
      <trkpt lat="43.59468" lon="3.39914">
        <ele>332.6</ele>
        <time>2016-12-28T13:27:40Z</time>
      </trkpt>
      <trkpt lat="43.59477" lon="3.3993">
        <ele>331.1</ele>
        <time>2016-12-28T13:27:42Z</time>
      </trkpt>
      <trkpt lat="43.59483" lon="3.39938">
        <ele>330.5</ele>
        <time>2016-12-28T13:27:43Z</time>
      </trkpt>
      <trkpt lat="43.59488" lon="3.39947">
        <ele>329.3</ele>
        <time>2016-12-28T13:27:44Z</time>
      </trkpt>
      <trkpt lat="43.59498" lon="3.3996">
        <ele>326.8</ele>
        <time>2016-12-28T13:27:46Z</time>
      </trkpt>
      <trkpt lat="43.59503" lon="3.39968">
        <ele>325.9</ele>
        <time>2016-12-28T13:27:47Z</time>
      </trkpt>
      <trkpt lat="43.59512" lon="3.39983">
        <ele>324.1</ele>
        <time>2016-12-28T13:27:49Z</time>
      </trkpt>
      <trkpt lat="43.59516" lon="3.39992">
        <ele>323.1</ele>
        <time>2016-12-28T13:27:50Z</time>
      </trkpt>
      <trkpt lat="43.59524" lon="3.40007">
        <ele>321.8</ele>
        <time>2016-12-28T13:27:52Z</time>
      </trkpt>
      <trkpt lat="43.5953" lon="3.4002">
        <ele>321.1</ele>
        <time>2016-12-28T13:27:54Z</time>
      </trkpt>
      <trkpt lat="43.59537" lon="3.40035">
        <ele>320.3</ele>
        <time>2016-12-28T13:27:56Z</time>
      </trkpt>
      <trkpt lat="43.59542" lon="3.40047">
        <ele>319.8</ele>
        <time>2016-12-28T13:27:58Z</time>
      </trkpt>
      <trkpt lat="43.5955" lon="3.4006">
        <ele>318.9</ele>
        <time>2016-12-28T13:28:00Z</time>
      </trkpt>
      <trkpt lat="43.59559" lon="3.40074">
        <ele>317.8</ele>
        <time>2016-12-28T13:28:02Z</time>
      </trkpt>
      <trkpt lat="43.59563" lon="3.4009">
        <ele>316.9</ele>
        <time>2016-12-28T13:28:04Z</time>
      </trkpt>
      <trkpt lat="43.59565" lon="3.40107">
        <ele>316.2</ele>
        <time>2016-12-28T13:28:06Z</time>
      </trkpt>
      <trkpt lat="43.59563" lon="3.40116">
        <ele>316.3</ele>
        <time>2016-12-28T13:28:07Z</time>
      </trkpt>
      <trkpt lat="43.59556" lon="3.40127">
        <ele>315.9</ele>
        <time>2016-12-28T13:28:09Z</time>
      </trkpt>
      <trkpt lat="43.59549" lon="3.40139">
        <ele>315</ele>
        <time>2016-12-28T13:28:11Z</time>
      </trkpt>
      <trkpt lat="43.59544" lon="3.40152">
        <ele>312.7</ele>
        <time>2016-12-28T13:28:13Z</time>
      </trkpt>
      <trkpt lat="43.59537" lon="3.40166">
        <ele>311</ele>
        <time>2016-12-28T13:28:15Z</time>
      </trkpt>
      <trkpt lat="43.59531" lon="3.40175">
        <ele>311.6</ele>
        <time>2016-12-28T13:28:17Z</time>
      </trkpt>
      <trkpt lat="43.59524" lon="3.40189">
        <ele>312.3</ele>
        <time>2016-12-28T13:28:19Z</time>
      </trkpt>
      <trkpt lat="43.59521" lon="3.40198">
        <ele>311.9</ele>
        <time>2016-12-28T13:28:20Z</time>
      </trkpt>
      <trkpt lat="43.59516" lon="3.40207">
        <ele>311.4</ele>
        <time>2016-12-28T13:28:21Z</time>
      </trkpt>
      <trkpt lat="43.59508" lon="3.40219">
        <ele>310.2</ele>
        <time>2016-12-28T13:28:23Z</time>
      </trkpt>
      <trkpt lat="43.59497" lon="3.40229">
        <ele>309.1</ele>
        <time>2016-12-28T13:28:25Z</time>
      </trkpt>
      <trkpt lat="43.59491" lon="3.40235">
        <ele>308.5</ele>
        <time>2016-12-28T13:28:26Z</time>
      </trkpt>
      <trkpt lat="43.59484" lon="3.40239">
        <ele>308.1</ele>
        <time>2016-12-28T13:28:27Z</time>
      </trkpt>
      <trkpt lat="43.59477" lon="3.40243">
        <ele>307.5</ele>
        <time>2016-12-28T13:28:28Z</time>
      </trkpt>
      <trkpt lat="43.5947" lon="3.40248">
        <ele>306.8</ele>
        <time>2016-12-28T13:28:29Z</time>
      </trkpt>
      <trkpt lat="43.59463" lon="3.40252">
        <ele>305.9</ele>
        <time>2016-12-28T13:28:30Z</time>
      </trkpt>
      <trkpt lat="43.59449" lon="3.40259">
        <ele>304.6</ele>
        <time>2016-12-28T13:28:32Z</time>
      </trkpt>
      <trkpt lat="43.59435" lon="3.40261">
        <ele>302.8</ele>
        <time>2016-12-28T13:28:34Z</time>
      </trkpt>
      <trkpt lat="43.59421" lon="3.40262">
        <ele>300.4</ele>
        <time>2016-12-28T13:28:36Z</time>
      </trkpt>
      <trkpt lat="43.59408" lon="3.40267">
        <ele>298.8</ele>
        <time>2016-12-28T13:28:38Z</time>
      </trkpt>
      <trkpt lat="43.59396" lon="3.40278">
        <ele>298.5</ele>
        <time>2016-12-28T13:28:40Z</time>
      </trkpt>
      <trkpt lat="43.59385" lon="3.40287">
        <ele>298.3</ele>
        <time>2016-12-28T13:28:42Z</time>
      </trkpt>
      <trkpt lat="43.59374" lon="3.40292">
        <ele>298.6</ele>
        <time>2016-12-28T13:28:44Z</time>
      </trkpt>
      <trkpt lat="43.59363" lon="3.40294">
        <ele>298.6</ele>
        <time>2016-12-28T13:28:46Z</time>
      </trkpt>
      <trkpt lat="43.59353" lon="3.403">
        <ele>297.4</ele>
        <time>2016-12-28T13:28:48Z</time>
      </trkpt>
      <trkpt lat="43.59346" lon="3.40307">
        <ele>296.8</ele>
        <time>2016-12-28T13:28:50Z</time>
      </trkpt>
      <trkpt lat="43.59339" lon="3.40313">
        <ele>296.6</ele>
        <time>2016-12-28T13:28:52Z</time>
      </trkpt>
      <trkpt lat="43.59334" lon="3.40324">
        <ele>296.4</ele>
        <time>2016-12-28T13:28:57Z</time>
      </trkpt>
      <trkpt lat="43.59329" lon="3.40333">
        <ele>295.7</ele>
        <time>2016-12-28T13:29:01Z</time>
      </trkpt>
      <trkpt lat="43.59313" lon="3.40339">
        <ele>293.8</ele>
        <time>2016-12-28T13:29:20Z</time>
      </trkpt>
      <trkpt lat="43.59308" lon="3.40345">
        <ele>292.9</ele>
        <time>2016-12-28T13:29:27Z</time>
      </trkpt>
      <trkpt lat="43.59291" lon="3.40339">
        <ele>291.9</ele>
        <time>2016-12-28T13:29:46Z</time>
      </trkpt>
      <trkpt lat="43.59284" lon="3.40343">
        <ele>291.5</ele>
        <time>2016-12-28T13:29:50Z</time>
      </trkpt>
      <trkpt lat="43.59277" lon="3.40345">
        <ele>291</ele>
        <time>2016-12-28T13:29:54Z</time>
      </trkpt>
      <trkpt lat="43.59269" lon="3.40348">
        <ele>290.6</ele>
        <time>2016-12-28T13:29:58Z</time>
      </trkpt>
      <trkpt lat="43.59262" lon="3.40348">
        <ele>290.2</ele>
        <time>2016-12-28T13:30:02Z</time>
      </trkpt>
      <trkpt lat="43.59254" lon="3.40348">
        <ele>289.6</ele>
        <time>2016-12-28T13:30:07Z</time>
      </trkpt>
      <trkpt lat="43.59252" lon="3.40349">
        <ele>289.2</ele>
        <time>2016-12-28T13:30:14Z</time>
      </trkpt>
      <trkpt lat="43.59238" lon="3.40339">
        <ele>288.7</ele>
        <time>2016-12-28T13:30:26Z</time>
      </trkpt>
      <trkpt lat="43.59234" lon="3.40334">
        <ele>288.3</ele>
        <time>2016-12-28T13:30:33Z</time>
      </trkpt>
      <trkpt lat="43.59232" lon="3.40322">
        <ele>288.5</ele>
        <time>2016-12-28T13:30:40Z</time>
      </trkpt>
      <trkpt lat="43.59231" lon="3.4032">
        <ele>288.4</ele>
        <time>2016-12-28T13:30:47Z</time>
      </trkpt>
      <trkpt lat="43.59225" lon="3.40316">
        <ele>288.4</ele>
        <time>2016-12-28T13:30:49Z</time>
      </trkpt>
      <trkpt lat="43.59215" lon="3.40318">
        <ele>288.4</ele>
        <time>2016-12-28T13:30:52Z</time>
      </trkpt>
      <trkpt lat="43.59208" lon="3.40323">
        <ele>288.3</ele>
        <time>2016-12-28T13:30:54Z</time>
      </trkpt>
      <trkpt lat="43.59198" lon="3.4033">
        <ele>287.9</ele>
        <time>2016-12-28T13:30:56Z</time>
      </trkpt>
      <trkpt lat="43.59187" lon="3.40335">
        <ele>287.2</ele>
        <time>2016-12-28T13:30:58Z</time>
      </trkpt>
      <trkpt lat="43.59176" lon="3.40335">
        <ele>286.6</ele>
        <time>2016-12-28T13:31:01Z</time>
      </trkpt>
      <trkpt lat="43.59173" lon="3.40347">
        <ele>286.3</ele>
        <time>2016-12-28T13:31:05Z</time>
      </trkpt>
      <trkpt lat="43.59179" lon="3.40352">
        <ele>286.2</ele>
        <time>2016-12-28T13:31:07Z</time>
      </trkpt>
      <trkpt lat="43.59187" lon="3.40362">
        <ele>285.6</ele>
        <time>2016-12-28T13:31:10Z</time>
      </trkpt>
      <trkpt lat="43.59194" lon="3.40369">
        <ele>285.2</ele>
        <time>2016-12-28T13:31:12Z</time>
      </trkpt>
      <trkpt lat="43.59202" lon="3.40376">
        <ele>285</ele>
        <time>2016-12-28T13:31:14Z</time>
      </trkpt>
      <trkpt lat="43.59211" lon="3.40384">
        <ele>284.1</ele>
        <time>2016-12-28T13:31:16Z</time>
      </trkpt>
      <trkpt lat="43.59221" lon="3.40393">
        <ele>283.2</ele>
        <time>2016-12-28T13:31:18Z</time>
      </trkpt>
      <trkpt lat="43.59229" lon="3.404">
        <ele>283</ele>
        <time>2016-12-28T13:31:20Z</time>
      </trkpt>
      <trkpt lat="43.59239" lon="3.40406">
        <ele>281.9</ele>
        <time>2016-12-28T13:31:22Z</time>
      </trkpt>
      <trkpt lat="43.59246" lon="3.4041">
        <ele>281.3</ele>
        <time>2016-12-28T13:31:24Z</time>
      </trkpt>
      <trkpt lat="43.59255" lon="3.4041">
        <ele>281.1</ele>
        <time>2016-12-28T13:31:27Z</time>
      </trkpt>
      <trkpt lat="43.59264" lon="3.40407">
        <ele>280.8</ele>
        <time>2016-12-28T13:31:31Z</time>
      </trkpt>
      <trkpt lat="43.59272" lon="3.40405">
        <ele>280.7</ele>
        <time>2016-12-28T13:31:34Z</time>
      </trkpt>
      <trkpt lat="43.59279" lon="3.40403">
        <ele>280.7</ele>
        <time>2016-12-28T13:31:36Z</time>
      </trkpt>
      <trkpt lat="43.59286" lon="3.40402">
        <ele>280.6</ele>
        <time>2016-12-28T13:31:38Z</time>
      </trkpt>
      <trkpt lat="43.59296" lon="3.40403">
        <ele>280.5</ele>
        <time>2016-12-28T13:31:41Z</time>
      </trkpt>
      <trkpt lat="43.59305" lon="3.40403">
        <ele>280.3</ele>
        <time>2016-12-28T13:31:44Z</time>
      </trkpt>
      <trkpt lat="43.59313" lon="3.40404">
        <ele>280.1</ele>
        <time>2016-12-28T13:31:46Z</time>
      </trkpt>
      <trkpt lat="43.59321" lon="3.40403">
        <ele>280</ele>
        <time>2016-12-28T13:31:48Z</time>
      </trkpt>
      <trkpt lat="43.59331" lon="3.40402">
        <ele>279.9</ele>
        <time>2016-12-28T13:31:51Z</time>
      </trkpt>
      <trkpt lat="43.5934" lon="3.404">
        <ele>279.8</ele>
        <time>2016-12-28T13:31:54Z</time>
      </trkpt>
      <trkpt lat="43.5935" lon="3.404">
        <ele>279.8</ele>
        <time>2016-12-28T13:31:57Z</time>
      </trkpt>
      <trkpt lat="43.59358" lon="3.40399">
        <ele>279.8</ele>
        <time>2016-12-28T13:31:59Z</time>
      </trkpt>
      <trkpt lat="43.59368" lon="3.40398">
        <ele>279.9</ele>
        <time>2016-12-28T13:32:02Z</time>
      </trkpt>
      <trkpt lat="43.59378" lon="3.40397">
        <ele>279.9</ele>
        <time>2016-12-28T13:32:05Z</time>
      </trkpt>
      <trkpt lat="43.59387" lon="3.40393">
        <ele>279.8</ele>
        <time>2016-12-28T13:32:08Z</time>
      </trkpt>
      <trkpt lat="43.59396" lon="3.40392">
        <ele>279.9</ele>
        <time>2016-12-28T13:32:11Z</time>
      </trkpt>
      <trkpt lat="43.59405" lon="3.40395">
        <ele>279.9</ele>
        <time>2016-12-28T13:32:15Z</time>
      </trkpt>
      <trkpt lat="43.59407" lon="3.40397">
        <ele>279.7</ele>
        <time>2016-12-28T13:32:22Z</time>
      </trkpt>
      <trkpt lat="43.59414" lon="3.40415">
        <ele>279.8</ele>
        <time>2016-12-28T13:32:33Z</time>
      </trkpt>
      <trkpt lat="43.59431" lon="3.40412">
        <ele>281.6</ele>
        <time>2016-12-28T13:33:34Z</time>
      </trkpt>
      <trkpt lat="43.5944" lon="3.40416">
        <ele>281.6</ele>
        <time>2016-12-28T13:33:37Z</time>
      </trkpt>
      <trkpt lat="43.59448" lon="3.40419">
        <ele>281.3</ele>
        <time>2016-12-28T13:33:39Z</time>
      </trkpt>
      <trkpt lat="43.59461" lon="3.40422">
        <ele>280.5</ele>
        <time>2016-12-28T13:33:41Z</time>
      </trkpt>
      <trkpt lat="43.59471" lon="3.40424">
        <ele>278.7</ele>
        <time>2016-12-28T13:33:43Z</time>
      </trkpt>
      <trkpt lat="43.59481" lon="3.40429">
        <ele>277.7</ele>
        <time>2016-12-28T13:33:45Z</time>
      </trkpt>
      <trkpt lat="43.59492" lon="3.40437">
        <ele>276.1</ele>
        <time>2016-12-28T13:33:47Z</time>
      </trkpt>
      <trkpt lat="43.59503" lon="3.40443">
        <ele>275.1</ele>
        <time>2016-12-28T13:33:49Z</time>
      </trkpt>
      <trkpt lat="43.59512" lon="3.40446">
        <ele>275</ele>
        <time>2016-12-28T13:33:51Z</time>
      </trkpt>
      <trkpt lat="43.59519" lon="3.40452">
        <ele>274.6</ele>
        <time>2016-12-28T13:33:53Z</time>
      </trkpt>
      <trkpt lat="43.59529" lon="3.4046">
        <ele>274.2</ele>
        <time>2016-12-28T13:33:55Z</time>
      </trkpt>
      <trkpt lat="43.59537" lon="3.40465">
        <ele>274.7</ele>
        <time>2016-12-28T13:33:57Z</time>
      </trkpt>
      <trkpt lat="43.59545" lon="3.40471">
        <ele>274.8</ele>
        <time>2016-12-28T13:33:59Z</time>
      </trkpt>
      <trkpt lat="43.5955" lon="3.40478">
        <ele>274.8</ele>
        <time>2016-12-28T13:34:01Z</time>
      </trkpt>
      <trkpt lat="43.59557" lon="3.40483">
        <ele>274.5</ele>
        <time>2016-12-28T13:34:05Z</time>
      </trkpt>
      <trkpt lat="43.59559" lon="3.40485">
        <ele>273.9</ele>
        <time>2016-12-28T13:34:12Z</time>
      </trkpt>
      <trkpt lat="43.59552" lon="3.40506">
        <ele>271.5</ele>
        <time>2016-12-28T13:34:37Z</time>
      </trkpt>
      <trkpt lat="43.59552" lon="3.40518">
        <ele>271.1</ele>
        <time>2016-12-28T13:34:40Z</time>
      </trkpt>
      <trkpt lat="43.59554" lon="3.40528">
        <ele>271</ele>
        <time>2016-12-28T13:34:42Z</time>
      </trkpt>
      <trkpt lat="43.59555" lon="3.40539">
        <ele>270.8</ele>
        <time>2016-12-28T13:34:45Z</time>
      </trkpt>
      <trkpt lat="43.59557" lon="3.40551">
        <ele>270.7</ele>
        <time>2016-12-28T13:34:48Z</time>
      </trkpt>
      <trkpt lat="43.5956" lon="3.40561">
        <ele>270.6</ele>
        <time>2016-12-28T13:34:51Z</time>
      </trkpt>
      <trkpt lat="43.59565" lon="3.4057">
        <ele>269.4</ele>
        <time>2016-12-28T13:34:54Z</time>
      </trkpt>
      <trkpt lat="43.59572" lon="3.40577">
        <ele>268.6</ele>
        <time>2016-12-28T13:34:56Z</time>
      </trkpt>
      <trkpt lat="43.59579" lon="3.40584">
        <ele>267</ele>
        <time>2016-12-28T13:34:58Z</time>
      </trkpt>
      <trkpt lat="43.59584" lon="3.40593">
        <ele>266.8</ele>
        <time>2016-12-28T13:35:00Z</time>
      </trkpt>
      <trkpt lat="43.5959" lon="3.40601">
        <ele>266.1</ele>
        <time>2016-12-28T13:35:03Z</time>
      </trkpt>
      <trkpt lat="43.59594" lon="3.4061">
        <ele>265.4</ele>
        <time>2016-12-28T13:35:06Z</time>
      </trkpt>
      <trkpt lat="43.59597" lon="3.40619">
        <ele>265</ele>
        <time>2016-12-28T13:35:08Z</time>
      </trkpt>
      <trkpt lat="43.59605" lon="3.40625">
        <ele>264.5</ele>
        <time>2016-12-28T13:35:11Z</time>
      </trkpt>
      <trkpt lat="43.59612" lon="3.4063">
        <ele>263.6</ele>
        <time>2016-12-28T13:35:18Z</time>
      </trkpt>
      <trkpt lat="43.59618" lon="3.40636">
        <ele>261.4</ele>
        <time>2016-12-28T13:35:20Z</time>
      </trkpt>
      <trkpt lat="43.59626" lon="3.40639">
        <ele>257.5</ele>
        <time>2016-12-28T13:35:22Z</time>
      </trkpt>
      <trkpt lat="43.59635" lon="3.40639">
        <ele>256</ele>
        <time>2016-12-28T13:35:24Z</time>
      </trkpt>
      <trkpt lat="43.59644" lon="3.40637">
        <ele>255.6</ele>
        <time>2016-12-28T13:35:27Z</time>
      </trkpt>
      <trkpt lat="43.59647" lon="3.40626">
        <ele>255</ele>
        <time>2016-12-28T13:35:30Z</time>
      </trkpt>
      <trkpt lat="43.59655" lon="3.40624">
        <ele>249.4</ele>
        <time>2016-12-28T13:35:33Z</time>
      </trkpt>
      <trkpt lat="43.59663" lon="3.40624">
        <ele>247.5</ele>
        <time>2016-12-28T13:35:35Z</time>
      </trkpt>
      <trkpt lat="43.5967" lon="3.40621">
        <ele>244</ele>
        <time>2016-12-28T13:35:37Z</time>
      </trkpt>
      <trkpt lat="43.59677" lon="3.40619">
        <ele>243.5</ele>
        <time>2016-12-28T13:35:40Z</time>
      </trkpt>
      <trkpt lat="43.59683" lon="3.40625">
        <ele>242.9</ele>
        <time>2016-12-28T13:35:44Z</time>
      </trkpt>
      <trkpt lat="43.59691" lon="3.40623">
        <ele>241.5</ele>
        <time>2016-12-28T13:35:49Z</time>
      </trkpt>
      <trkpt lat="43.597" lon="3.40622">
        <ele>240</ele>
        <time>2016-12-28T13:35:53Z</time>
      </trkpt>
      <trkpt lat="43.59708" lon="3.40623">
        <ele>238.7</ele>
        <time>2016-12-28T13:35:56Z</time>
      </trkpt>
      <trkpt lat="43.59716" lon="3.40623">
        <ele>237.3</ele>
        <time>2016-12-28T13:36:00Z</time>
      </trkpt>
      <trkpt lat="43.59725" lon="3.40624">
        <ele>236.4</ele>
        <time>2016-12-28T13:36:03Z</time>
      </trkpt>
      <trkpt lat="43.59735" lon="3.40623">
        <ele>235.4</ele>
        <time>2016-12-28T13:36:06Z</time>
      </trkpt>
      <trkpt lat="43.59742" lon="3.40626">
        <ele>231.1</ele>
        <time>2016-12-28T13:36:08Z</time>
      </trkpt>
      <trkpt lat="43.59749" lon="3.40626">
        <ele>226.1</ele>
        <time>2016-12-28T13:36:10Z</time>
      </trkpt>
      <trkpt lat="43.59758" lon="3.40622">
        <ele>223.3</ele>
        <time>2016-12-28T13:36:12Z</time>
      </trkpt>
      <trkpt lat="43.59769" lon="3.40623">
        <ele>221.7</ele>
        <time>2016-12-28T13:36:15Z</time>
      </trkpt>
      <trkpt lat="43.59779" lon="3.40627">
        <ele>219.7</ele>
        <time>2016-12-28T13:36:18Z</time>
      </trkpt>
      <trkpt lat="43.59779" lon="3.40637">
        <ele>219.3</ele>
        <time>2016-12-28T13:36:21Z</time>
      </trkpt>
      <trkpt lat="43.59777" lon="3.40647">
        <ele>218.8</ele>
        <time>2016-12-28T13:36:23Z</time>
      </trkpt>
      <trkpt lat="43.59779" lon="3.40658">
        <ele>214.6</ele>
        <time>2016-12-28T13:36:25Z</time>
      </trkpt>
      <trkpt lat="43.59778" lon="3.4067">
        <ele>211.7</ele>
        <time>2016-12-28T13:36:27Z</time>
      </trkpt>
      <trkpt lat="43.59781" lon="3.4068">
        <ele>210.4</ele>
        <time>2016-12-28T13:36:29Z</time>
      </trkpt>
      <trkpt lat="43.59785" lon="3.40688">
        <ele>210.2</ele>
        <time>2016-12-28T13:36:31Z</time>
      </trkpt>
      <trkpt lat="43.59786" lon="3.40699">
        <ele>209.8</ele>
        <time>2016-12-28T13:36:34Z</time>
      </trkpt>
      <trkpt lat="43.59783" lon="3.40712">
        <ele>207.6</ele>
        <time>2016-12-28T13:36:37Z</time>
      </trkpt>
      <trkpt lat="43.59778" lon="3.40724">
        <ele>207.2</ele>
        <time>2016-12-28T13:36:39Z</time>
      </trkpt>
      <trkpt lat="43.59775" lon="3.40734">
        <ele>202.4</ele>
        <time>2016-12-28T13:36:41Z</time>
      </trkpt>
      <trkpt lat="43.59771" lon="3.40747">
        <ele>199.9</ele>
        <time>2016-12-28T13:36:43Z</time>
      </trkpt>
      <trkpt lat="43.59771" lon="3.40757">
        <ele>199.7</ele>
        <time>2016-12-28T13:36:45Z</time>
      </trkpt>
      <trkpt lat="43.59778" lon="3.40765">
        <ele>199.2</ele>
        <time>2016-12-28T13:36:48Z</time>
      </trkpt>
      <trkpt lat="43.59789" lon="3.40769">
        <ele>198</ele>
        <time>2016-12-28T13:36:51Z</time>
      </trkpt>
      <trkpt lat="43.59798" lon="3.40772">
        <ele>197.2</ele>
        <time>2016-12-28T13:36:53Z</time>
      </trkpt>
      <trkpt lat="43.59806" lon="3.40771">
        <ele>197</ele>
        <time>2016-12-28T13:36:56Z</time>
      </trkpt>
      <trkpt lat="43.59814" lon="3.40766">
        <ele>196.8</ele>
        <time>2016-12-28T13:36:58Z</time>
      </trkpt>
      <trkpt lat="43.59822" lon="3.40765">
        <ele>196.5</ele>
        <time>2016-12-28T13:37:00Z</time>
      </trkpt>
      <trkpt lat="43.59831" lon="3.40765">
        <ele>196</ele>
        <time>2016-12-28T13:37:03Z</time>
      </trkpt>
      <trkpt lat="43.59838" lon="3.40763">
        <ele>195.2</ele>
        <time>2016-12-28T13:37:10Z</time>
      </trkpt>
      <trkpt lat="43.59846" lon="3.40769">
        <ele>194.6</ele>
        <time>2016-12-28T13:37:13Z</time>
      </trkpt>
      <trkpt lat="43.59844" lon="3.40759">
        <ele>193.7</ele>
        <time>2016-12-28T13:37:17Z</time>
      </trkpt>
      <trkpt lat="43.59844" lon="3.40746">
        <ele>192.7</ele>
        <time>2016-12-28T13:37:21Z</time>
      </trkpt>
      <trkpt lat="43.59849" lon="3.40738">
        <ele>191.8</ele>
        <time>2016-12-28T13:37:24Z</time>
      </trkpt>
      <trkpt lat="43.59857" lon="3.40732">
        <ele>191.1</ele>
        <time>2016-12-28T13:37:27Z</time>
      </trkpt>
      <trkpt lat="43.59864" lon="3.40727">
        <ele>190.3</ele>
        <time>2016-12-28T13:37:30Z</time>
      </trkpt>
      <trkpt lat="43.59871" lon="3.40718">
        <ele>189.4</ele>
        <time>2016-12-28T13:37:33Z</time>
      </trkpt>
      <trkpt lat="43.59878" lon="3.40706">
        <ele>188.9</ele>
        <time>2016-12-28T13:37:36Z</time>
      </trkpt>
      <trkpt lat="43.59883" lon="3.40696">
        <ele>186</ele>
        <time>2016-12-28T13:37:38Z</time>
      </trkpt>
      <trkpt lat="43.5989" lon="3.40687">
        <ele>183.7</ele>
        <time>2016-12-28T13:37:40Z</time>
      </trkpt>
      <trkpt lat="43.59899" lon="3.40679">
        <ele>181</ele>
        <time>2016-12-28T13:37:42Z</time>
      </trkpt>
      <trkpt lat="43.59907" lon="3.40671">
        <ele>177.3</ele>
        <time>2016-12-28T13:37:44Z</time>
      </trkpt>
      <trkpt lat="43.59918" lon="3.40661">
        <ele>174.3</ele>
        <time>2016-12-28T13:37:46Z</time>
      </trkpt>
      <trkpt lat="43.59925" lon="3.40655">
        <ele>173.7</ele>
        <time>2016-12-28T13:37:47Z</time>
      </trkpt>
      <trkpt lat="43.59932" lon="3.40649">
        <ele>173.4</ele>
        <time>2016-12-28T13:37:48Z</time>
      </trkpt>
      <trkpt lat="43.59942" lon="3.4064">
        <ele>173.9</ele>
        <time>2016-12-28T13:37:50Z</time>
      </trkpt>
      <trkpt lat="43.59949" lon="3.40629">
        <ele>173.8</ele>
        <time>2016-12-28T13:37:52Z</time>
      </trkpt>
      <trkpt lat="43.59953" lon="3.40616">
        <ele>174.8</ele>
        <time>2016-12-28T13:37:54Z</time>
      </trkpt>
      <trkpt lat="43.59956" lon="3.40604">
        <ele>174.5</ele>
        <time>2016-12-28T13:37:56Z</time>
      </trkpt>
      <trkpt lat="43.59961" lon="3.40592">
        <ele>174.6</ele>
        <time>2016-12-28T13:37:59Z</time>
      </trkpt>
      <trkpt lat="43.59967" lon="3.40583">
        <ele>174.5</ele>
        <time>2016-12-28T13:38:02Z</time>
      </trkpt>
      <trkpt lat="43.59975" lon="3.40575">
        <ele>174.5</ele>
        <time>2016-12-28T13:38:05Z</time>
      </trkpt>
      <trkpt lat="43.59984" lon="3.40571">
        <ele>174.6</ele>
        <time>2016-12-28T13:38:08Z</time>
      </trkpt>
      <trkpt lat="43.59993" lon="3.40572">
        <ele>174.7</ele>
        <time>2016-12-28T13:38:11Z</time>
      </trkpt>
      <trkpt lat="43.60001" lon="3.40575">
        <ele>174.8</ele>
        <time>2016-12-28T13:38:13Z</time>
      </trkpt>
      <trkpt lat="43.6001" lon="3.40578">
        <ele>174.9</ele>
        <time>2016-12-28T13:38:16Z</time>
      </trkpt>
      <trkpt lat="43.60017" lon="3.40579">
        <ele>175</ele>
        <time>2016-12-28T13:38:18Z</time>
      </trkpt>
      <trkpt lat="43.60027" lon="3.40577">
        <ele>175.1</ele>
        <time>2016-12-28T13:38:21Z</time>
      </trkpt>
      <trkpt lat="43.60034" lon="3.40571">
        <ele>175.4</ele>
        <time>2016-12-28T13:38:25Z</time>
      </trkpt>
      <trkpt lat="43.60037" lon="3.40561">
        <ele>175.5</ele>
        <time>2016-12-28T13:38:28Z</time>
      </trkpt>
      <trkpt lat="43.60041" lon="3.40551">
        <ele>175.6</ele>
        <time>2016-12-28T13:38:31Z</time>
      </trkpt>
      <trkpt lat="43.60044" lon="3.4054">
        <ele>176</ele>
        <time>2016-12-28T13:38:35Z</time>
      </trkpt>
      <trkpt lat="43.60046" lon="3.40529">
        <ele>176.4</ele>
        <time>2016-12-28T13:38:38Z</time>
      </trkpt>
      <trkpt lat="43.60049" lon="3.40519">
        <ele>176.9</ele>
        <time>2016-12-28T13:38:42Z</time>
      </trkpt>
      <trkpt lat="43.60054" lon="3.40508">
        <ele>177.4</ele>
        <time>2016-12-28T13:38:46Z</time>
      </trkpt>
      <trkpt lat="43.60057" lon="3.405">
        <ele>177.8</ele>
        <time>2016-12-28T13:38:49Z</time>
      </trkpt>
      <trkpt lat="43.60062" lon="3.4049">
        <ele>178.1</ele>
        <time>2016-12-28T13:38:52Z</time>
      </trkpt>
      <trkpt lat="43.60067" lon="3.4048">
        <ele>178.5</ele>
        <time>2016-12-28T13:38:55Z</time>
      </trkpt>
      <trkpt lat="43.6007" lon="3.40471">
        <ele>178.8</ele>
        <time>2016-12-28T13:38:58Z</time>
      </trkpt>
      <trkpt lat="43.60073" lon="3.40462">
        <ele>179</ele>
        <time>2016-12-28T13:39:01Z</time>
      </trkpt>
      <trkpt lat="43.60075" lon="3.40449">
        <ele>179.2</ele>
        <time>2016-12-28T13:39:04Z</time>
      </trkpt>
      <trkpt lat="43.60076" lon="3.40437">
        <ele>179.4</ele>
        <time>2016-12-28T13:39:07Z</time>
      </trkpt>
      <trkpt lat="43.60076" lon="3.40424">
        <ele>179.7</ele>
        <time>2016-12-28T13:39:10Z</time>
      </trkpt>
      <trkpt lat="43.60076" lon="3.40413">
        <ele>179.8</ele>
        <time>2016-12-28T13:39:12Z</time>
      </trkpt>
      <trkpt lat="43.60077" lon="3.40403">
        <ele>179.9</ele>
        <time>2016-12-28T13:39:14Z</time>
      </trkpt>
      <trkpt lat="43.60079" lon="3.40393">
        <ele>180.4</ele>
        <time>2016-12-28T13:39:16Z</time>
      </trkpt>
      <trkpt lat="43.60082" lon="3.40379">
        <ele>181.1</ele>
        <time>2016-12-28T13:39:19Z</time>
      </trkpt>
      <trkpt lat="43.60086" lon="3.40368">
        <ele>182</ele>
        <time>2016-12-28T13:39:21Z</time>
      </trkpt>
      <trkpt lat="43.6009" lon="3.40356">
        <ele>182.2</ele>
        <time>2016-12-28T13:39:24Z</time>
      </trkpt>
      <trkpt lat="43.60094" lon="3.40345">
        <ele>182.5</ele>
        <time>2016-12-28T13:39:27Z</time>
      </trkpt>
      <trkpt lat="43.60094" lon="3.40333">
        <ele>182.6</ele>
        <time>2016-12-28T13:39:30Z</time>
      </trkpt>
      <trkpt lat="43.60093" lon="3.40322">
        <ele>182.8</ele>
        <time>2016-12-28T13:39:34Z</time>
      </trkpt>
      <trkpt lat="43.60091" lon="3.40312">
        <ele>183</ele>
        <time>2016-12-28T13:39:38Z</time>
      </trkpt>
      <trkpt lat="43.60091" lon="3.403">
        <ele>183.3</ele>
        <time>2016-12-28T13:39:43Z</time>
      </trkpt>
      <trkpt lat="43.6009" lon="3.4029">
        <ele>183.6</ele>
        <time>2016-12-28T13:39:46Z</time>
      </trkpt>
      <trkpt lat="43.60091" lon="3.40279">
        <ele>183.9</ele>
        <time>2016-12-28T13:39:49Z</time>
      </trkpt>
      <trkpt lat="43.60093" lon="3.40267">
        <ele>184.2</ele>
        <time>2016-12-28T13:39:52Z</time>
      </trkpt>
      <trkpt lat="43.60095" lon="3.40258">
        <ele>185.3</ele>
        <time>2016-12-28T13:39:54Z</time>
      </trkpt>
      <trkpt lat="43.60099" lon="3.40248">
        <ele>186.4</ele>
        <time>2016-12-28T13:39:56Z</time>
      </trkpt>
      <trkpt lat="43.60105" lon="3.40237">
        <ele>186.7</ele>
        <time>2016-12-28T13:39:58Z</time>
      </trkpt>
      <trkpt lat="43.60114" lon="3.40228">
        <ele>186.4</ele>
        <time>2016-12-28T13:40:00Z</time>
      </trkpt>
      <trkpt lat="43.60126" lon="3.40224">
        <ele>185.7</ele>
        <time>2016-12-28T13:40:02Z</time>
      </trkpt>
      <trkpt lat="43.60133" lon="3.40223">
        <ele>185.3</ele>
        <time>2016-12-28T13:40:03Z</time>
      </trkpt>
      <trkpt lat="43.60147" lon="3.40224">
        <ele>184.2</ele>
        <time>2016-12-28T13:40:05Z</time>
      </trkpt>
      <trkpt lat="43.60155" lon="3.40225">
        <ele>183.7</ele>
        <time>2016-12-28T13:40:06Z</time>
      </trkpt>
      <trkpt lat="43.60163" lon="3.40228">
        <ele>183</ele>
        <time>2016-12-28T13:40:07Z</time>
      </trkpt>
      <trkpt lat="43.6017" lon="3.40233">
        <ele>182.6</ele>
        <time>2016-12-28T13:40:08Z</time>
      </trkpt>
      <trkpt lat="43.60176" lon="3.4024">
        <ele>182.3</ele>
        <time>2016-12-28T13:40:09Z</time>
      </trkpt>
      <trkpt lat="43.60183" lon="3.40247">
        <ele>182</ele>
        <time>2016-12-28T13:40:10Z</time>
      </trkpt>
      <trkpt lat="43.60194" lon="3.4026">
        <ele>180.6</ele>
        <time>2016-12-28T13:40:12Z</time>
      </trkpt>
      <trkpt lat="43.602" lon="3.40268">
        <ele>180.2</ele>
        <time>2016-12-28T13:40:13Z</time>
      </trkpt>
      <trkpt lat="43.60207" lon="3.40275">
        <ele>179.8</ele>
        <time>2016-12-28T13:40:14Z</time>
      </trkpt>
      <trkpt lat="43.60215" lon="3.4029">
        <ele>178.5</ele>
        <time>2016-12-28T13:40:16Z</time>
      </trkpt>
      <trkpt lat="43.60219" lon="3.403">
        <ele>177.7</ele>
        <time>2016-12-28T13:40:17Z</time>
      </trkpt>
      <trkpt lat="43.60221" lon="3.40313">
        <ele>176.8</ele>
        <time>2016-12-28T13:40:18Z</time>
      </trkpt>
      <trkpt lat="43.60224" lon="3.40326">
        <ele>175.9</ele>
        <time>2016-12-28T13:40:19Z</time>
      </trkpt>
      <trkpt lat="43.60227" lon="3.40339">
        <ele>175.2</ele>
        <time>2016-12-28T13:40:20Z</time>
      </trkpt>
      <trkpt lat="43.60235" lon="3.40355">
        <ele>173.5</ele>
        <time>2016-12-28T13:40:22Z</time>
      </trkpt>
      <trkpt lat="43.60241" lon="3.40367">
        <ele>172</ele>
        <time>2016-12-28T13:40:24Z</time>
      </trkpt>
      <trkpt lat="43.60242" lon="3.40383">
        <ele>169.5</ele>
        <time>2016-12-28T13:40:26Z</time>
      </trkpt>
      <trkpt lat="43.60238" lon="3.40394">
        <ele>167.4</ele>
        <time>2016-12-28T13:40:28Z</time>
      </trkpt>
      <trkpt lat="43.60231" lon="3.40407">
        <ele>165.4</ele>
        <time>2016-12-28T13:40:31Z</time>
      </trkpt>
      <trkpt lat="43.60224" lon="3.40419">
        <ele>164.2</ele>
        <time>2016-12-28T13:40:33Z</time>
      </trkpt>
      <trkpt lat="43.60217" lon="3.40429">
        <ele>163</ele>
        <time>2016-12-28T13:40:35Z</time>
      </trkpt>
      <trkpt lat="43.60209" lon="3.40437">
        <ele>163.1</ele>
        <time>2016-12-28T13:40:37Z</time>
      </trkpt>
      <trkpt lat="43.60202" lon="3.40445">
        <ele>162.9</ele>
        <time>2016-12-28T13:40:39Z</time>
      </trkpt>
      <trkpt lat="43.60195" lon="3.40452">
        <ele>162.6</ele>
        <time>2016-12-28T13:40:41Z</time>
      </trkpt>
      <trkpt lat="43.60191" lon="3.40464">
        <ele>162.4</ele>
        <time>2016-12-28T13:40:43Z</time>
      </trkpt>
      <trkpt lat="43.60193" lon="3.40481">
        <ele>161.9</ele>
        <time>2016-12-28T13:40:45Z</time>
      </trkpt>
      <trkpt lat="43.60198" lon="3.40494">
        <ele>160.7</ele>
        <time>2016-12-28T13:40:47Z</time>
      </trkpt>
      <trkpt lat="43.60203" lon="3.40503">
        <ele>159.5</ele>
        <time>2016-12-28T13:40:49Z</time>
      </trkpt>
      <trkpt lat="43.60208" lon="3.40514">
        <ele>159.4</ele>
        <time>2016-12-28T13:40:51Z</time>
      </trkpt>
      <trkpt lat="43.60212" lon="3.40523">
        <ele>159.4</ele>
        <time>2016-12-28T13:40:53Z</time>
      </trkpt>
      <trkpt lat="43.60217" lon="3.40533">
        <ele>159.6</ele>
        <time>2016-12-28T13:40:55Z</time>
      </trkpt>
      <trkpt lat="43.60223" lon="3.40544">
        <ele>159.5</ele>
        <time>2016-12-28T13:40:57Z</time>
      </trkpt>
      <trkpt lat="43.60228" lon="3.40555">
        <ele>159.9</ele>
        <time>2016-12-28T13:40:59Z</time>
      </trkpt>
      <trkpt lat="43.60232" lon="3.40565">
        <ele>160</ele>
        <time>2016-12-28T13:41:02Z</time>
      </trkpt>
      <trkpt lat="43.60237" lon="3.40574">
        <ele>160.2</ele>
        <time>2016-12-28T13:41:05Z</time>
      </trkpt>
      <trkpt lat="43.60242" lon="3.40581">
        <ele>160.3</ele>
        <time>2016-12-28T13:41:09Z</time>
      </trkpt>
      <trkpt lat="43.6025" lon="3.40583">
        <ele>160.6</ele>
        <time>2016-12-28T13:41:12Z</time>
      </trkpt>
      <trkpt lat="43.60258" lon="3.40585">
        <ele>161.1</ele>
        <time>2016-12-28T13:41:16Z</time>
      </trkpt>
      <trkpt lat="43.60265" lon="3.40588">
        <ele>161.5</ele>
        <time>2016-12-28T13:41:19Z</time>
      </trkpt>
      <trkpt lat="43.60273" lon="3.40589">
        <ele>161.8</ele>
        <time>2016-12-28T13:41:22Z</time>
      </trkpt>
      <trkpt lat="43.60283" lon="3.40588">
        <ele>162</ele>
        <time>2016-12-28T13:41:25Z</time>
      </trkpt>
      <trkpt lat="43.60293" lon="3.40587">
        <ele>162.3</ele>
        <time>2016-12-28T13:41:29Z</time>
      </trkpt>
      <trkpt lat="43.603" lon="3.40584">
        <ele>162.6</ele>
        <time>2016-12-28T13:41:32Z</time>
      </trkpt>
      <trkpt lat="43.60308" lon="3.40583">
        <ele>163</ele>
        <time>2016-12-28T13:41:35Z</time>
      </trkpt>
      <trkpt lat="43.60317" lon="3.40584">
        <ele>163.5</ele>
        <time>2016-12-28T13:41:38Z</time>
      </trkpt>
      <trkpt lat="43.60327" lon="3.40585">
        <ele>166.2</ele>
        <time>2016-12-28T13:41:41Z</time>
      </trkpt>
      <trkpt lat="43.60336" lon="3.40587">
        <ele>168.4</ele>
        <time>2016-12-28T13:41:43Z</time>
      </trkpt>
      <trkpt lat="43.60343" lon="3.4059">
        <ele>170.4</ele>
        <time>2016-12-28T13:41:45Z</time>
      </trkpt>
      <trkpt lat="43.60351" lon="3.40594">
        <ele>170.5</ele>
        <time>2016-12-28T13:41:47Z</time>
      </trkpt>
      <trkpt lat="43.60361" lon="3.406">
        <ele>170.6</ele>
        <time>2016-12-28T13:41:49Z</time>
      </trkpt>
      <trkpt lat="43.60368" lon="3.40606">
        <ele>170.7</ele>
        <time>2016-12-28T13:41:51Z</time>
      </trkpt>
      <trkpt lat="43.60376" lon="3.40613">
        <ele>170.5</ele>
        <time>2016-12-28T13:41:53Z</time>
      </trkpt>
      <trkpt lat="43.60381" lon="3.4062">
        <ele>170.3</ele>
        <time>2016-12-28T13:41:55Z</time>
      </trkpt>
      <trkpt lat="43.60388" lon="3.40629">
        <ele>169.9</ele>
        <time>2016-12-28T13:41:58Z</time>
      </trkpt>
      <trkpt lat="43.60394" lon="3.40635">
        <ele>169.8</ele>
        <time>2016-12-28T13:42:00Z</time>
      </trkpt>
      <trkpt lat="43.60401" lon="3.40642">
        <ele>169.6</ele>
        <time>2016-12-28T13:42:03Z</time>
      </trkpt>
      <trkpt lat="43.60408" lon="3.40648">
        <ele>169.5</ele>
        <time>2016-12-28T13:42:06Z</time>
      </trkpt>
      <trkpt lat="43.60414" lon="3.40659">
        <ele>169.4</ele>
        <time>2016-12-28T13:42:10Z</time>
      </trkpt>
      <trkpt lat="43.60422" lon="3.40667">
        <ele>169.5</ele>
        <time>2016-12-28T13:42:13Z</time>
      </trkpt>
      <trkpt lat="43.60429" lon="3.40671">
        <ele>169.8</ele>
        <time>2016-12-28T13:42:15Z</time>
      </trkpt>
      <trkpt lat="43.60438" lon="3.40677">
        <ele>169.7</ele>
        <time>2016-12-28T13:42:17Z</time>
      </trkpt>
      <trkpt lat="43.6045" lon="3.40679">
        <ele>169</ele>
        <time>2016-12-28T13:42:19Z</time>
      </trkpt>
      <trkpt lat="43.60458" lon="3.40677">
        <ele>169</ele>
        <time>2016-12-28T13:42:21Z</time>
      </trkpt>
      <trkpt lat="43.60465" lon="3.40677">
        <ele>169</ele>
        <time>2016-12-28T13:42:28Z</time>
      </trkpt>
      <trkpt lat="43.60478" lon="3.40664">
        <ele>168.8</ele>
        <time>2016-12-28T13:42:37Z</time>
      </trkpt>
      <trkpt lat="43.60486" lon="3.40658">
        <ele>169.1</ele>
        <time>2016-12-28T13:42:41Z</time>
      </trkpt>
      <trkpt lat="43.60494" lon="3.4065">
        <ele>169.1</ele>
        <time>2016-12-28T13:42:45Z</time>
      </trkpt>
      <trkpt lat="43.60503" lon="3.40646">
        <ele>168.9</ele>
        <time>2016-12-28T13:42:47Z</time>
      </trkpt>
      <trkpt lat="43.60513" lon="3.40645">
        <ele>167.8</ele>
        <time>2016-12-28T13:42:49Z</time>
      </trkpt>
      <trkpt lat="43.60522" lon="3.40648">
        <ele>167.7</ele>
        <time>2016-12-28T13:42:51Z</time>
      </trkpt>
      <trkpt lat="43.6053" lon="3.40643">
        <ele>167.4</ele>
        <time>2016-12-28T13:42:55Z</time>
      </trkpt>
      <trkpt lat="43.60535" lon="3.40635">
        <ele>167.3</ele>
        <time>2016-12-28T13:42:58Z</time>
      </trkpt>
      <trkpt lat="43.60543" lon="3.40637">
        <ele>167.1</ele>
        <time>2016-12-28T13:43:00Z</time>
      </trkpt>
      <trkpt lat="43.60548" lon="3.40645">
        <ele>167.1</ele>
        <time>2016-12-28T13:43:02Z</time>
      </trkpt>
      <trkpt lat="43.60554" lon="3.40654">
        <ele>167.1</ele>
        <time>2016-12-28T13:43:06Z</time>
      </trkpt>
      <trkpt lat="43.60561" lon="3.40658">
        <ele>167.1</ele>
        <time>2016-12-28T13:43:10Z</time>
      </trkpt>
      <trkpt lat="43.6057" lon="3.40663">
        <ele>166.9</ele>
        <time>2016-12-28T13:43:14Z</time>
      </trkpt>
      <trkpt lat="43.60579" lon="3.40657">
        <ele>166.6</ele>
        <time>2016-12-28T13:43:17Z</time>
      </trkpt>
      <trkpt lat="43.60586" lon="3.4065">
        <ele>166.6</ele>
        <time>2016-12-28T13:43:20Z</time>
      </trkpt>
      <trkpt lat="43.60595" lon="3.40644">
        <ele>166.8</ele>
        <time>2016-12-28T13:43:24Z</time>
      </trkpt>
      <trkpt lat="43.60601" lon="3.40636">
        <ele>166.9</ele>
        <time>2016-12-28T13:43:28Z</time>
      </trkpt>
      <trkpt lat="43.60604" lon="3.40626">
        <ele>166.9</ele>
        <time>2016-12-28T13:43:32Z</time>
      </trkpt>
      <trkpt lat="43.60608" lon="3.40615">
        <ele>166.6</ele>
        <time>2016-12-28T13:43:36Z</time>
      </trkpt>
      <trkpt lat="43.60613" lon="3.40606">
        <ele>166.1</ele>
        <time>2016-12-28T13:43:40Z</time>
      </trkpt>
      <trkpt lat="43.60619" lon="3.40598">
        <ele>166</ele>
        <time>2016-12-28T13:43:44Z</time>
      </trkpt>
      <trkpt lat="43.60628" lon="3.40592">
        <ele>166.1</ele>
        <time>2016-12-28T13:43:48Z</time>
      </trkpt>
      <trkpt lat="43.60634" lon="3.40588">
        <ele>166.2</ele>
        <time>2016-12-28T13:43:50Z</time>
      </trkpt>
      <trkpt lat="43.60642" lon="3.40582">
        <ele>166.5</ele>
        <time>2016-12-28T13:43:53Z</time>
      </trkpt>
      <trkpt lat="43.60651" lon="3.40575">
        <ele>166.6</ele>
        <time>2016-12-28T13:43:56Z</time>
      </trkpt>
      <trkpt lat="43.60657" lon="3.40568">
        <ele>166.7</ele>
        <time>2016-12-28T13:43:58Z</time>
      </trkpt>
      <trkpt lat="43.60665" lon="3.40563">
        <ele>166.6</ele>
        <time>2016-12-28T13:44:01Z</time>
      </trkpt>
      <trkpt lat="43.60673" lon="3.40558">
        <ele>166.7</ele>
        <time>2016-12-28T13:44:04Z</time>
      </trkpt>
      <trkpt lat="43.60682" lon="3.40553">
        <ele>166.7</ele>
        <time>2016-12-28T13:44:07Z</time>
      </trkpt>
      <trkpt lat="43.60691" lon="3.40546">
        <ele>166.7</ele>
        <time>2016-12-28T13:44:10Z</time>
      </trkpt>
      <trkpt lat="43.607" lon="3.40541">
        <ele>166.7</ele>
        <time>2016-12-28T13:44:13Z</time>
      </trkpt>
      <trkpt lat="43.6071" lon="3.40534">
        <ele>166.7</ele>
        <time>2016-12-28T13:44:16Z</time>
      </trkpt>
      <trkpt lat="43.60717" lon="3.40529">
        <ele>166.6</ele>
        <time>2016-12-28T13:44:19Z</time>
      </trkpt>
      <trkpt lat="43.60725" lon="3.40524">
        <ele>166.7</ele>
        <time>2016-12-28T13:44:22Z</time>
      </trkpt>
      <trkpt lat="43.60735" lon="3.40519">
        <ele>166.9</ele>
        <time>2016-12-28T13:44:25Z</time>
      </trkpt>
      <trkpt lat="43.60744" lon="3.40511">
        <ele>166.9</ele>
        <time>2016-12-28T13:44:28Z</time>
      </trkpt>
      <trkpt lat="43.60753" lon="3.40503">
        <ele>166.8</ele>
        <time>2016-12-28T13:44:31Z</time>
      </trkpt>
      <trkpt lat="43.60761" lon="3.40497">
        <ele>166.7</ele>
        <time>2016-12-28T13:44:33Z</time>
      </trkpt>
      <trkpt lat="43.60769" lon="3.4049">
        <ele>166.6</ele>
        <time>2016-12-28T13:44:36Z</time>
      </trkpt>
      <trkpt lat="43.60777" lon="3.40483">
        <ele>166.5</ele>
        <time>2016-12-28T13:44:39Z</time>
      </trkpt>
      <trkpt lat="43.60787" lon="3.40475">
        <ele>166.6</ele>
        <time>2016-12-28T13:44:42Z</time>
      </trkpt>
      <trkpt lat="43.60795" lon="3.40469">
        <ele>166.5</ele>
        <time>2016-12-28T13:44:45Z</time>
      </trkpt>
      <trkpt lat="43.60803" lon="3.40463">
        <ele>166.5</ele>
        <time>2016-12-28T13:44:48Z</time>
      </trkpt>
      <trkpt lat="43.60812" lon="3.40454">
        <ele>166.5</ele>
        <time>2016-12-28T13:44:51Z</time>
      </trkpt>
      <trkpt lat="43.60818" lon="3.40447">
        <ele>166.6</ele>
        <time>2016-12-28T13:44:53Z</time>
      </trkpt>
      <trkpt lat="43.60824" lon="3.40441">
        <ele>166.7</ele>
        <time>2016-12-28T13:44:55Z</time>
      </trkpt>
      <trkpt lat="43.6083" lon="3.40434">
        <ele>166.7</ele>
        <time>2016-12-28T13:44:57Z</time>
      </trkpt>
      <trkpt lat="43.60837" lon="3.40424">
        <ele>166.8</ele>
        <time>2016-12-28T13:45:00Z</time>
      </trkpt>
      <trkpt lat="43.60843" lon="3.40417">
        <ele>167</ele>
        <time>2016-12-28T13:45:03Z</time>
      </trkpt>
      <trkpt lat="43.60849" lon="3.40411">
        <ele>167.2</ele>
        <time>2016-12-28T13:45:06Z</time>
      </trkpt>
      <trkpt lat="43.60855" lon="3.40403">
        <ele>167.5</ele>
        <time>2016-12-28T13:45:08Z</time>
      </trkpt>
      <trkpt lat="43.6086" lon="3.40394">
        <ele>168</ele>
        <time>2016-12-28T13:45:11Z</time>
      </trkpt>
      <trkpt lat="43.60865" lon="3.40386">
        <ele>168.3</ele>
        <time>2016-12-28T13:45:15Z</time>
      </trkpt>
      <trkpt lat="43.60871" lon="3.40379">
        <ele>168.5</ele>
        <time>2016-12-28T13:45:18Z</time>
      </trkpt>
      <trkpt lat="43.60879" lon="3.40371">
        <ele>168.7</ele>
        <time>2016-12-28T13:45:22Z</time>
      </trkpt>
      <trkpt lat="43.60886" lon="3.40362">
        <ele>169</ele>
        <time>2016-12-28T13:45:25Z</time>
      </trkpt>
      <trkpt lat="43.60893" lon="3.40353">
        <ele>169.2</ele>
        <time>2016-12-28T13:45:28Z</time>
      </trkpt>
      <trkpt lat="43.609" lon="3.40345">
        <ele>169.3</ele>
        <time>2016-12-28T13:45:31Z</time>
      </trkpt>
      <trkpt lat="43.60906" lon="3.40336">
        <ele>169.4</ele>
        <time>2016-12-28T13:45:34Z</time>
      </trkpt>
      <trkpt lat="43.60912" lon="3.40329">
        <ele>169.5</ele>
        <time>2016-12-28T13:45:37Z</time>
      </trkpt>
      <trkpt lat="43.60917" lon="3.40322">
        <ele>169.6</ele>
        <time>2016-12-28T13:45:40Z</time>
      </trkpt>
      <trkpt lat="43.60923" lon="3.40315">
        <ele>169.6</ele>
        <time>2016-12-28T13:45:43Z</time>
      </trkpt>
      <trkpt lat="43.60928" lon="3.40308">
        <ele>169.5</ele>
        <time>2016-12-28T13:45:46Z</time>
      </trkpt>
      <trkpt lat="43.60936" lon="3.40299">
        <ele>169.4</ele>
        <time>2016-12-28T13:45:49Z</time>
      </trkpt>
      <trkpt lat="43.60942" lon="3.4029">
        <ele>169.5</ele>
        <time>2016-12-28T13:45:52Z</time>
      </trkpt>
      <trkpt lat="43.60948" lon="3.40282">
        <ele>169.6</ele>
        <time>2016-12-28T13:45:55Z</time>
      </trkpt>
      <trkpt lat="43.60954" lon="3.40274">
        <ele>169.8</ele>
        <time>2016-12-28T13:45:57Z</time>
      </trkpt>
      <trkpt lat="43.60961" lon="3.40265">
        <ele>170.1</ele>
        <time>2016-12-28T13:46:00Z</time>
      </trkpt>
      <trkpt lat="43.60967" lon="3.40257">
        <ele>170.4</ele>
        <time>2016-12-28T13:46:03Z</time>
      </trkpt>
      <trkpt lat="43.60974" lon="3.4025">
        <ele>170.6</ele>
        <time>2016-12-28T13:46:06Z</time>
      </trkpt>
      <trkpt lat="43.6098" lon="3.40242">
        <ele>170.8</ele>
        <time>2016-12-28T13:46:09Z</time>
      </trkpt>
      <trkpt lat="43.60987" lon="3.40234">
        <ele>171.1</ele>
        <time>2016-12-28T13:46:13Z</time>
      </trkpt>
      <trkpt lat="43.60992" lon="3.40226">
        <ele>171.2</ele>
        <time>2016-12-28T13:46:15Z</time>
      </trkpt>
      <trkpt lat="43.60998" lon="3.40217">
        <ele>171.3</ele>
        <time>2016-12-28T13:46:18Z</time>
      </trkpt>
      <trkpt lat="43.61003" lon="3.40209">
        <ele>171.4</ele>
        <time>2016-12-28T13:46:21Z</time>
      </trkpt>
      <trkpt lat="43.6101" lon="3.40202">
        <ele>171.7</ele>
        <time>2016-12-28T13:46:24Z</time>
      </trkpt>
      <trkpt lat="43.61016" lon="3.40195">
        <ele>172</ele>
        <time>2016-12-28T13:46:27Z</time>
      </trkpt>
      <trkpt lat="43.61022" lon="3.40188">
        <ele>172.7</ele>
        <time>2016-12-28T13:46:30Z</time>
      </trkpt>
      <trkpt lat="43.6103" lon="3.40179">
        <ele>173.3</ele>
        <time>2016-12-28T13:46:34Z</time>
      </trkpt>
      <trkpt lat="43.61036" lon="3.40173">
        <ele>174.1</ele>
        <time>2016-12-28T13:46:39Z</time>
      </trkpt>
      <trkpt lat="43.61041" lon="3.40164">
        <ele>174.4</ele>
        <time>2016-12-28T13:46:41Z</time>
      </trkpt>
      <trkpt lat="43.61049" lon="3.40153">
        <ele>174.6</ele>
        <time>2016-12-28T13:46:43Z</time>
      </trkpt>
      <trkpt lat="43.61053" lon="3.40144">
        <ele>175</ele>
        <time>2016-12-28T13:46:46Z</time>
      </trkpt>
      <trkpt lat="43.61057" lon="3.40132">
        <ele>175.3</ele>
        <time>2016-12-28T13:46:48Z</time>
      </trkpt>
      <trkpt lat="43.61062" lon="3.40124">
        <ele>175.5</ele>
        <time>2016-12-28T13:46:50Z</time>
      </trkpt>
      <trkpt lat="43.61068" lon="3.40113">
        <ele>176</ele>
        <time>2016-12-28T13:46:53Z</time>
      </trkpt>
      <trkpt lat="43.61072" lon="3.40101">
        <ele>176.4</ele>
        <time>2016-12-28T13:46:56Z</time>
      </trkpt>
      <trkpt lat="43.61076" lon="3.40093">
        <ele>176.7</ele>
        <time>2016-12-28T13:46:59Z</time>
      </trkpt>
      <trkpt lat="43.61084" lon="3.40085">
        <ele>176.8</ele>
        <time>2016-12-28T13:47:02Z</time>
      </trkpt>
      <trkpt lat="43.61093" lon="3.40078">
        <ele>177.3</ele>
        <time>2016-12-28T13:47:06Z</time>
      </trkpt>
      <trkpt lat="43.61101" lon="3.40072">
        <ele>177.5</ele>
        <time>2016-12-28T13:47:09Z</time>
      </trkpt>
      <trkpt lat="43.61108" lon="3.40067">
        <ele>177.8</ele>
        <time>2016-12-28T13:47:12Z</time>
      </trkpt>
      <trkpt lat="43.61116" lon="3.40062">
        <ele>177.9</ele>
        <time>2016-12-28T13:47:14Z</time>
      </trkpt>
      <trkpt lat="43.61125" lon="3.40055">
        <ele>178</ele>
        <time>2016-12-28T13:47:17Z</time>
      </trkpt>
      <trkpt lat="43.61131" lon="3.4005">
        <ele>178.1</ele>
        <time>2016-12-28T13:47:20Z</time>
      </trkpt>
      <trkpt lat="43.6114" lon="3.4005">
        <ele>178.4</ele>
        <time>2016-12-28T13:47:26Z</time>
      </trkpt>
      <trkpt lat="43.61151" lon="3.40044">
        <ele>178.5</ele>
        <time>2016-12-28T13:47:29Z</time>
      </trkpt>
      <trkpt lat="43.61158" lon="3.4004">
        <ele>178.5</ele>
        <time>2016-12-28T13:47:31Z</time>
      </trkpt>
      <trkpt lat="43.61165" lon="3.40036">
        <ele>178.6</ele>
        <time>2016-12-28T13:47:33Z</time>
      </trkpt>
      <trkpt lat="43.61172" lon="3.40031">
        <ele>178.5</ele>
        <time>2016-12-28T13:47:35Z</time>
      </trkpt>
      <trkpt lat="43.61181" lon="3.40025">
        <ele>178.6</ele>
        <time>2016-12-28T13:47:38Z</time>
      </trkpt>
      <trkpt lat="43.61188" lon="3.40022">
        <ele>178.6</ele>
        <time>2016-12-28T13:47:40Z</time>
      </trkpt>
      <trkpt lat="43.61198" lon="3.40019">
        <ele>178.6</ele>
        <time>2016-12-28T13:47:43Z</time>
      </trkpt>
      <trkpt lat="43.61205" lon="3.40014">
        <ele>178.6</ele>
        <time>2016-12-28T13:47:45Z</time>
      </trkpt>
      <trkpt lat="43.61214" lon="3.40006">
        <ele>178.5</ele>
        <time>2016-12-28T13:47:48Z</time>
      </trkpt>
      <trkpt lat="43.61222" lon="3.40003">
        <ele>178.5</ele>
        <time>2016-12-28T13:47:50Z</time>
      </trkpt>
      <trkpt lat="43.61233" lon="3.39998">
        <ele>179.1</ele>
        <time>2016-12-28T13:47:53Z</time>
      </trkpt>
      <trkpt lat="43.61238" lon="3.39989">
        <ele>179.4</ele>
        <time>2016-12-28T13:47:55Z</time>
      </trkpt>
      <trkpt lat="43.6124" lon="3.39976">
        <ele>179.7</ele>
        <time>2016-12-28T13:47:57Z</time>
      </trkpt>
      <trkpt lat="43.61238" lon="3.39963">
        <ele>180.2</ele>
        <time>2016-12-28T13:48:00Z</time>
      </trkpt>
      <trkpt lat="43.61236" lon="3.39953">
        <ele>180.7</ele>
        <time>2016-12-28T13:48:02Z</time>
      </trkpt>
      <trkpt lat="43.61233" lon="3.39943">
        <ele>181.1</ele>
        <time>2016-12-28T13:48:04Z</time>
      </trkpt>
      <trkpt lat="43.61229" lon="3.39934">
        <ele>181.5</ele>
        <time>2016-12-28T13:48:06Z</time>
      </trkpt>
      <trkpt lat="43.61225" lon="3.39923">
        <ele>182.2</ele>
        <time>2016-12-28T13:48:09Z</time>
      </trkpt>
      <trkpt lat="43.6122" lon="3.39909">
        <ele>183.1</ele>
        <time>2016-12-28T13:48:12Z</time>
      </trkpt>
      <trkpt lat="43.61216" lon="3.39899">
        <ele>183.4</ele>
        <time>2016-12-28T13:48:14Z</time>
      </trkpt>
      <trkpt lat="43.61214" lon="3.3989">
        <ele>183.8</ele>
        <time>2016-12-28T13:48:17Z</time>
      </trkpt>
      <trkpt lat="43.6121" lon="3.39879">
        <ele>184.2</ele>
        <time>2016-12-28T13:48:20Z</time>
      </trkpt>
      <trkpt lat="43.61207" lon="3.39866">
        <ele>184.5</ele>
        <time>2016-12-28T13:48:23Z</time>
      </trkpt>
      <trkpt lat="43.61201" lon="3.39856">
        <ele>185.1</ele>
        <time>2016-12-28T13:48:26Z</time>
      </trkpt>
      <trkpt lat="43.61198" lon="3.39845">
        <ele>185.9</ele>
        <time>2016-12-28T13:48:30Z</time>
      </trkpt>
      <trkpt lat="43.61193" lon="3.39832">
        <ele>186.5</ele>
        <time>2016-12-28T13:48:34Z</time>
      </trkpt>
      <trkpt lat="43.61193" lon="3.39822">
        <ele>187.2</ele>
        <time>2016-12-28T13:48:38Z</time>
      </trkpt>
      <trkpt lat="43.61201" lon="3.3982">
        <ele>187.7</ele>
        <time>2016-12-28T13:48:44Z</time>
      </trkpt>
      <trkpt lat="43.61209" lon="3.39816">
        <ele>187.8</ele>
        <time>2016-12-28T13:48:48Z</time>
      </trkpt>
      <trkpt lat="43.61216" lon="3.3981">
        <ele>187.6</ele>
        <time>2016-12-28T13:48:51Z</time>
      </trkpt>
      <trkpt lat="43.61223" lon="3.39805">
        <ele>187.3</ele>
        <time>2016-12-28T13:48:53Z</time>
      </trkpt>
      <trkpt lat="43.6123" lon="3.398">
        <ele>187.3</ele>
        <time>2016-12-28T13:48:57Z</time>
      </trkpt>
      <trkpt lat="43.61238" lon="3.39796">
        <ele>187.3</ele>
        <time>2016-12-28T13:49:00Z</time>
      </trkpt>
      <trkpt lat="43.61246" lon="3.39792">
        <ele>187.3</ele>
        <time>2016-12-28T13:49:03Z</time>
      </trkpt>
      <trkpt lat="43.61254" lon="3.39787">
        <ele>187.5</ele>
        <time>2016-12-28T13:49:06Z</time>
      </trkpt>
      <trkpt lat="43.61263" lon="3.39782">
        <ele>187.7</ele>
        <time>2016-12-28T13:49:10Z</time>
      </trkpt>
      <trkpt lat="43.61271" lon="3.39775">
        <ele>187.7</ele>
        <time>2016-12-28T13:49:13Z</time>
      </trkpt>
      <trkpt lat="43.61279" lon="3.39771">
        <ele>187.9</ele>
        <time>2016-12-28T13:49:16Z</time>
      </trkpt>
      <trkpt lat="43.61287" lon="3.39765">
        <ele>188</ele>
        <time>2016-12-28T13:49:21Z</time>
      </trkpt>
      <trkpt lat="43.61294" lon="3.39758">
        <ele>188</ele>
        <time>2016-12-28T13:49:26Z</time>
      </trkpt>
      <trkpt lat="43.61302" lon="3.39755">
        <ele>187.9</ele>
        <time>2016-12-28T13:49:30Z</time>
      </trkpt>
      <trkpt lat="43.61309" lon="3.39749">
        <ele>187.9</ele>
        <time>2016-12-28T13:49:35Z</time>
      </trkpt>
      <trkpt lat="43.61317" lon="3.39746">
        <ele>188</ele>
        <time>2016-12-28T13:49:39Z</time>
      </trkpt>
      <trkpt lat="43.61326" lon="3.39741">
        <ele>188.1</ele>
        <time>2016-12-28T13:49:42Z</time>
      </trkpt>
      <trkpt lat="43.61334" lon="3.39735">
        <ele>188.2</ele>
        <time>2016-12-28T13:49:45Z</time>
      </trkpt>
      <trkpt lat="43.61343" lon="3.39729">
        <ele>188.4</ele>
        <time>2016-12-28T13:49:50Z</time>
      </trkpt>
      <trkpt lat="43.6135" lon="3.39725">
        <ele>189</ele>
        <time>2016-12-28T13:49:54Z</time>
      </trkpt>
      <trkpt lat="43.61358" lon="3.39719">
        <ele>189.4</ele>
        <time>2016-12-28T13:49:58Z</time>
      </trkpt>
      <trkpt lat="43.61366" lon="3.39714">
        <ele>189.9</ele>
        <time>2016-12-28T13:50:02Z</time>
      </trkpt>
      <trkpt lat="43.61373" lon="3.3971">
        <ele>190.2</ele>
        <time>2016-12-28T13:50:06Z</time>
      </trkpt>
      <trkpt lat="43.61381" lon="3.39706">
        <ele>190.6</ele>
        <time>2016-12-28T13:50:11Z</time>
      </trkpt>
      <trkpt lat="43.61379" lon="3.39696">
        <ele>191</ele>
        <time>2016-12-28T13:50:16Z</time>
      </trkpt>
      <trkpt lat="43.61371" lon="3.39695">
        <ele>191.7</ele>
        <time>2016-12-28T13:50:21Z</time>
      </trkpt>
      <trkpt lat="43.61366" lon="3.39694">
        <ele>192.5</ele>
        <time>2016-12-28T13:50:28Z</time>
      </trkpt>
      <trkpt lat="43.61361" lon="3.39696">
        <ele>192.3</ele>
        <time>2016-12-28T13:50:35Z</time>
      </trkpt>
      <trkpt lat="43.61353" lon="3.39696">
        <ele>192.8</ele>
        <time>2016-12-28T13:50:41Z</time>
      </trkpt>
      <trkpt lat="43.61345" lon="3.39696">
        <ele>193.5</ele>
        <time>2016-12-28T13:50:47Z</time>
      </trkpt>
      <trkpt lat="43.61337" lon="3.39697">
        <ele>193.8</ele>
        <time>2016-12-28T13:50:52Z</time>
      </trkpt>
      <trkpt lat="43.61329" lon="3.39697">
        <ele>194.1</ele>
        <time>2016-12-28T13:50:57Z</time>
      </trkpt>
      <trkpt lat="43.6132" lon="3.39699">
        <ele>194.2</ele>
        <time>2016-12-28T13:51:01Z</time>
      </trkpt>
      <trkpt lat="43.61312" lon="3.39697">
        <ele>194.4</ele>
        <time>2016-12-28T13:51:05Z</time>
      </trkpt>
      <trkpt lat="43.61304" lon="3.39699">
        <ele>194.6</ele>
        <time>2016-12-28T13:51:09Z</time>
      </trkpt>
      <trkpt lat="43.61296" lon="3.39699">
        <ele>194.9</ele>
        <time>2016-12-28T13:51:13Z</time>
      </trkpt>
      <trkpt lat="43.61288" lon="3.39698">
        <ele>195.3</ele>
        <time>2016-12-28T13:51:18Z</time>
      </trkpt>
      <trkpt lat="43.61284" lon="3.39702">
        <ele>195.9</ele>
        <time>2016-12-28T13:51:25Z</time>
      </trkpt>
      <trkpt lat="43.61268" lon="3.39696">
        <ele>197.7</ele>
        <time>2016-12-28T13:51:41Z</time>
      </trkpt>
      <trkpt lat="43.6126" lon="3.39695">
        <ele>198.4</ele>
        <time>2016-12-28T13:51:46Z</time>
      </trkpt>
      <trkpt lat="43.61253" lon="3.39692">
        <ele>198.9</ele>
        <time>2016-12-28T13:51:50Z</time>
      </trkpt>
      <trkpt lat="43.61246" lon="3.39686">
        <ele>199.7</ele>
        <time>2016-12-28T13:51:55Z</time>
      </trkpt>
      <trkpt lat="43.61239" lon="3.39682">
        <ele>200.1</ele>
        <time>2016-12-28T13:51:59Z</time>
      </trkpt>
      <trkpt lat="43.61232" lon="3.3968">
        <ele>200.8</ele>
        <time>2016-12-28T13:52:04Z</time>
      </trkpt>
      <trkpt lat="43.61225" lon="3.39674">
        <ele>201.7</ele>
        <time>2016-12-28T13:52:09Z</time>
      </trkpt>
      <trkpt lat="43.61222" lon="3.39663">
        <ele>202.8</ele>
        <time>2016-12-28T13:52:14Z</time>
      </trkpt>
      <trkpt lat="43.61223" lon="3.39652">
        <ele>204</ele>
        <time>2016-12-28T13:52:21Z</time>
      </trkpt>
      <trkpt lat="43.6123" lon="3.39646">
        <ele>205.2</ele>
        <time>2016-12-28T13:52:26Z</time>
      </trkpt>
      <trkpt lat="43.61234" lon="3.39636">
        <ele>206.8</ele>
        <time>2016-12-28T13:52:33Z</time>
      </trkpt>
      <trkpt lat="43.61232" lon="3.39625">
        <ele>208.2</ele>
        <time>2016-12-28T13:52:40Z</time>
      </trkpt>
      <trkpt lat="43.61231" lon="3.39606">
        <ele>215.2</ele>
        <time>2016-12-28T13:54:02Z</time>
      </trkpt>
      <trkpt lat="43.61232" lon="3.39592">
        <ele>215.3</ele>
        <time>2016-12-28T13:54:06Z</time>
      </trkpt>
      <trkpt lat="43.61233" lon="3.39579">
        <ele>215.2</ele>
        <time>2016-12-28T13:54:09Z</time>
      </trkpt>
      <trkpt lat="43.61238" lon="3.39566">
        <ele>215.2</ele>
        <time>2016-12-28T13:54:12Z</time>
      </trkpt>
      <trkpt lat="43.61242" lon="3.39558">
        <ele>215.2</ele>
        <time>2016-12-28T13:54:14Z</time>
      </trkpt>
      <trkpt lat="43.61247" lon="3.3955">
        <ele>214.8</ele>
        <time>2016-12-28T13:54:16Z</time>
      </trkpt>
      <trkpt lat="43.6125" lon="3.3954">
        <ele>214.7</ele>
        <time>2016-12-28T13:54:18Z</time>
      </trkpt>
      <trkpt lat="43.61255" lon="3.3953">
        <ele>214.6</ele>
        <time>2016-12-28T13:54:20Z</time>
      </trkpt>
      <trkpt lat="43.61259" lon="3.3952">
        <ele>214.6</ele>
        <time>2016-12-28T13:54:22Z</time>
      </trkpt>
      <trkpt lat="43.61261" lon="3.39511">
        <ele>214.7</ele>
        <time>2016-12-28T13:54:24Z</time>
      </trkpt>
      <trkpt lat="43.61263" lon="3.395">
        <ele>214.7</ele>
        <time>2016-12-28T13:54:26Z</time>
      </trkpt>
      <trkpt lat="43.61266" lon="3.39485">
        <ele>214.8</ele>
        <time>2016-12-28T13:54:29Z</time>
      </trkpt>
      <trkpt lat="43.61269" lon="3.39475">
        <ele>214.8</ele>
        <time>2016-12-28T13:54:32Z</time>
      </trkpt>
      <trkpt lat="43.61269" lon="3.39463">
        <ele>214.7</ele>
        <time>2016-12-28T13:54:35Z</time>
      </trkpt>
      <trkpt lat="43.61267" lon="3.39453">
        <ele>214.6</ele>
        <time>2016-12-28T13:54:37Z</time>
      </trkpt>
      <trkpt lat="43.61265" lon="3.39443">
        <ele>214.5</ele>
        <time>2016-12-28T13:54:40Z</time>
      </trkpt>
      <trkpt lat="43.61265" lon="3.39432">
        <ele>214.6</ele>
        <time>2016-12-28T13:54:45Z</time>
      </trkpt>
      <trkpt lat="43.61264" lon="3.39422">
        <ele>214.7</ele>
        <time>2016-12-28T13:54:48Z</time>
      </trkpt>
      <trkpt lat="43.61264" lon="3.3941">
        <ele>214.9</ele>
        <time>2016-12-28T13:54:51Z</time>
      </trkpt>
      <trkpt lat="43.61261" lon="3.39401">
        <ele>215.4</ele>
        <time>2016-12-28T13:54:54Z</time>
      </trkpt>
      <trkpt lat="43.61259" lon="3.3939">
        <ele>215.8</ele>
        <time>2016-12-28T13:54:58Z</time>
      </trkpt>
      <trkpt lat="43.61256" lon="3.39377">
        <ele>216</ele>
        <time>2016-12-28T13:55:02Z</time>
      </trkpt>
      <trkpt lat="43.61256" lon="3.39367">
        <ele>216.3</ele>
        <time>2016-12-28T13:55:07Z</time>
      </trkpt>
      <trkpt lat="43.61257" lon="3.39356">
        <ele>216.3</ele>
        <time>2016-12-28T13:55:12Z</time>
      </trkpt>
      <trkpt lat="43.61258" lon="3.39345">
        <ele>216.2</ele>
        <time>2016-12-28T13:55:17Z</time>
      </trkpt>
      <trkpt lat="43.61254" lon="3.39337">
        <ele>216.6</ele>
        <time>2016-12-28T13:55:21Z</time>
      </trkpt>
      <trkpt lat="43.61249" lon="3.39331">
        <ele>217.1</ele>
        <time>2016-12-28T13:55:24Z</time>
      </trkpt>
      <trkpt lat="43.61241" lon="3.39325">
        <ele>217.5</ele>
        <time>2016-12-28T13:55:27Z</time>
      </trkpt>
      <trkpt lat="43.61235" lon="3.39318">
        <ele>217.7</ele>
        <time>2016-12-28T13:55:30Z</time>
      </trkpt>
      <trkpt lat="43.61231" lon="3.39307">
        <ele>218</ele>
        <time>2016-12-28T13:55:33Z</time>
      </trkpt>
      <trkpt lat="43.61227" lon="3.39299">
        <ele>218.3</ele>
        <time>2016-12-28T13:55:36Z</time>
      </trkpt>
      <trkpt lat="43.61221" lon="3.39288">
        <ele>218.7</ele>
        <time>2016-12-28T13:55:39Z</time>
      </trkpt>
      <trkpt lat="43.61215" lon="3.39278">
        <ele>219.1</ele>
        <time>2016-12-28T13:55:42Z</time>
      </trkpt>
      <trkpt lat="43.6121" lon="3.3927">
        <ele>219.4</ele>
        <time>2016-12-28T13:55:44Z</time>
      </trkpt>
      <trkpt lat="43.61205" lon="3.39261">
        <ele>219.7</ele>
        <time>2016-12-28T13:55:46Z</time>
      </trkpt>
      <trkpt lat="43.61201" lon="3.39252">
        <ele>219.9</ele>
        <time>2016-12-28T13:55:49Z</time>
      </trkpt>
      <trkpt lat="43.61199" lon="3.3924">
        <ele>220.1</ele>
        <time>2016-12-28T13:55:52Z</time>
      </trkpt>
      <trkpt lat="43.61198" lon="3.39229">
        <ele>220.3</ele>
        <time>2016-12-28T13:55:55Z</time>
      </trkpt>
      <trkpt lat="43.61199" lon="3.39216">
        <ele>220.5</ele>
        <time>2016-12-28T13:55:58Z</time>
      </trkpt>
      <trkpt lat="43.61201" lon="3.39204">
        <ele>220.6</ele>
        <time>2016-12-28T13:56:01Z</time>
      </trkpt>
      <trkpt lat="43.61203" lon="3.39191">
        <ele>220.7</ele>
        <time>2016-12-28T13:56:04Z</time>
      </trkpt>
      <trkpt lat="43.61203" lon="3.3918">
        <ele>220.9</ele>
        <time>2016-12-28T13:56:06Z</time>
      </trkpt>
      <trkpt lat="43.61203" lon="3.39169">
        <ele>221</ele>
        <time>2016-12-28T13:56:08Z</time>
      </trkpt>
      <trkpt lat="43.61206" lon="3.39156">
        <ele>221.3</ele>
        <time>2016-12-28T13:56:11Z</time>
      </trkpt>
      <trkpt lat="43.6121" lon="3.39148">
        <ele>221.4</ele>
        <time>2016-12-28T13:56:14Z</time>
      </trkpt>
      <trkpt lat="43.61216" lon="3.39139">
        <ele>221.4</ele>
        <time>2016-12-28T13:56:16Z</time>
      </trkpt>
      <trkpt lat="43.61222" lon="3.39131">
        <ele>221.6</ele>
        <time>2016-12-28T13:56:18Z</time>
      </trkpt>
      <trkpt lat="43.61227" lon="3.39123">
        <ele>221.6</ele>
        <time>2016-12-28T13:56:20Z</time>
      </trkpt>
      <trkpt lat="43.61232" lon="3.39115">
        <ele>222.2</ele>
        <time>2016-12-28T13:56:22Z</time>
      </trkpt>
      <trkpt lat="43.61237" lon="3.39106">
        <ele>222.3</ele>
        <time>2016-12-28T13:56:24Z</time>
      </trkpt>
      <trkpt lat="43.61241" lon="3.39098">
        <ele>222.2</ele>
        <time>2016-12-28T13:56:26Z</time>
      </trkpt>
      <trkpt lat="43.61248" lon="3.39088">
        <ele>221.9</ele>
        <time>2016-12-28T13:56:29Z</time>
      </trkpt>
      <trkpt lat="43.61254" lon="3.3908">
        <ele>221.6</ele>
        <time>2016-12-28T13:56:31Z</time>
      </trkpt>
      <trkpt lat="43.61259" lon="3.39072">
        <ele>221.4</ele>
        <time>2016-12-28T13:56:33Z</time>
      </trkpt>
      <trkpt lat="43.61264" lon="3.39065">
        <ele>221.3</ele>
        <time>2016-12-28T13:56:35Z</time>
      </trkpt>
      <trkpt lat="43.61272" lon="3.39058">
        <ele>221.2</ele>
        <time>2016-12-28T13:56:38Z</time>
      </trkpt>
      <trkpt lat="43.6128" lon="3.39052">
        <ele>221.1</ele>
        <time>2016-12-28T13:56:42Z</time>
      </trkpt>
      <trkpt lat="43.61288" lon="3.39045">
        <ele>221.1</ele>
        <time>2016-12-28T13:56:45Z</time>
      </trkpt>
      <trkpt lat="43.61294" lon="3.39038">
        <ele>221.1</ele>
        <time>2016-12-28T13:56:48Z</time>
      </trkpt>
      <trkpt lat="43.61303" lon="3.39029">
        <ele>220.4</ele>
        <time>2016-12-28T13:56:49Z</time>
      </trkpt>
      <trkpt lat="43.61312" lon="3.3902">
        <ele>219.4</ele>
        <time>2016-12-28T13:56:51Z</time>
      </trkpt>
      <trkpt lat="43.61319" lon="3.3901">
        <ele>218.5</ele>
        <time>2016-12-28T13:56:53Z</time>
      </trkpt>
      <trkpt lat="43.61325" lon="3.39002">
        <ele>218.4</ele>
        <time>2016-12-28T13:56:55Z</time>
      </trkpt>
      <trkpt lat="43.6133" lon="3.38992">
        <ele>217.7</ele>
        <time>2016-12-28T13:56:57Z</time>
      </trkpt>
      <trkpt lat="43.61336" lon="3.38985">
        <ele>217.5</ele>
        <time>2016-12-28T13:56:59Z</time>
      </trkpt>
      <trkpt lat="43.61342" lon="3.38976">
        <ele>217.5</ele>
        <time>2016-12-28T13:57:02Z</time>
      </trkpt>
      <trkpt lat="43.61345" lon="3.38967">
        <ele>217.5</ele>
        <time>2016-12-28T13:57:07Z</time>
      </trkpt>
      <trkpt lat="43.61346" lon="3.38962">
        <ele>217.3</ele>
        <time>2016-12-28T13:57:14Z</time>
      </trkpt>
      <trkpt lat="43.61342" lon="3.38962">
        <ele>216.9</ele>
        <time>2016-12-28T13:57:21Z</time>
      </trkpt>
      <trkpt lat="43.61335" lon="3.38964">
        <ele>216.8</ele>
        <time>2016-12-28T13:57:24Z</time>
      </trkpt>
      <trkpt lat="43.61327" lon="3.38964">
        <ele>216.7</ele>
        <time>2016-12-28T13:57:26Z</time>
      </trkpt>
      <trkpt lat="43.61319" lon="3.38966">
        <ele>216.3</ele>
        <time>2016-12-28T13:57:31Z</time>
      </trkpt>
      <trkpt lat="43.61311" lon="3.38968">
        <ele>214.2</ele>
        <time>2016-12-28T13:57:33Z</time>
      </trkpt>
      <trkpt lat="43.61301" lon="3.38969">
        <ele>211.2</ele>
        <time>2016-12-28T13:57:35Z</time>
      </trkpt>
      <trkpt lat="43.6129" lon="3.38973">
        <ele>208.6</ele>
        <time>2016-12-28T13:57:37Z</time>
      </trkpt>
      <trkpt lat="43.6128" lon="3.38975">
        <ele>205.9</ele>
        <time>2016-12-28T13:57:39Z</time>
      </trkpt>
      <trkpt lat="43.61269" lon="3.38978">
        <ele>204.2</ele>
        <time>2016-12-28T13:57:41Z</time>
      </trkpt>
      <trkpt lat="43.61258" lon="3.38981">
        <ele>201.3</ele>
        <time>2016-12-28T13:57:43Z</time>
      </trkpt>
      <trkpt lat="43.61248" lon="3.38988">
        <ele>199.3</ele>
        <time>2016-12-28T13:57:45Z</time>
      </trkpt>
      <trkpt lat="43.6124" lon="3.38999">
        <ele>197.3</ele>
        <time>2016-12-28T13:57:47Z</time>
      </trkpt>
      <trkpt lat="43.61234" lon="3.3901">
        <ele>195.1</ele>
        <time>2016-12-28T13:57:49Z</time>
      </trkpt>
      <trkpt lat="43.61227" lon="3.39018">
        <ele>193</ele>
        <time>2016-12-28T13:57:51Z</time>
      </trkpt>
      <trkpt lat="43.61219" lon="3.39026">
        <ele>192.8</ele>
        <time>2016-12-28T13:57:53Z</time>
      </trkpt>
      <trkpt lat="43.61211" lon="3.39037">
        <ele>193</ele>
        <time>2016-12-28T13:57:56Z</time>
      </trkpt>
      <trkpt lat="43.61204" lon="3.39047">
        <ele>193.4</ele>
        <time>2016-12-28T13:57:58Z</time>
      </trkpt>
      <trkpt lat="43.61197" lon="3.39057">
        <ele>193.5</ele>
        <time>2016-12-28T13:58:00Z</time>
      </trkpt>
      <trkpt lat="43.6119" lon="3.39064">
        <ele>193.4</ele>
        <time>2016-12-28T13:58:03Z</time>
      </trkpt>
      <trkpt lat="43.61183" lon="3.39071">
        <ele>193.1</ele>
        <time>2016-12-28T13:58:06Z</time>
      </trkpt>
      <trkpt lat="43.61178" lon="3.39079">
        <ele>192.8</ele>
        <time>2016-12-28T13:58:09Z</time>
      </trkpt>
      <trkpt lat="43.6117" lon="3.39088">
        <ele>192.1</ele>
        <time>2016-12-28T13:58:12Z</time>
      </trkpt>
      <trkpt lat="43.61165" lon="3.391">
        <ele>190.8</ele>
        <time>2016-12-28T13:58:14Z</time>
      </trkpt>
      <trkpt lat="43.61162" lon="3.39112">
        <ele>190.7</ele>
        <time>2016-12-28T13:58:16Z</time>
      </trkpt>
      <trkpt lat="43.61159" lon="3.39122">
        <ele>190.7</ele>
        <time>2016-12-28T13:58:18Z</time>
      </trkpt>
      <trkpt lat="43.61156" lon="3.39134">
        <ele>190</ele>
        <time>2016-12-28T13:58:20Z</time>
      </trkpt>
      <trkpt lat="43.61154" lon="3.39147">
        <ele>189.4</ele>
        <time>2016-12-28T13:58:22Z</time>
      </trkpt>
      <trkpt lat="43.61151" lon="3.39158">
        <ele>189.5</ele>
        <time>2016-12-28T13:58:24Z</time>
      </trkpt>
      <trkpt lat="43.61149" lon="3.3917">
        <ele>189.4</ele>
        <time>2016-12-28T13:58:26Z</time>
      </trkpt>
      <trkpt lat="43.61146" lon="3.39182">
        <ele>189.3</ele>
        <time>2016-12-28T13:58:28Z</time>
      </trkpt>
      <trkpt lat="43.61144" lon="3.39197">
        <ele>190.2</ele>
        <time>2016-12-28T13:58:30Z</time>
      </trkpt>
      <trkpt lat="43.61143" lon="3.3921">
        <ele>190.3</ele>
        <time>2016-12-28T13:58:32Z</time>
      </trkpt>
      <trkpt lat="43.61143" lon="3.39222">
        <ele>190.7</ele>
        <time>2016-12-28T13:58:34Z</time>
      </trkpt>
      <trkpt lat="43.61145" lon="3.39234">
        <ele>191</ele>
        <time>2016-12-28T13:58:36Z</time>
      </trkpt>
      <trkpt lat="43.61148" lon="3.39247">
        <ele>191.2</ele>
        <time>2016-12-28T13:58:38Z</time>
      </trkpt>
      <trkpt lat="43.6115" lon="3.39261">
        <ele>191.1</ele>
        <time>2016-12-28T13:58:40Z</time>
      </trkpt>
      <trkpt lat="43.6115" lon="3.39275">
        <ele>191.2</ele>
        <time>2016-12-28T13:58:42Z</time>
      </trkpt>
      <trkpt lat="43.61152" lon="3.39288">
        <ele>191.6</ele>
        <time>2016-12-28T13:58:44Z</time>
      </trkpt>
      <trkpt lat="43.61156" lon="3.393">
        <ele>191.6</ele>
        <time>2016-12-28T13:58:46Z</time>
      </trkpt>
      <trkpt lat="43.61158" lon="3.39313">
        <ele>191.8</ele>
        <time>2016-12-28T13:58:48Z</time>
      </trkpt>
      <trkpt lat="43.61159" lon="3.39323">
        <ele>191.7</ele>
        <time>2016-12-28T13:58:50Z</time>
      </trkpt>
      <trkpt lat="43.6116" lon="3.39335">
        <ele>191</ele>
        <time>2016-12-28T13:58:52Z</time>
      </trkpt>
      <trkpt lat="43.61161" lon="3.39348">
        <ele>190.3</ele>
        <time>2016-12-28T13:58:54Z</time>
      </trkpt>
      <trkpt lat="43.61162" lon="3.39359">
        <ele>189.5</ele>
        <time>2016-12-28T13:58:56Z</time>
      </trkpt>
      <trkpt lat="43.61162" lon="3.39371">
        <ele>188.7</ele>
        <time>2016-12-28T13:58:58Z</time>
      </trkpt>
      <trkpt lat="43.61162" lon="3.39382">
        <ele>188.6</ele>
        <time>2016-12-28T13:59:00Z</time>
      </trkpt>
      <trkpt lat="43.61165" lon="3.39393">
        <ele>188.5</ele>
        <time>2016-12-28T13:59:05Z</time>
      </trkpt>
      <trkpt lat="43.61171" lon="3.39402">
        <ele>188.7</ele>
        <time>2016-12-28T13:59:10Z</time>
      </trkpt>
      <trkpt lat="43.61174" lon="3.39414">
        <ele>188.9</ele>
        <time>2016-12-28T13:59:14Z</time>
      </trkpt>
      <trkpt lat="43.61175" lon="3.39429">
        <ele>188.9</ele>
        <time>2016-12-28T13:59:17Z</time>
      </trkpt>
      <trkpt lat="43.61178" lon="3.39439">
        <ele>190.3</ele>
        <time>2016-12-28T13:59:19Z</time>
      </trkpt>
      <trkpt lat="43.61182" lon="3.39449">
        <ele>190.5</ele>
        <time>2016-12-28T13:59:21Z</time>
      </trkpt>
      <trkpt lat="43.61185" lon="3.3946">
        <ele>190.5</ele>
        <time>2016-12-28T13:59:23Z</time>
      </trkpt>
      <trkpt lat="43.61184" lon="3.39471">
        <ele>190.5</ele>
        <time>2016-12-28T13:59:26Z</time>
      </trkpt>
      <trkpt lat="43.61182" lon="3.39486">
        <ele>190.4</ele>
        <time>2016-12-28T13:59:29Z</time>
      </trkpt>
      <trkpt lat="43.6118" lon="3.39502">
        <ele>190.3</ele>
        <time>2016-12-28T13:59:32Z</time>
      </trkpt>
      <trkpt lat="43.61175" lon="3.39512">
        <ele>190.3</ele>
        <time>2016-12-28T13:59:34Z</time>
      </trkpt>
      <trkpt lat="43.61171" lon="3.39521">
        <ele>190.4</ele>
        <time>2016-12-28T13:59:36Z</time>
      </trkpt>
      <trkpt lat="43.61165" lon="3.39533">
        <ele>190.3</ele>
        <time>2016-12-28T13:59:38Z</time>
      </trkpt>
      <trkpt lat="43.61163" lon="3.39545">
        <ele>190.2</ele>
        <time>2016-12-28T13:59:40Z</time>
      </trkpt>
      <trkpt lat="43.61158" lon="3.39555">
        <ele>189.7</ele>
        <time>2016-12-28T13:59:42Z</time>
      </trkpt>
      <trkpt lat="43.61154" lon="3.39568">
        <ele>189.7</ele>
        <time>2016-12-28T13:59:45Z</time>
      </trkpt>
      <trkpt lat="43.61148" lon="3.39579">
        <ele>189.6</ele>
        <time>2016-12-28T13:59:52Z</time>
      </trkpt>
      <trkpt lat="43.61142" lon="3.39587">
        <ele>189.6</ele>
        <time>2016-12-28T13:59:56Z</time>
      </trkpt>
      <trkpt lat="43.61135" lon="3.39595">
        <ele>189.6</ele>
        <time>2016-12-28T13:59:59Z</time>
      </trkpt>
      <trkpt lat="43.61127" lon="3.39605">
        <ele>189.6</ele>
        <time>2016-12-28T14:00:02Z</time>
      </trkpt>
      <trkpt lat="43.61119" lon="3.39613">
        <ele>189.6</ele>
        <time>2016-12-28T14:00:05Z</time>
      </trkpt>
      <trkpt lat="43.61112" lon="3.3962">
        <ele>189.7</ele>
        <time>2016-12-28T14:00:07Z</time>
      </trkpt>
      <trkpt lat="43.61105" lon="3.39626">
        <ele>189.7</ele>
        <time>2016-12-28T14:00:09Z</time>
      </trkpt>
      <trkpt lat="43.61096" lon="3.39634">
        <ele>189.9</ele>
        <time>2016-12-28T14:00:12Z</time>
      </trkpt>
      <trkpt lat="43.6109" lon="3.39641">
        <ele>189.9</ele>
        <time>2016-12-28T14:00:14Z</time>
      </trkpt>
      <trkpt lat="43.61083" lon="3.39647">
        <ele>189.9</ele>
        <time>2016-12-28T14:00:16Z</time>
      </trkpt>
      <trkpt lat="43.61075" lon="3.39648">
        <ele>189.9</ele>
        <time>2016-12-28T14:00:20Z</time>
      </trkpt>
      <trkpt lat="43.61067" lon="3.39657">
        <ele>190</ele>
        <time>2016-12-28T14:00:23Z</time>
      </trkpt>
      <trkpt lat="43.6106" lon="3.39665">
        <ele>189.7</ele>
        <time>2016-12-28T14:00:25Z</time>
      </trkpt>
      <trkpt lat="43.61054" lon="3.39673">
        <ele>189.2</ele>
        <time>2016-12-28T14:00:27Z</time>
      </trkpt>
      <trkpt lat="43.61048" lon="3.39686">
        <ele>188.9</ele>
        <time>2016-12-28T14:00:30Z</time>
      </trkpt>
      <trkpt lat="43.61051" lon="3.39699">
        <ele>188.8</ele>
        <time>2016-12-28T14:00:33Z</time>
      </trkpt>
      <trkpt lat="43.61051" lon="3.39712">
        <ele>188.9</ele>
        <time>2016-12-28T14:00:36Z</time>
      </trkpt>
      <trkpt lat="43.61044" lon="3.39722">
        <ele>188.9</ele>
        <time>2016-12-28T14:00:39Z</time>
      </trkpt>
      <trkpt lat="43.61037" lon="3.39731">
        <ele>188.9</ele>
        <time>2016-12-28T14:00:42Z</time>
      </trkpt>
      <trkpt lat="43.6103" lon="3.39741">
        <ele>188.9</ele>
        <time>2016-12-28T14:00:45Z</time>
      </trkpt>
      <trkpt lat="43.61023" lon="3.39749">
        <ele>189</ele>
        <time>2016-12-28T14:00:47Z</time>
      </trkpt>
      <trkpt lat="43.61018" lon="3.39764">
        <ele>189.2</ele>
        <time>2016-12-28T14:00:50Z</time>
      </trkpt>
      <trkpt lat="43.61012" lon="3.39776">
        <ele>189.4</ele>
        <time>2016-12-28T14:00:52Z</time>
      </trkpt>
      <trkpt lat="43.61008" lon="3.39789">
        <ele>189.5</ele>
        <time>2016-12-28T14:00:54Z</time>
      </trkpt>
      <trkpt lat="43.61006" lon="3.39798">
        <ele>189.6</ele>
        <time>2016-12-28T14:00:56Z</time>
      </trkpt>
      <trkpt lat="43.61004" lon="3.39811">
        <ele>189.7</ele>
        <time>2016-12-28T14:00:58Z</time>
      </trkpt>
      <trkpt lat="43.61" lon="3.39821">
        <ele>189.7</ele>
        <time>2016-12-28T14:01:00Z</time>
      </trkpt>
      <trkpt lat="43.60998" lon="3.39832">
        <ele>189.6</ele>
        <time>2016-12-28T14:01:02Z</time>
      </trkpt>
      <trkpt lat="43.60996" lon="3.39845">
        <ele>189.8</ele>
        <time>2016-12-28T14:01:04Z</time>
      </trkpt>
      <trkpt lat="43.60995" lon="3.39858">
        <ele>189.8</ele>
        <time>2016-12-28T14:01:06Z</time>
      </trkpt>
      <trkpt lat="43.60993" lon="3.3987">
        <ele>189.8</ele>
        <time>2016-12-28T14:01:08Z</time>
      </trkpt>
      <trkpt lat="43.60993" lon="3.39882">
        <ele>189.9</ele>
        <time>2016-12-28T14:01:10Z</time>
      </trkpt>
      <trkpt lat="43.60992" lon="3.39895">
        <ele>190.1</ele>
        <time>2016-12-28T14:01:12Z</time>
      </trkpt>
      <trkpt lat="43.60991" lon="3.39906">
        <ele>190.1</ele>
        <time>2016-12-28T14:01:14Z</time>
      </trkpt>
      <trkpt lat="43.60991" lon="3.39918">
        <ele>190</ele>
        <time>2016-12-28T14:01:16Z</time>
      </trkpt>
      <trkpt lat="43.6099" lon="3.39929">
        <ele>189.8</ele>
        <time>2016-12-28T14:01:20Z</time>
      </trkpt>
      <trkpt lat="43.60988" lon="3.39939">
        <ele>189.5</ele>
        <time>2016-12-28T14:01:24Z</time>
      </trkpt>
      <trkpt lat="43.60983" lon="3.39947">
        <ele>189.2</ele>
        <time>2016-12-28T14:01:30Z</time>
      </trkpt>
      <trkpt lat="43.60985" lon="3.39958">
        <ele>188.9</ele>
        <time>2016-12-28T14:01:34Z</time>
      </trkpt>
      <trkpt lat="43.60988" lon="3.39972">
        <ele>188.6</ele>
        <time>2016-12-28T14:01:38Z</time>
      </trkpt>
      <trkpt lat="43.60991" lon="3.39982">
        <ele>188.4</ele>
        <time>2016-12-28T14:01:40Z</time>
      </trkpt>
      <trkpt lat="43.60994" lon="3.39995">
        <ele>188.2</ele>
        <time>2016-12-28T14:01:43Z</time>
      </trkpt>
      <trkpt lat="43.60997" lon="3.40005">
        <ele>188</ele>
        <time>2016-12-28T14:01:45Z</time>
      </trkpt>
      <trkpt lat="43.61" lon="3.40017">
        <ele>187.5</ele>
        <time>2016-12-28T14:01:48Z</time>
      </trkpt>
      <trkpt lat="43.61003" lon="3.4003">
        <ele>186.4</ele>
        <time>2016-12-28T14:01:51Z</time>
      </trkpt>
      <trkpt lat="43.61006" lon="3.4004">
        <ele>186.3</ele>
        <time>2016-12-28T14:01:53Z</time>
      </trkpt>
      <trkpt lat="43.61009" lon="3.40053">
        <ele>186.2</ele>
        <time>2016-12-28T14:01:55Z</time>
      </trkpt>
      <trkpt lat="43.61012" lon="3.40066">
        <ele>184.5</ele>
        <time>2016-12-28T14:01:58Z</time>
      </trkpt>
      <trkpt lat="43.61016" lon="3.40078">
        <ele>184.4</ele>
        <time>2016-12-28T14:02:00Z</time>
      </trkpt>
      <trkpt lat="43.61021" lon="3.4009">
        <ele>184.5</ele>
        <time>2016-12-28T14:02:03Z</time>
      </trkpt>
      <trkpt lat="43.61024" lon="3.40101">
        <ele>184.6</ele>
        <time>2016-12-28T14:02:06Z</time>
      </trkpt>
      <trkpt lat="43.61027" lon="3.40114">
        <ele>184.5</ele>
        <time>2016-12-28T14:02:09Z</time>
      </trkpt>
      <trkpt lat="43.61031" lon="3.40125">
        <ele>184.5</ele>
        <time>2016-12-28T14:02:12Z</time>
      </trkpt>
      <trkpt lat="43.61036" lon="3.40139">
        <ele>184.9</ele>
        <time>2016-12-28T14:02:15Z</time>
      </trkpt>
      <trkpt lat="43.61041" lon="3.40154">
        <ele>185.4</ele>
        <time>2016-12-28T14:02:18Z</time>
      </trkpt>
      <trkpt lat="43.61039" lon="3.40164">
        <ele>185</ele>
        <time>2016-12-28T14:02:21Z</time>
      </trkpt>
      <trkpt lat="43.61033" lon="3.40172">
        <ele>184.8</ele>
        <time>2016-12-28T14:02:23Z</time>
      </trkpt>
      <trkpt lat="43.61027" lon="3.40179">
        <ele>184.6</ele>
        <time>2016-12-28T14:02:25Z</time>
      </trkpt>
      <trkpt lat="43.61019" lon="3.40187">
        <ele>185.2</ele>
        <time>2016-12-28T14:02:28Z</time>
      </trkpt>
      <trkpt lat="43.61012" lon="3.40198">
        <ele>185.4</ele>
        <time>2016-12-28T14:02:30Z</time>
      </trkpt>
      <trkpt lat="43.61005" lon="3.40206">
        <ele>185.4</ele>
        <time>2016-12-28T14:02:32Z</time>
      </trkpt>
      <trkpt lat="43.60997" lon="3.40216">
        <ele>185.1</ele>
        <time>2016-12-28T14:02:34Z</time>
      </trkpt>
      <trkpt lat="43.6099" lon="3.40221">
        <ele>184.9</ele>
        <time>2016-12-28T14:02:36Z</time>
      </trkpt>
      <trkpt lat="43.60982" lon="3.40216">
        <ele>183.9</ele>
        <time>2016-12-28T14:02:39Z</time>
      </trkpt>
      <trkpt lat="43.60977" lon="3.40209">
        <ele>183.5</ele>
        <time>2016-12-28T14:02:41Z</time>
      </trkpt>
      <trkpt lat="43.60971" lon="3.402">
        <ele>183.7</ele>
        <time>2016-12-28T14:02:43Z</time>
      </trkpt>
      <trkpt lat="43.60964" lon="3.40193">
        <ele>184.3</ele>
        <time>2016-12-28T14:02:45Z</time>
      </trkpt>
      <trkpt lat="43.60955" lon="3.40187">
        <ele>184</ele>
        <time>2016-12-28T14:02:47Z</time>
      </trkpt>
      <trkpt lat="43.60945" lon="3.40182">
        <ele>183.5</ele>
        <time>2016-12-28T14:02:49Z</time>
      </trkpt>
      <trkpt lat="43.60936" lon="3.40179">
        <ele>183.8</ele>
        <time>2016-12-28T14:02:51Z</time>
      </trkpt>
      <trkpt lat="43.60926" lon="3.40175">
        <ele>184.7</ele>
        <time>2016-12-28T14:02:53Z</time>
      </trkpt>
      <trkpt lat="43.60918" lon="3.40165">
        <ele>185.2</ele>
        <time>2016-12-28T14:02:55Z</time>
      </trkpt>
      <trkpt lat="43.60912" lon="3.40153">
        <ele>185.7</ele>
        <time>2016-12-28T14:02:57Z</time>
      </trkpt>
      <trkpt lat="43.60905" lon="3.4014">
        <ele>184.7</ele>
        <time>2016-12-28T14:03:00Z</time>
      </trkpt>
      <trkpt lat="43.60901" lon="3.40128">
        <ele>183.9</ele>
        <time>2016-12-28T14:03:02Z</time>
      </trkpt>
      <trkpt lat="43.60896" lon="3.40117">
        <ele>183.5</ele>
        <time>2016-12-28T14:03:04Z</time>
      </trkpt>
      <trkpt lat="43.60894" lon="3.40106">
        <ele>182.1</ele>
        <time>2016-12-28T14:03:06Z</time>
      </trkpt>
      <trkpt lat="43.6089" lon="3.40095">
        <ele>182.5</ele>
        <time>2016-12-28T14:03:08Z</time>
      </trkpt>
      <trkpt lat="43.60882" lon="3.40089">
        <ele>182.9</ele>
        <time>2016-12-28T14:03:10Z</time>
      </trkpt>
      <trkpt lat="43.60873" lon="3.40091">
        <ele>183.1</ele>
        <time>2016-12-28T14:03:13Z</time>
      </trkpt>
      <trkpt lat="43.60865" lon="3.40096">
        <ele>182.9</ele>
        <time>2016-12-28T14:03:16Z</time>
      </trkpt>
      <trkpt lat="43.60857" lon="3.40099">
        <ele>182.9</ele>
        <time>2016-12-28T14:03:20Z</time>
      </trkpt>
      <trkpt lat="43.60849" lon="3.40101">
        <ele>183</ele>
        <time>2016-12-28T14:03:25Z</time>
      </trkpt>
      <trkpt lat="43.6084" lon="3.401">
        <ele>183.8</ele>
        <time>2016-12-28T14:03:30Z</time>
      </trkpt>
      <trkpt lat="43.60834" lon="3.40105">
        <ele>184.1</ele>
        <time>2016-12-28T14:03:34Z</time>
      </trkpt>
      <trkpt lat="43.60826" lon="3.40109">
        <ele>184.1</ele>
        <time>2016-12-28T14:03:37Z</time>
      </trkpt>
      <trkpt lat="43.60818" lon="3.40114">
        <ele>184.5</ele>
        <time>2016-12-28T14:03:41Z</time>
      </trkpt>
      <trkpt lat="43.6081" lon="3.40114">
        <ele>184.9</ele>
        <time>2016-12-28T14:03:46Z</time>
      </trkpt>
      <trkpt lat="43.60813" lon="3.40105">
        <ele>185.3</ele>
        <time>2016-12-28T14:03:53Z</time>
      </trkpt>
      <trkpt lat="43.60819" lon="3.40098">
        <ele>186</ele>
        <time>2016-12-28T14:03:58Z</time>
      </trkpt>
      <trkpt lat="43.60822" lon="3.40088">
        <ele>186.6</ele>
        <time>2016-12-28T14:04:02Z</time>
      </trkpt>
      <trkpt lat="43.60819" lon="3.40078">
        <ele>187.6</ele>
        <time>2016-12-28T14:04:07Z</time>
      </trkpt>
      <trkpt lat="43.60811" lon="3.40077">
        <ele>188.7</ele>
        <time>2016-12-28T14:04:12Z</time>
      </trkpt>
      <trkpt lat="43.60804" lon="3.40078">
        <ele>189.6</ele>
        <time>2016-12-28T14:04:17Z</time>
      </trkpt>
      <trkpt lat="43.60795" lon="3.40081">
        <ele>190.4</ele>
        <time>2016-12-28T14:04:23Z</time>
      </trkpt>
      <trkpt lat="43.60788" lon="3.40084">
        <ele>191.1</ele>
        <time>2016-12-28T14:04:28Z</time>
      </trkpt>
      <trkpt lat="43.60781" lon="3.4009">
        <ele>192.1</ele>
        <time>2016-12-28T14:04:33Z</time>
      </trkpt>
      <trkpt lat="43.60776" lon="3.40099">
        <ele>193.1</ele>
        <time>2016-12-28T14:04:38Z</time>
      </trkpt>
      <trkpt lat="43.60771" lon="3.40106">
        <ele>193.6</ele>
        <time>2016-12-28T14:04:41Z</time>
      </trkpt>
      <trkpt lat="43.60765" lon="3.40115">
        <ele>194</ele>
        <time>2016-12-28T14:04:45Z</time>
      </trkpt>
      <trkpt lat="43.60758" lon="3.40121">
        <ele>194.3</ele>
        <time>2016-12-28T14:04:49Z</time>
      </trkpt>
      <trkpt lat="43.60751" lon="3.40121">
        <ele>194.9</ele>
        <time>2016-12-28T14:04:54Z</time>
      </trkpt>
      <trkpt lat="43.60742" lon="3.40122">
        <ele>195.6</ele>
        <time>2016-12-28T14:04:58Z</time>
      </trkpt>
      <trkpt lat="43.60734" lon="3.40121">
        <ele>196.5</ele>
        <time>2016-12-28T14:05:02Z</time>
      </trkpt>
      <trkpt lat="43.60727" lon="3.40124">
        <ele>197.3</ele>
        <time>2016-12-28T14:05:06Z</time>
      </trkpt>
      <trkpt lat="43.6072" lon="3.40131">
        <ele>198.1</ele>
        <time>2016-12-28T14:05:10Z</time>
      </trkpt>
      <trkpt lat="43.60713" lon="3.40138">
        <ele>198.9</ele>
        <time>2016-12-28T14:05:14Z</time>
      </trkpt>
      <trkpt lat="43.60706" lon="3.40143">
        <ele>199.3</ele>
        <time>2016-12-28T14:05:17Z</time>
      </trkpt>
      <trkpt lat="43.60699" lon="3.40141">
        <ele>200</ele>
        <time>2016-12-28T14:05:21Z</time>
      </trkpt>
      <trkpt lat="43.60692" lon="3.4014">
        <ele>200.4</ele>
        <time>2016-12-28T14:05:24Z</time>
      </trkpt>
      <trkpt lat="43.60682" lon="3.40143">
        <ele>201</ele>
        <time>2016-12-28T14:05:29Z</time>
      </trkpt>
      <trkpt lat="43.60674" lon="3.40147">
        <ele>201.6</ele>
        <time>2016-12-28T14:05:33Z</time>
      </trkpt>
      <trkpt lat="43.60668" lon="3.40156">
        <ele>202.3</ele>
        <time>2016-12-28T14:05:37Z</time>
      </trkpt>
      <trkpt lat="43.60665" lon="3.40168">
        <ele>203.1</ele>
        <time>2016-12-28T14:05:41Z</time>
      </trkpt>
      <trkpt lat="43.60663" lon="3.40179">
        <ele>204</ele>
        <time>2016-12-28T14:05:45Z</time>
      </trkpt>
      <trkpt lat="43.60663" lon="3.40189">
        <ele>205.2</ele>
        <time>2016-12-28T14:05:50Z</time>
      </trkpt>
      <trkpt lat="43.60661" lon="3.40199">
        <ele>205.7</ele>
        <time>2016-12-28T14:05:53Z</time>
      </trkpt>
      <trkpt lat="43.60659" lon="3.40212">
        <ele>205.8</ele>
        <time>2016-12-28T14:05:57Z</time>
      </trkpt>
      <trkpt lat="43.60656" lon="3.40222">
        <ele>205.9</ele>
        <time>2016-12-28T14:06:02Z</time>
      </trkpt>
      <trkpt lat="43.60651" lon="3.40231">
        <ele>206.1</ele>
        <time>2016-12-28T14:06:06Z</time>
      </trkpt>
      <trkpt lat="43.60645" lon="3.40239">
        <ele>206.5</ele>
        <time>2016-12-28T14:06:10Z</time>
      </trkpt>
      <trkpt lat="43.60639" lon="3.40245">
        <ele>206.8</ele>
        <time>2016-12-28T14:06:14Z</time>
      </trkpt>
      <trkpt lat="43.60632" lon="3.40251">
        <ele>207.1</ele>
        <time>2016-12-28T14:06:18Z</time>
      </trkpt>
      <trkpt lat="43.60627" lon="3.40257">
        <ele>207.6</ele>
        <time>2016-12-28T14:06:23Z</time>
      </trkpt>
      <trkpt lat="43.60621" lon="3.40264">
        <ele>207.8</ele>
        <time>2016-12-28T14:06:27Z</time>
      </trkpt>
      <trkpt lat="43.60615" lon="3.40271">
        <ele>208.5</ele>
        <time>2016-12-28T14:06:32Z</time>
      </trkpt>
      <trkpt lat="43.6061" lon="3.40278">
        <ele>209.2</ele>
        <time>2016-12-28T14:06:36Z</time>
      </trkpt>
      <trkpt lat="43.60604" lon="3.40286">
        <ele>210.1</ele>
        <time>2016-12-28T14:06:41Z</time>
      </trkpt>
      <trkpt lat="43.60598" lon="3.40295">
        <ele>210.8</ele>
        <time>2016-12-28T14:06:46Z</time>
      </trkpt>
      <trkpt lat="43.60591" lon="3.40302">
        <ele>211.4</ele>
        <time>2016-12-28T14:06:50Z</time>
      </trkpt>
      <trkpt lat="43.60583" lon="3.40308">
        <ele>212.1</ele>
        <time>2016-12-28T14:06:54Z</time>
      </trkpt>
      <trkpt lat="43.60575" lon="3.4031">
        <ele>212.9</ele>
        <time>2016-12-28T14:06:59Z</time>
      </trkpt>
      <trkpt lat="43.60566" lon="3.40311">
        <ele>213.7</ele>
        <time>2016-12-28T14:07:04Z</time>
      </trkpt>
      <trkpt lat="43.60558" lon="3.4031">
        <ele>214.5</ele>
        <time>2016-12-28T14:07:09Z</time>
      </trkpt>
      <trkpt lat="43.60549" lon="3.40308">
        <ele>215.2</ele>
        <time>2016-12-28T14:07:14Z</time>
      </trkpt>
      <trkpt lat="43.60542" lon="3.40304">
        <ele>216.3</ele>
        <time>2016-12-28T14:07:19Z</time>
      </trkpt>
      <trkpt lat="43.60548" lon="3.40297">
        <ele>217.6</ele>
        <time>2016-12-28T14:07:26Z</time>
      </trkpt>
      <trkpt lat="43.60553" lon="3.40289">
        <ele>218.4</ele>
        <time>2016-12-28T14:07:31Z</time>
      </trkpt>
      <trkpt lat="43.60557" lon="3.40281">
        <ele>219</ele>
        <time>2016-12-28T14:07:36Z</time>
      </trkpt>
      <trkpt lat="43.60562" lon="3.40271">
        <ele>219.8</ele>
        <time>2016-12-28T14:07:41Z</time>
      </trkpt>
      <trkpt lat="43.60566" lon="3.40262">
        <ele>220.3</ele>
        <time>2016-12-28T14:07:45Z</time>
      </trkpt>
      <trkpt lat="43.60569" lon="3.40251">
        <ele>221</ele>
        <time>2016-12-28T14:07:51Z</time>
      </trkpt>
      <trkpt lat="43.60572" lon="3.4024">
        <ele>221.6</ele>
        <time>2016-12-28T14:07:56Z</time>
      </trkpt>
      <trkpt lat="43.60576" lon="3.4023">
        <ele>222.3</ele>
        <time>2016-12-28T14:08:01Z</time>
      </trkpt>
      <trkpt lat="43.60577" lon="3.4022">
        <ele>223</ele>
        <time>2016-12-28T14:08:05Z</time>
      </trkpt>
      <trkpt lat="43.60579" lon="3.40208">
        <ele>223.7</ele>
        <time>2016-12-28T14:08:10Z</time>
      </trkpt>
      <trkpt lat="43.60579" lon="3.40197">
        <ele>224.2</ele>
        <time>2016-12-28T14:08:14Z</time>
      </trkpt>
      <trkpt lat="43.60578" lon="3.40185">
        <ele>224.7</ele>
        <time>2016-12-28T14:08:18Z</time>
      </trkpt>
      <trkpt lat="43.60577" lon="3.40174">
        <ele>225.3</ele>
        <time>2016-12-28T14:08:23Z</time>
      </trkpt>
      <trkpt lat="43.60577" lon="3.40162">
        <ele>226.2</ele>
        <time>2016-12-28T14:08:28Z</time>
      </trkpt>
      <trkpt lat="43.60578" lon="3.40152">
        <ele>226.8</ele>
        <time>2016-12-28T14:08:32Z</time>
      </trkpt>
      <trkpt lat="43.60583" lon="3.4014">
        <ele>227.1</ele>
        <time>2016-12-28T14:08:36Z</time>
      </trkpt>
      <trkpt lat="43.60588" lon="3.40127">
        <ele>227.3</ele>
        <time>2016-12-28T14:08:39Z</time>
      </trkpt>
      <trkpt lat="43.60592" lon="3.40116">
        <ele>227.7</ele>
        <time>2016-12-28T14:08:42Z</time>
      </trkpt>
      <trkpt lat="43.60597" lon="3.40106">
        <ele>228</ele>
        <time>2016-12-28T14:08:45Z</time>
      </trkpt>
      <trkpt lat="43.60601" lon="3.40096">
        <ele>228.5</ele>
        <time>2016-12-28T14:08:48Z</time>
      </trkpt>
      <trkpt lat="43.60601" lon="3.40084">
        <ele>228.7</ele>
        <time>2016-12-28T14:08:52Z</time>
      </trkpt>
      <trkpt lat="43.60599" lon="3.40074">
        <ele>229</ele>
        <time>2016-12-28T14:08:55Z</time>
      </trkpt>
      <trkpt lat="43.60599" lon="3.40063">
        <ele>229.5</ele>
        <time>2016-12-28T14:08:59Z</time>
      </trkpt>
      <trkpt lat="43.60598" lon="3.40052">
        <ele>229.9</ele>
        <time>2016-12-28T14:09:03Z</time>
      </trkpt>
      <trkpt lat="43.60597" lon="3.40041">
        <ele>230.5</ele>
        <time>2016-12-28T14:09:08Z</time>
      </trkpt>
      <trkpt lat="43.606" lon="3.40031">
        <ele>231.1</ele>
        <time>2016-12-28T14:09:12Z</time>
      </trkpt>
      <trkpt lat="43.60603" lon="3.40018">
        <ele>232</ele>
        <time>2016-12-28T14:09:17Z</time>
      </trkpt>
      <trkpt lat="43.60605" lon="3.40008">
        <ele>232.8</ele>
        <time>2016-12-28T14:09:22Z</time>
      </trkpt>
      <trkpt lat="43.60609" lon="3.39999">
        <ele>233.8</ele>
        <time>2016-12-28T14:09:29Z</time>
      </trkpt>
      <trkpt lat="43.60615" lon="3.39991">
        <ele>234.9</ele>
        <time>2016-12-28T14:09:35Z</time>
      </trkpt>
      <trkpt lat="43.60616" lon="3.39981">
        <ele>235.8</ele>
        <time>2016-12-28T14:09:40Z</time>
      </trkpt>
      <trkpt lat="43.60613" lon="3.39972">
        <ele>237</ele>
        <time>2016-12-28T14:09:46Z</time>
      </trkpt>
      <trkpt lat="43.60613" lon="3.39961">
        <ele>238.2</ele>
        <time>2016-12-28T14:09:53Z</time>
      </trkpt>
      <trkpt lat="43.60616" lon="3.39954">
        <ele>239.1</ele>
        <time>2016-12-28T14:10:00Z</time>
      </trkpt>
      <trkpt lat="43.60622" lon="3.39953">
        <ele>239.9</ele>
        <time>2016-12-28T14:10:07Z</time>
      </trkpt>
      <trkpt lat="43.60628" lon="3.39952">
        <ele>240.6</ele>
        <time>2016-12-28T14:10:14Z</time>
      </trkpt>
      <trkpt lat="43.60635" lon="3.39946">
        <ele>241</ele>
        <time>2016-12-28T14:10:18Z</time>
      </trkpt>
      <trkpt lat="43.60643" lon="3.39936">
        <ele>241.2</ele>
        <time>2016-12-28T14:10:21Z</time>
      </trkpt>
      <trkpt lat="43.6065" lon="3.39926">
        <ele>241.6</ele>
        <time>2016-12-28T14:10:24Z</time>
      </trkpt>
      <trkpt lat="43.60656" lon="3.3992">
        <ele>241.9</ele>
        <time>2016-12-28T14:10:27Z</time>
      </trkpt>
      <trkpt lat="43.60658" lon="3.39908">
        <ele>242.4</ele>
        <time>2016-12-28T14:10:31Z</time>
      </trkpt>
      <trkpt lat="43.60661" lon="3.39897">
        <ele>242.6</ele>
        <time>2016-12-28T14:10:34Z</time>
      </trkpt>
      <trkpt lat="43.60666" lon="3.39887">
        <ele>242.9</ele>
        <time>2016-12-28T14:10:37Z</time>
      </trkpt>
      <trkpt lat="43.60674" lon="3.3988">
        <ele>243.1</ele>
        <time>2016-12-28T14:10:41Z</time>
      </trkpt>
      <trkpt lat="43.60677" lon="3.39869">
        <ele>243.3</ele>
        <time>2016-12-28T14:10:45Z</time>
      </trkpt>
      <trkpt lat="43.6068" lon="3.39855">
        <ele>243.6</ele>
        <time>2016-12-28T14:10:49Z</time>
      </trkpt>
      <trkpt lat="43.60684" lon="3.39847">
        <ele>243.7</ele>
        <time>2016-12-28T14:10:51Z</time>
      </trkpt>
      <trkpt lat="43.6069" lon="3.39841">
        <ele>243.8</ele>
        <time>2016-12-28T14:10:53Z</time>
      </trkpt>
      <trkpt lat="43.60697" lon="3.39835">
        <ele>245.1</ele>
        <time>2016-12-28T14:10:55Z</time>
      </trkpt>
      <trkpt lat="43.60704" lon="3.3983">
        <ele>244.9</ele>
        <time>2016-12-28T14:10:57Z</time>
      </trkpt>
      <trkpt lat="43.60712" lon="3.3983">
        <ele>244.8</ele>
        <time>2016-12-28T14:10:59Z</time>
      </trkpt>
      <trkpt lat="43.60722" lon="3.39834">
        <ele>244.2</ele>
        <time>2016-12-28T14:11:01Z</time>
      </trkpt>
      <trkpt lat="43.6073" lon="3.39843">
        <ele>243.1</ele>
        <time>2016-12-28T14:11:03Z</time>
      </trkpt>
      <trkpt lat="43.60732" lon="3.39855">
        <ele>241.8</ele>
        <time>2016-12-28T14:11:05Z</time>
      </trkpt>
      <trkpt lat="43.60732" lon="3.39868">
        <ele>240.8</ele>
        <time>2016-12-28T14:11:07Z</time>
      </trkpt>
      <trkpt lat="43.60731" lon="3.3988">
        <ele>240</ele>
        <time>2016-12-28T14:11:09Z</time>
      </trkpt>
      <trkpt lat="43.60741" lon="3.39875">
        <ele>239.7</ele>
        <time>2016-12-28T14:11:16Z</time>
      </trkpt>
      <trkpt lat="43.60745" lon="3.39865">
        <ele>239.3</ele>
        <time>2016-12-28T14:11:18Z</time>
      </trkpt>
      <trkpt lat="43.60747" lon="3.39854">
        <ele>238.8</ele>
        <time>2016-12-28T14:11:20Z</time>
      </trkpt>
      <trkpt lat="43.60747" lon="3.39844">
        <ele>236.9</ele>
        <time>2016-12-28T14:11:22Z</time>
      </trkpt>
      <trkpt lat="43.60746" lon="3.3983">
        <ele>236.3</ele>
        <time>2016-12-28T14:11:24Z</time>
      </trkpt>
      <trkpt lat="43.60743" lon="3.39817">
        <ele>235.7</ele>
        <time>2016-12-28T14:11:26Z</time>
      </trkpt>
      <trkpt lat="43.60738" lon="3.39809">
        <ele>235.8</ele>
        <time>2016-12-28T14:11:28Z</time>
      </trkpt>
      <trkpt lat="43.60731" lon="3.39798">
        <ele>237.1</ele>
        <time>2016-12-28T14:11:30Z</time>
      </trkpt>
      <trkpt lat="43.60727" lon="3.39788">
        <ele>236.9</ele>
        <time>2016-12-28T14:11:32Z</time>
      </trkpt>
      <trkpt lat="43.60723" lon="3.39778">
        <ele>236.5</ele>
        <time>2016-12-28T14:11:34Z</time>
      </trkpt>
      <trkpt lat="43.60721" lon="3.39766">
        <ele>236.5</ele>
        <time>2016-12-28T14:11:36Z</time>
      </trkpt>
      <trkpt lat="43.6072" lon="3.39754">
        <ele>236.4</ele>
        <time>2016-12-28T14:11:38Z</time>
      </trkpt>
      <trkpt lat="43.60716" lon="3.39739">
        <ele>236.3</ele>
        <time>2016-12-28T14:11:40Z</time>
      </trkpt>
      <trkpt lat="43.60708" lon="3.39725">
        <ele>235.3</ele>
        <time>2016-12-28T14:11:42Z</time>
      </trkpt>
      <trkpt lat="43.60698" lon="3.3972">
        <ele>233</ele>
        <time>2016-12-28T14:11:44Z</time>
      </trkpt>
      <trkpt lat="43.6069" lon="3.39721">
        <ele>231.9</ele>
        <time>2016-12-28T14:11:47Z</time>
      </trkpt>
      <trkpt lat="43.6069" lon="3.3972">
        <ele>231.8</ele>
        <time>2016-12-28T14:11:54Z</time>
      </trkpt>
      <trkpt lat="43.60697" lon="3.39714">
        <ele>231.7</ele>
        <time>2016-12-28T14:11:59Z</time>
      </trkpt>
      <trkpt lat="43.60707" lon="3.39706">
        <ele>231.7</ele>
        <time>2016-12-28T14:12:02Z</time>
      </trkpt>
      <trkpt lat="43.60716" lon="3.39699">
        <ele>231.5</ele>
        <time>2016-12-28T14:12:05Z</time>
      </trkpt>
      <trkpt lat="43.60724" lon="3.39694">
        <ele>231.4</ele>
        <time>2016-12-28T14:12:07Z</time>
      </trkpt>
      <trkpt lat="43.60733" lon="3.3969">
        <ele>231.1</ele>
        <time>2016-12-28T14:12:10Z</time>
      </trkpt>
      <trkpt lat="43.60741" lon="3.3969">
        <ele>230.8</ele>
        <time>2016-12-28T14:12:12Z</time>
      </trkpt>
      <trkpt lat="43.60749" lon="3.39693">
        <ele>228.8</ele>
        <time>2016-12-28T14:12:14Z</time>
      </trkpt>
      <trkpt lat="43.60758" lon="3.39698">
        <ele>226.9</ele>
        <time>2016-12-28T14:12:16Z</time>
      </trkpt>
      <trkpt lat="43.60762" lon="3.39708">
        <ele>225.8</ele>
        <time>2016-12-28T14:12:18Z</time>
      </trkpt>
      <trkpt lat="43.60767" lon="3.39717">
        <ele>224.3</ele>
        <time>2016-12-28T14:12:20Z</time>
      </trkpt>
      <trkpt lat="43.60776" lon="3.3971">
        <ele>223.1</ele>
        <time>2016-12-28T14:12:23Z</time>
      </trkpt>
      <trkpt lat="43.6078" lon="3.39701">
        <ele>221.8</ele>
        <time>2016-12-28T14:12:25Z</time>
      </trkpt>
      <trkpt lat="43.60781" lon="3.3969">
        <ele>221.6</ele>
        <time>2016-12-28T14:12:27Z</time>
      </trkpt>
      <trkpt lat="43.60777" lon="3.3968">
        <ele>218.6</ele>
        <time>2016-12-28T14:12:29Z</time>
      </trkpt>
      <trkpt lat="43.6077" lon="3.39671">
        <ele>217</ele>
        <time>2016-12-28T14:12:31Z</time>
      </trkpt>
      <trkpt lat="43.60763" lon="3.39664">
        <ele>216.6</ele>
        <time>2016-12-28T14:12:33Z</time>
      </trkpt>
      <trkpt lat="43.6077" lon="3.39658">
        <ele>216.2</ele>
        <time>2016-12-28T14:12:37Z</time>
      </trkpt>
      <trkpt lat="43.60779" lon="3.3966">
        <ele>216</ele>
        <time>2016-12-28T14:12:40Z</time>
      </trkpt>
      <trkpt lat="43.60781" lon="3.39656">
        <ele>215.5</ele>
        <time>2016-12-28T14:12:47Z</time>
      </trkpt>
      <trkpt lat="43.60773" lon="3.39649">
        <ele>215</ele>
        <time>2016-12-28T14:12:51Z</time>
      </trkpt>
      <trkpt lat="43.60766" lon="3.39641">
        <ele>214.6</ele>
        <time>2016-12-28T14:12:54Z</time>
      </trkpt>
      <trkpt lat="43.6076" lon="3.39632">
        <ele>212.3</ele>
        <time>2016-12-28T14:12:56Z</time>
      </trkpt>
      <trkpt lat="43.60754" lon="3.39623">
        <ele>212</ele>
        <time>2016-12-28T14:12:58Z</time>
      </trkpt>
      <trkpt lat="43.60744" lon="3.39615">
        <ele>209.2</ele>
        <time>2016-12-28T14:13:00Z</time>
      </trkpt>
      <trkpt lat="43.60735" lon="3.39611">
        <ele>207.6</ele>
        <time>2016-12-28T14:13:02Z</time>
      </trkpt>
      <trkpt lat="43.60723" lon="3.39609">
        <ele>204.8</ele>
        <time>2016-12-28T14:13:04Z</time>
      </trkpt>
      <trkpt lat="43.60714" lon="3.39604">
        <ele>204.6</ele>
        <time>2016-12-28T14:13:06Z</time>
      </trkpt>
      <trkpt lat="43.60705" lon="3.39604">
        <ele>204.2</ele>
        <time>2016-12-28T14:13:13Z</time>
      </trkpt>
      <trkpt lat="43.60698" lon="3.39604">
        <ele>204.1</ele>
        <time>2016-12-28T14:13:16Z</time>
      </trkpt>
      <trkpt lat="43.60689" lon="3.39605">
        <ele>203.8</ele>
        <time>2016-12-28T14:13:20Z</time>
      </trkpt>
      <trkpt lat="43.60685" lon="3.39595">
        <ele>204</ele>
        <time>2016-12-28T14:13:25Z</time>
      </trkpt>
      <trkpt lat="43.60681" lon="3.39583">
        <ele>204.4</ele>
        <time>2016-12-28T14:13:29Z</time>
      </trkpt>
      <trkpt lat="43.60679" lon="3.3957">
        <ele>204.6</ele>
        <time>2016-12-28T14:13:33Z</time>
      </trkpt>
      <trkpt lat="43.60673" lon="3.39564">
        <ele>204.7</ele>
        <time>2016-12-28T14:13:36Z</time>
      </trkpt>
      <trkpt lat="43.60666" lon="3.39559">
        <ele>204.6</ele>
        <time>2016-12-28T14:13:39Z</time>
      </trkpt>
      <trkpt lat="43.60657" lon="3.39554">
        <ele>204.5</ele>
        <time>2016-12-28T14:13:43Z</time>
      </trkpt>
      <trkpt lat="43.6065" lon="3.3955">
        <ele>204.4</ele>
        <time>2016-12-28T14:13:46Z</time>
      </trkpt>
      <trkpt lat="43.60647" lon="3.3954">
        <ele>204.3</ele>
        <time>2016-12-28T14:13:50Z</time>
      </trkpt>
      <trkpt lat="43.60652" lon="3.39528">
        <ele>204.4</ele>
        <time>2016-12-28T14:13:55Z</time>
      </trkpt>
      <trkpt lat="43.60656" lon="3.39521">
        <ele>204.5</ele>
        <time>2016-12-28T14:13:59Z</time>
      </trkpt>
      <trkpt lat="43.60664" lon="3.39516">
        <ele>204.4</ele>
        <time>2016-12-28T14:14:03Z</time>
      </trkpt>
      <trkpt lat="43.60672" lon="3.39512">
        <ele>204.9</ele>
        <time>2016-12-28T14:14:08Z</time>
      </trkpt>
      <trkpt lat="43.6068" lon="3.39509">
        <ele>205.6</ele>
        <time>2016-12-28T14:14:13Z</time>
      </trkpt>
      <trkpt lat="43.60688" lon="3.39504">
        <ele>206.2</ele>
        <time>2016-12-28T14:14:18Z</time>
      </trkpt>
      <trkpt lat="43.60695" lon="3.39499">
        <ele>206.8</ele>
        <time>2016-12-28T14:14:23Z</time>
      </trkpt>
      <trkpt lat="43.60702" lon="3.39496">
        <ele>207.2</ele>
        <time>2016-12-28T14:14:27Z</time>
      </trkpt>
      <trkpt lat="43.6071" lon="3.39494">
        <ele>208.4</ele>
        <time>2016-12-28T14:14:34Z</time>
      </trkpt>
      <trkpt lat="43.60717" lon="3.3949">
        <ele>209.4</ele>
        <time>2016-12-28T14:14:39Z</time>
      </trkpt>
      <trkpt lat="43.60725" lon="3.39488">
        <ele>210.1</ele>
        <time>2016-12-28T14:14:43Z</time>
      </trkpt>
      <trkpt lat="43.60731" lon="3.39483">
        <ele>211.1</ele>
        <time>2016-12-28T14:14:48Z</time>
      </trkpt>
      <trkpt lat="43.60738" lon="3.39477">
        <ele>212</ele>
        <time>2016-12-28T14:14:52Z</time>
      </trkpt>
      <trkpt lat="43.60745" lon="3.39471">
        <ele>212.6</ele>
        <time>2016-12-28T14:14:56Z</time>
      </trkpt>
      <trkpt lat="43.60751" lon="3.39464">
        <ele>213.5</ele>
        <time>2016-12-28T14:15:00Z</time>
      </trkpt>
      <trkpt lat="43.60756" lon="3.39456">
        <ele>214.5</ele>
        <time>2016-12-28T14:15:07Z</time>
      </trkpt>
      <trkpt lat="43.60761" lon="3.39446">
        <ele>215.2</ele>
        <time>2016-12-28T14:15:12Z</time>
      </trkpt>
      <trkpt lat="43.60763" lon="3.39436">
        <ele>216.3</ele>
        <time>2016-12-28T14:15:17Z</time>
      </trkpt>
      <trkpt lat="43.60761" lon="3.39426">
        <ele>218.1</ele>
        <time>2016-12-28T14:15:23Z</time>
      </trkpt>
      <trkpt lat="43.60759" lon="3.39416">
        <ele>219.8</ele>
        <time>2016-12-28T14:15:28Z</time>
      </trkpt>
      <trkpt lat="43.60757" lon="3.39405">
        <ele>221.3</ele>
        <time>2016-12-28T14:15:33Z</time>
      </trkpt>
      <trkpt lat="43.60755" lon="3.39396">
        <ele>222.4</ele>
        <time>2016-12-28T14:15:37Z</time>
      </trkpt>
      <trkpt lat="43.60751" lon="3.39386">
        <ele>223.6</ele>
        <time>2016-12-28T14:15:42Z</time>
      </trkpt>
      <trkpt lat="43.60747" lon="3.39376">
        <ele>224.3</ele>
        <time>2016-12-28T14:15:46Z</time>
      </trkpt>
      <trkpt lat="43.60743" lon="3.39368">
        <ele>224.7</ele>
        <time>2016-12-28T14:15:50Z</time>
      </trkpt>
      <trkpt lat="43.60739" lon="3.39358">
        <ele>225</ele>
        <time>2016-12-28T14:15:54Z</time>
      </trkpt>
      <trkpt lat="43.60734" lon="3.39348">
        <ele>225.4</ele>
        <time>2016-12-28T14:15:58Z</time>
      </trkpt>
      <trkpt lat="43.6073" lon="3.39337">
        <ele>226.1</ele>
        <time>2016-12-28T14:16:03Z</time>
      </trkpt>
      <trkpt lat="43.60726" lon="3.39327">
        <ele>226.9</ele>
        <time>2016-12-28T14:16:08Z</time>
      </trkpt>
      <trkpt lat="43.60724" lon="3.39316">
        <ele>227.4</ele>
        <time>2016-12-28T14:16:13Z</time>
      </trkpt>
      <trkpt lat="43.60721" lon="3.39306">
        <ele>227.8</ele>
        <time>2016-12-28T14:16:16Z</time>
      </trkpt>
      <trkpt lat="43.60719" lon="3.39294">
        <ele>228.3</ele>
        <time>2016-12-28T14:16:20Z</time>
      </trkpt>
      <trkpt lat="43.60717" lon="3.39285">
        <ele>228.8</ele>
        <time>2016-12-28T14:16:25Z</time>
      </trkpt>
      <trkpt lat="43.60715" lon="3.39274">
        <ele>229.2</ele>
        <time>2016-12-28T14:16:29Z</time>
      </trkpt>
      <trkpt lat="43.60712" lon="3.39262">
        <ele>229.7</ele>
        <time>2016-12-28T14:16:33Z</time>
      </trkpt>
      <trkpt lat="43.6071" lon="3.39251">
        <ele>230.3</ele>
        <time>2016-12-28T14:16:37Z</time>
      </trkpt>
      <trkpt lat="43.60708" lon="3.3924">
        <ele>231</ele>
        <time>2016-12-28T14:16:42Z</time>
      </trkpt>
      <trkpt lat="43.60707" lon="3.39228">
        <ele>231.5</ele>
        <time>2016-12-28T14:16:46Z</time>
      </trkpt>
      <trkpt lat="43.60705" lon="3.39215">
        <ele>232</ele>
        <time>2016-12-28T14:16:50Z</time>
      </trkpt>
      <trkpt lat="43.60701" lon="3.39205">
        <ele>232.4</ele>
        <time>2016-12-28T14:16:54Z</time>
      </trkpt>
      <trkpt lat="43.60697" lon="3.39196">
        <ele>232.9</ele>
        <time>2016-12-28T14:16:58Z</time>
      </trkpt>
      <trkpt lat="43.60694" lon="3.39185">
        <ele>233.5</ele>
        <time>2016-12-28T14:17:02Z</time>
      </trkpt>
      <trkpt lat="43.6069" lon="3.39175">
        <ele>234.2</ele>
        <time>2016-12-28T14:17:06Z</time>
      </trkpt>
      <trkpt lat="43.60689" lon="3.39163">
        <ele>235</ele>
        <time>2016-12-28T14:17:11Z</time>
      </trkpt>
      <trkpt lat="43.60687" lon="3.39154">
        <ele>235.7</ele>
        <time>2016-12-28T14:17:15Z</time>
      </trkpt>
      <trkpt lat="43.60682" lon="3.39144">
        <ele>236.4</ele>
        <time>2016-12-28T14:17:20Z</time>
      </trkpt>
      <trkpt lat="43.60674" lon="3.39145">
        <ele>237.7</ele>
        <time>2016-12-28T14:17:26Z</time>
      </trkpt>
      <trkpt lat="43.60667" lon="3.39149">
        <ele>238.8</ele>
        <time>2016-12-28T14:17:31Z</time>
      </trkpt>
      <trkpt lat="43.6066" lon="3.39152">
        <ele>239.7</ele>
        <time>2016-12-28T14:17:35Z</time>
      </trkpt>
      <trkpt lat="43.60652" lon="3.39152">
        <ele>240.5</ele>
        <time>2016-12-28T14:17:39Z</time>
      </trkpt>
      <trkpt lat="43.60645" lon="3.3915">
        <ele>241.4</ele>
        <time>2016-12-28T14:17:43Z</time>
      </trkpt>
      <trkpt lat="43.60637" lon="3.39146">
        <ele>242.2</ele>
        <time>2016-12-28T14:17:47Z</time>
      </trkpt>
      <trkpt lat="43.60631" lon="3.39141">
        <ele>243.3</ele>
        <time>2016-12-28T14:17:51Z</time>
      </trkpt>
      <trkpt lat="43.60624" lon="3.39135">
        <ele>244.3</ele>
        <time>2016-12-28T14:17:55Z</time>
      </trkpt>
      <trkpt lat="43.60618" lon="3.39128">
        <ele>245.1</ele>
        <time>2016-12-28T14:17:59Z</time>
      </trkpt>
      <trkpt lat="43.60611" lon="3.3912">
        <ele>245.8</ele>
        <time>2016-12-28T14:18:03Z</time>
      </trkpt>
      <trkpt lat="43.60606" lon="3.39112">
        <ele>246.3</ele>
        <time>2016-12-28T14:18:07Z</time>
      </trkpt>
      <trkpt lat="43.60601" lon="3.39102">
        <ele>246.7</ele>
        <time>2016-12-28T14:18:11Z</time>
      </trkpt>
      <trkpt lat="43.60596" lon="3.3909">
        <ele>247.2</ele>
        <time>2016-12-28T14:18:15Z</time>
      </trkpt>
      <trkpt lat="43.60592" lon="3.39078">
        <ele>247.7</ele>
        <time>2016-12-28T14:18:19Z</time>
      </trkpt>
      <trkpt lat="43.6059" lon="3.39068">
        <ele>248.1</ele>
        <time>2016-12-28T14:18:22Z</time>
      </trkpt>
      <trkpt lat="43.60588" lon="3.39058">
        <ele>248.7</ele>
        <time>2016-12-28T14:18:26Z</time>
      </trkpt>
      <trkpt lat="43.60586" lon="3.39046">
        <ele>249.2</ele>
        <time>2016-12-28T14:18:30Z</time>
      </trkpt>
      <trkpt lat="43.60585" lon="3.39033">
        <ele>249.9</ele>
        <time>2016-12-28T14:18:34Z</time>
      </trkpt>
      <trkpt lat="43.60584" lon="3.39023">
        <ele>250.3</ele>
        <time>2016-12-28T14:18:37Z</time>
      </trkpt>
      <trkpt lat="43.60583" lon="3.3901">
        <ele>250.9</ele>
        <time>2016-12-28T14:18:41Z</time>
      </trkpt>
      <trkpt lat="43.60582" lon="3.38998">
        <ele>251.4</ele>
        <time>2016-12-28T14:18:45Z</time>
      </trkpt>
      <trkpt lat="43.6058" lon="3.38984">
        <ele>252</ele>
        <time>2016-12-28T14:18:49Z</time>
      </trkpt>
      <trkpt lat="43.60581" lon="3.38973">
        <ele>252.6</ele>
        <time>2016-12-28T14:18:52Z</time>
      </trkpt>
      <trkpt lat="43.60581" lon="3.3896">
        <ele>253.5</ele>
        <time>2016-12-28T14:18:56Z</time>
      </trkpt>
      <trkpt lat="43.60581" lon="3.38947">
        <ele>254.5</ele>
        <time>2016-12-28T14:19:00Z</time>
      </trkpt>
      <trkpt lat="43.60582" lon="3.38937">
        <ele>255.5</ele>
        <time>2016-12-28T14:19:04Z</time>
      </trkpt>
      <trkpt lat="43.60583" lon="3.38925">
        <ele>256.5</ele>
        <time>2016-12-28T14:19:08Z</time>
      </trkpt>
      <trkpt lat="43.60583" lon="3.38913">
        <ele>257.4</ele>
        <time>2016-12-28T14:19:12Z</time>
      </trkpt>
      <trkpt lat="43.60582" lon="3.38901">
        <ele>258.2</ele>
        <time>2016-12-28T14:19:16Z</time>
      </trkpt>
      <trkpt lat="43.6058" lon="3.38889">
        <ele>259.2</ele>
        <time>2016-12-28T14:19:20Z</time>
      </trkpt>
      <trkpt lat="43.6058" lon="3.38876">
        <ele>259.9</ele>
        <time>2016-12-28T14:19:24Z</time>
      </trkpt>
      <trkpt lat="43.60576" lon="3.38865">
        <ele>260.5</ele>
        <time>2016-12-28T14:19:28Z</time>
      </trkpt>
      <trkpt lat="43.60571" lon="3.38858">
        <ele>261</ele>
        <time>2016-12-28T14:19:31Z</time>
      </trkpt>
      <trkpt lat="43.60562" lon="3.38857">
        <ele>261.6</ele>
        <time>2016-12-28T14:19:34Z</time>
      </trkpt>
      <trkpt lat="43.60554" lon="3.38857">
        <ele>262.1</ele>
        <time>2016-12-28T14:19:37Z</time>
      </trkpt>
      <trkpt lat="43.60544" lon="3.38855">
        <ele>262.6</ele>
        <time>2016-12-28T14:19:40Z</time>
      </trkpt>
      <trkpt lat="43.60535" lon="3.38852">
        <ele>263</ele>
        <time>2016-12-28T14:19:43Z</time>
      </trkpt>
      <trkpt lat="43.60527" lon="3.38847">
        <ele>263.5</ele>
        <time>2016-12-28T14:19:47Z</time>
      </trkpt>
      <trkpt lat="43.60521" lon="3.38841">
        <ele>264.2</ele>
        <time>2016-12-28T14:19:51Z</time>
      </trkpt>
      <trkpt lat="43.60516" lon="3.38831">
        <ele>264.8</ele>
        <time>2016-12-28T14:19:55Z</time>
      </trkpt>
      <trkpt lat="43.60514" lon="3.38821">
        <ele>265.2</ele>
        <time>2016-12-28T14:19:58Z</time>
      </trkpt>
      <trkpt lat="43.60512" lon="3.38809">
        <ele>265.6</ele>
        <time>2016-12-28T14:20:01Z</time>
      </trkpt>
      <trkpt lat="43.60511" lon="3.38799">
        <ele>265.9</ele>
        <time>2016-12-28T14:20:04Z</time>
      </trkpt>
      <trkpt lat="43.60513" lon="3.38788">
        <ele>266.2</ele>
        <time>2016-12-28T14:20:07Z</time>
      </trkpt>
      <trkpt lat="43.60516" lon="3.38778">
        <ele>266.6</ele>
        <time>2016-12-28T14:20:10Z</time>
      </trkpt>
      <trkpt lat="43.60518" lon="3.38768">
        <ele>267</ele>
        <time>2016-12-28T14:20:13Z</time>
      </trkpt>
      <trkpt lat="43.60519" lon="3.38757">
        <ele>267.4</ele>
        <time>2016-12-28T14:20:16Z</time>
      </trkpt>
      <trkpt lat="43.60517" lon="3.38745">
        <ele>267.7</ele>
        <time>2016-12-28T14:20:19Z</time>
      </trkpt>
      <trkpt lat="43.60511" lon="3.38735">
        <ele>268.2</ele>
        <time>2016-12-28T14:20:22Z</time>
      </trkpt>
      <trkpt lat="43.60507" lon="3.38727">
        <ele>268.7</ele>
        <time>2016-12-28T14:20:25Z</time>
      </trkpt>
      <trkpt lat="43.60501" lon="3.38716">
        <ele>269.2</ele>
        <time>2016-12-28T14:20:28Z</time>
      </trkpt>
      <trkpt lat="43.60495" lon="3.38707">
        <ele>269.6</ele>
        <time>2016-12-28T14:20:31Z</time>
      </trkpt>
      <trkpt lat="43.6049" lon="3.38699">
        <ele>269.8</ele>
        <time>2016-12-28T14:20:34Z</time>
      </trkpt>
      <trkpt lat="43.60485" lon="3.3869">
        <ele>269.9</ele>
        <time>2016-12-28T14:20:37Z</time>
      </trkpt>
      <trkpt lat="43.60479" lon="3.38681">
        <ele>269.9</ele>
        <time>2016-12-28T14:20:40Z</time>
      </trkpt>
      <trkpt lat="43.60473" lon="3.38671">
        <ele>270.1</ele>
        <time>2016-12-28T14:20:43Z</time>
      </trkpt>
      <trkpt lat="43.60469" lon="3.38662">
        <ele>270.3</ele>
        <time>2016-12-28T14:20:46Z</time>
      </trkpt>
      <trkpt lat="43.60464" lon="3.38653">
        <ele>270.5</ele>
        <time>2016-12-28T14:20:49Z</time>
      </trkpt>
      <trkpt lat="43.60459" lon="3.38644">
        <ele>270.6</ele>
        <time>2016-12-28T14:20:52Z</time>
      </trkpt>
      <trkpt lat="43.60455" lon="3.38635">
        <ele>270.8</ele>
        <time>2016-12-28T14:20:55Z</time>
      </trkpt>
      <trkpt lat="43.6045" lon="3.38626">
        <ele>271</ele>
        <time>2016-12-28T14:20:58Z</time>
      </trkpt>
      <trkpt lat="43.60446" lon="3.38617">
        <ele>271.3</ele>
        <time>2016-12-28T14:21:01Z</time>
      </trkpt>
      <trkpt lat="43.60442" lon="3.38607">
        <ele>271.8</ele>
        <time>2016-12-28T14:21:04Z</time>
      </trkpt>
      <trkpt lat="43.60439" lon="3.38597">
        <ele>272.2</ele>
        <time>2016-12-28T14:21:07Z</time>
      </trkpt>
      <trkpt lat="43.60435" lon="3.38586">
        <ele>272.5</ele>
        <time>2016-12-28T14:21:10Z</time>
      </trkpt>
      <trkpt lat="43.60431" lon="3.38574">
        <ele>272.7</ele>
        <time>2016-12-28T14:21:13Z</time>
      </trkpt>
      <trkpt lat="43.60427" lon="3.38562">
        <ele>273.2</ele>
        <time>2016-12-28T14:21:16Z</time>
      </trkpt>
      <trkpt lat="43.60424" lon="3.38553">
        <ele>273.6</ele>
        <time>2016-12-28T14:21:19Z</time>
      </trkpt>
      <trkpt lat="43.60421" lon="3.38542">
        <ele>274</ele>
        <time>2016-12-28T14:21:22Z</time>
      </trkpt>
      <trkpt lat="43.60417" lon="3.3853">
        <ele>274.3</ele>
        <time>2016-12-28T14:21:25Z</time>
      </trkpt>
      <trkpt lat="43.60414" lon="3.3852">
        <ele>274.6</ele>
        <time>2016-12-28T14:21:28Z</time>
      </trkpt>
      <trkpt lat="43.60411" lon="3.38509">
        <ele>274.8</ele>
        <time>2016-12-28T14:21:31Z</time>
      </trkpt>
      <trkpt lat="43.60408" lon="3.38498">
        <ele>275.2</ele>
        <time>2016-12-28T14:21:34Z</time>
      </trkpt>
      <trkpt lat="43.60405" lon="3.38488">
        <ele>275.4</ele>
        <time>2016-12-28T14:21:37Z</time>
      </trkpt>
      <trkpt lat="43.60402" lon="3.38476">
        <ele>275.6</ele>
        <time>2016-12-28T14:21:40Z</time>
      </trkpt>
      <trkpt lat="43.60399" lon="3.38464">
        <ele>275.8</ele>
        <time>2016-12-28T14:21:43Z</time>
      </trkpt>
      <trkpt lat="43.60397" lon="3.38451">
        <ele>276</ele>
        <time>2016-12-28T14:21:46Z</time>
      </trkpt>
      <trkpt lat="43.60395" lon="3.38439">
        <ele>276.3</ele>
        <time>2016-12-28T14:21:49Z</time>
      </trkpt>
      <trkpt lat="43.60393" lon="3.38427">
        <ele>276.5</ele>
        <time>2016-12-28T14:21:52Z</time>
      </trkpt>
      <trkpt lat="43.6039" lon="3.38413">
        <ele>276.6</ele>
        <time>2016-12-28T14:21:55Z</time>
      </trkpt>
      <trkpt lat="43.60388" lon="3.38403">
        <ele>276.7</ele>
        <time>2016-12-28T14:21:57Z</time>
      </trkpt>
      <trkpt lat="43.60386" lon="3.38394">
        <ele>276.7</ele>
        <time>2016-12-28T14:21:59Z</time>
      </trkpt>
      <trkpt lat="43.60384" lon="3.38382">
        <ele>276.6</ele>
        <time>2016-12-28T14:22:02Z</time>
      </trkpt>
      <trkpt lat="43.60382" lon="3.3837">
        <ele>276.5</ele>
        <time>2016-12-28T14:22:05Z</time>
      </trkpt>
      <trkpt lat="43.60381" lon="3.38358">
        <ele>276.5</ele>
        <time>2016-12-28T14:22:08Z</time>
      </trkpt>
      <trkpt lat="43.6038" lon="3.38345">
        <ele>276.5</ele>
        <time>2016-12-28T14:22:11Z</time>
      </trkpt>
      <trkpt lat="43.6038" lon="3.38332">
        <ele>276.7</ele>
        <time>2016-12-28T14:22:14Z</time>
      </trkpt>
      <trkpt lat="43.60381" lon="3.3832">
        <ele>276.9</ele>
        <time>2016-12-28T14:22:17Z</time>
      </trkpt>
      <trkpt lat="43.60381" lon="3.38308">
        <ele>277.3</ele>
        <time>2016-12-28T14:22:20Z</time>
      </trkpt>
      <trkpt lat="43.60381" lon="3.38294">
        <ele>277.8</ele>
        <time>2016-12-28T14:22:23Z</time>
      </trkpt>
      <trkpt lat="43.60381" lon="3.38284">
        <ele>278</ele>
        <time>2016-12-28T14:22:25Z</time>
      </trkpt>
      <trkpt lat="43.60381" lon="3.3827">
        <ele>278.4</ele>
        <time>2016-12-28T14:22:28Z</time>
      </trkpt>
      <trkpt lat="43.60381" lon="3.38257">
        <ele>278.9</ele>
        <time>2016-12-28T14:22:31Z</time>
      </trkpt>
      <trkpt lat="43.60381" lon="3.38245">
        <ele>279.3</ele>
        <time>2016-12-28T14:22:34Z</time>
      </trkpt>
      <trkpt lat="43.60381" lon="3.38233">
        <ele>279.7</ele>
        <time>2016-12-28T14:22:37Z</time>
      </trkpt>
      <trkpt lat="43.6038" lon="3.38219">
        <ele>280.1</ele>
        <time>2016-12-28T14:22:40Z</time>
      </trkpt>
      <trkpt lat="43.60379" lon="3.38208">
        <ele>280.5</ele>
        <time>2016-12-28T14:22:43Z</time>
      </trkpt>
      <trkpt lat="43.60378" lon="3.38194">
        <ele>280.9</ele>
        <time>2016-12-28T14:22:46Z</time>
      </trkpt>
      <trkpt lat="43.60376" lon="3.38182">
        <ele>281.3</ele>
        <time>2016-12-28T14:22:49Z</time>
      </trkpt>
      <trkpt lat="43.60375" lon="3.38169">
        <ele>281.7</ele>
        <time>2016-12-28T14:22:52Z</time>
      </trkpt>
      <trkpt lat="43.60375" lon="3.38155">
        <ele>282.1</ele>
        <time>2016-12-28T14:22:55Z</time>
      </trkpt>
      <trkpt lat="43.60375" lon="3.38141">
        <ele>282.5</ele>
        <time>2016-12-28T14:22:58Z</time>
      </trkpt>
      <trkpt lat="43.60374" lon="3.3813">
        <ele>282.9</ele>
        <time>2016-12-28T14:23:01Z</time>
      </trkpt>
      <trkpt lat="43.60374" lon="3.38118">
        <ele>283.2</ele>
        <time>2016-12-28T14:23:04Z</time>
      </trkpt>
      <trkpt lat="43.60373" lon="3.38106">
        <ele>283.6</ele>
        <time>2016-12-28T14:23:07Z</time>
      </trkpt>
      <trkpt lat="43.60372" lon="3.38093">
        <ele>283.9</ele>
        <time>2016-12-28T14:23:10Z</time>
      </trkpt>
      <trkpt lat="43.60371" lon="3.38078">
        <ele>284.1</ele>
        <time>2016-12-28T14:23:13Z</time>
      </trkpt>
      <trkpt lat="43.60369" lon="3.38065">
        <ele>284.5</ele>
        <time>2016-12-28T14:23:16Z</time>
      </trkpt>
      <trkpt lat="43.60368" lon="3.38053">
        <ele>284.8</ele>
        <time>2016-12-28T14:23:19Z</time>
      </trkpt>
      <trkpt lat="43.60367" lon="3.38041">
        <ele>285.1</ele>
        <time>2016-12-28T14:23:22Z</time>
      </trkpt>
      <trkpt lat="43.60365" lon="3.38027">
        <ele>285.5</ele>
        <time>2016-12-28T14:23:25Z</time>
      </trkpt>
      <trkpt lat="43.60364" lon="3.38015">
        <ele>285.9</ele>
        <time>2016-12-28T14:23:28Z</time>
      </trkpt>
      <trkpt lat="43.60363" lon="3.38003">
        <ele>286.4</ele>
        <time>2016-12-28T14:23:31Z</time>
      </trkpt>
      <trkpt lat="43.60361" lon="3.37991">
        <ele>286.8</ele>
        <time>2016-12-28T14:23:34Z</time>
      </trkpt>
      <trkpt lat="43.60361" lon="3.37978">
        <ele>287.3</ele>
        <time>2016-12-28T14:23:38Z</time>
      </trkpt>
      <trkpt lat="43.6036" lon="3.37967">
        <ele>287.5</ele>
        <time>2016-12-28T14:23:40Z</time>
      </trkpt>
      <trkpt lat="43.60359" lon="3.37955">
        <ele>287.8</ele>
        <time>2016-12-28T14:23:43Z</time>
      </trkpt>
      <trkpt lat="43.60358" lon="3.37943">
        <ele>288.1</ele>
        <time>2016-12-28T14:23:46Z</time>
      </trkpt>
      <trkpt lat="43.60358" lon="3.37933">
        <ele>288.4</ele>
        <time>2016-12-28T14:23:49Z</time>
      </trkpt>
      <trkpt lat="43.60358" lon="3.37922">
        <ele>288.7</ele>
        <time>2016-12-28T14:23:52Z</time>
      </trkpt>
      <trkpt lat="43.60357" lon="3.37912">
        <ele>289.1</ele>
        <time>2016-12-28T14:23:55Z</time>
      </trkpt>
      <trkpt lat="43.60357" lon="3.37901">
        <ele>289.5</ele>
        <time>2016-12-28T14:23:58Z</time>
      </trkpt>
      <trkpt lat="43.60356" lon="3.37891">
        <ele>289.8</ele>
        <time>2016-12-28T14:24:01Z</time>
      </trkpt>
      <trkpt lat="43.60355" lon="3.37879">
        <ele>290.3</ele>
        <time>2016-12-28T14:24:04Z</time>
      </trkpt>
      <trkpt lat="43.60354" lon="3.37867">
        <ele>290.7</ele>
        <time>2016-12-28T14:24:07Z</time>
      </trkpt>
      <trkpt lat="43.60352" lon="3.37854">
        <ele>291.1</ele>
        <time>2016-12-28T14:24:10Z</time>
      </trkpt>
      <trkpt lat="43.6035" lon="3.37844">
        <ele>291.4</ele>
        <time>2016-12-28T14:24:13Z</time>
      </trkpt>
      <trkpt lat="43.60346" lon="3.37831">
        <ele>291.6</ele>
        <time>2016-12-28T14:24:16Z</time>
      </trkpt>
      <trkpt lat="43.60343" lon="3.3782">
        <ele>291.7</ele>
        <time>2016-12-28T14:24:19Z</time>
      </trkpt>
      <trkpt lat="43.6034" lon="3.37809">
        <ele>291.7</ele>
        <time>2016-12-28T14:24:22Z</time>
      </trkpt>
      <trkpt lat="43.60336" lon="3.37796">
        <ele>291.7</ele>
        <time>2016-12-28T14:24:25Z</time>
      </trkpt>
      <trkpt lat="43.60332" lon="3.37785">
        <ele>291.8</ele>
        <time>2016-12-28T14:24:28Z</time>
      </trkpt>
      <trkpt lat="43.60329" lon="3.37775">
        <ele>291.8</ele>
        <time>2016-12-28T14:24:31Z</time>
      </trkpt>
      <trkpt lat="43.60325" lon="3.37763">
        <ele>292</ele>
        <time>2016-12-28T14:24:34Z</time>
      </trkpt>
      <trkpt lat="43.60322" lon="3.37752">
        <ele>292.2</ele>
        <time>2016-12-28T14:24:37Z</time>
      </trkpt>
      <trkpt lat="43.6032" lon="3.3774">
        <ele>292.3</ele>
        <time>2016-12-28T14:24:40Z</time>
      </trkpt>
      <trkpt lat="43.60319" lon="3.3773">
        <ele>292.3</ele>
        <time>2016-12-28T14:24:43Z</time>
      </trkpt>
      <trkpt lat="43.60318" lon="3.3772">
        <ele>292.5</ele>
        <time>2016-12-28T14:24:45Z</time>
      </trkpt>
      <trkpt lat="43.6032" lon="3.37709">
        <ele>292.8</ele>
        <time>2016-12-28T14:24:48Z</time>
      </trkpt>
      <trkpt lat="43.60321" lon="3.37698">
        <ele>293.1</ele>
        <time>2016-12-28T14:24:51Z</time>
      </trkpt>
      <trkpt lat="43.60323" lon="3.37686">
        <ele>293.5</ele>
        <time>2016-12-28T14:24:54Z</time>
      </trkpt>
      <trkpt lat="43.60326" lon="3.37674">
        <ele>294.1</ele>
        <time>2016-12-28T14:24:57Z</time>
      </trkpt>
      <trkpt lat="43.60328" lon="3.37661">
        <ele>294.6</ele>
        <time>2016-12-28T14:25:00Z</time>
      </trkpt>
      <trkpt lat="43.60329" lon="3.37648">
        <ele>295.1</ele>
        <time>2016-12-28T14:25:03Z</time>
      </trkpt>
      <trkpt lat="43.6033" lon="3.37636">
        <ele>295.5</ele>
        <time>2016-12-28T14:25:06Z</time>
      </trkpt>
      <trkpt lat="43.60332" lon="3.37623">
        <ele>296</ele>
        <time>2016-12-28T14:25:09Z</time>
      </trkpt>
      <trkpt lat="43.60333" lon="3.3761">
        <ele>296.5</ele>
        <time>2016-12-28T14:25:12Z</time>
      </trkpt>
      <trkpt lat="43.60332" lon="3.37596">
        <ele>297.1</ele>
        <time>2016-12-28T14:25:15Z</time>
      </trkpt>
      <trkpt lat="43.60332" lon="3.37585">
        <ele>297.7</ele>
        <time>2016-12-28T14:25:18Z</time>
      </trkpt>
      <trkpt lat="43.60332" lon="3.37572">
        <ele>298.3</ele>
        <time>2016-12-28T14:25:21Z</time>
      </trkpt>
      <trkpt lat="43.60331" lon="3.3756">
        <ele>298.8</ele>
        <time>2016-12-28T14:25:24Z</time>
      </trkpt>
      <trkpt lat="43.60331" lon="3.37548">
        <ele>299.3</ele>
        <time>2016-12-28T14:25:27Z</time>
      </trkpt>
      <trkpt lat="43.60332" lon="3.37536">
        <ele>299.8</ele>
        <time>2016-12-28T14:25:30Z</time>
      </trkpt>
      <trkpt lat="43.60332" lon="3.37525">
        <ele>300.3</ele>
        <time>2016-12-28T14:25:33Z</time>
      </trkpt>
      <trkpt lat="43.60333" lon="3.37514">
        <ele>300.7</ele>
        <time>2016-12-28T14:25:36Z</time>
      </trkpt>
      <trkpt lat="43.60333" lon="3.37504">
        <ele>301.1</ele>
        <time>2016-12-28T14:25:39Z</time>
      </trkpt>
      <trkpt lat="43.60335" lon="3.37493">
        <ele>301.5</ele>
        <time>2016-12-28T14:25:42Z</time>
      </trkpt>
      <trkpt lat="43.60336" lon="3.37483">
        <ele>301.8</ele>
        <time>2016-12-28T14:25:45Z</time>
      </trkpt>
      <trkpt lat="43.60338" lon="3.37472">
        <ele>302.2</ele>
        <time>2016-12-28T14:25:48Z</time>
      </trkpt>
      <trkpt lat="43.60339" lon="3.37462">
        <ele>302.6</ele>
        <time>2016-12-28T14:25:51Z</time>
      </trkpt>
      <trkpt lat="43.6034" lon="3.37451">
        <ele>303.1</ele>
        <time>2016-12-28T14:25:54Z</time>
      </trkpt>
      <trkpt lat="43.6034" lon="3.37441">
        <ele>303.7</ele>
        <time>2016-12-28T14:25:57Z</time>
      </trkpt>
      <trkpt lat="43.60341" lon="3.37429">
        <ele>304.1</ele>
        <time>2016-12-28T14:26:00Z</time>
      </trkpt>
      <trkpt lat="43.6034" lon="3.37417">
        <ele>304.5</ele>
        <time>2016-12-28T14:26:03Z</time>
      </trkpt>
      <trkpt lat="43.6034" lon="3.37405">
        <ele>305</ele>
        <time>2016-12-28T14:26:06Z</time>
      </trkpt>
      <trkpt lat="43.60339" lon="3.37393">
        <ele>305.4</ele>
        <time>2016-12-28T14:26:09Z</time>
      </trkpt>
      <trkpt lat="43.60339" lon="3.37379">
        <ele>305.8</ele>
        <time>2016-12-28T14:26:12Z</time>
      </trkpt>
      <trkpt lat="43.60339" lon="3.37366">
        <ele>306.1</ele>
        <time>2016-12-28T14:26:15Z</time>
      </trkpt>
      <trkpt lat="43.6034" lon="3.37355">
        <ele>306.3</ele>
        <time>2016-12-28T14:26:18Z</time>
      </trkpt>
      <trkpt lat="43.6034" lon="3.37343">
        <ele>306.6</ele>
        <time>2016-12-28T14:26:21Z</time>
      </trkpt>
      <trkpt lat="43.60342" lon="3.37331">
        <ele>307</ele>
        <time>2016-12-28T14:26:24Z</time>
      </trkpt>
      <trkpt lat="43.60343" lon="3.37319">
        <ele>307.3</ele>
        <time>2016-12-28T14:26:27Z</time>
      </trkpt>
      <trkpt lat="43.60346" lon="3.37307">
        <ele>307.7</ele>
        <time>2016-12-28T14:26:30Z</time>
      </trkpt>
      <trkpt lat="43.60349" lon="3.37295">
        <ele>308</ele>
        <time>2016-12-28T14:26:33Z</time>
      </trkpt>
      <trkpt lat="43.60352" lon="3.37283">
        <ele>308.4</ele>
        <time>2016-12-28T14:26:36Z</time>
      </trkpt>
      <trkpt lat="43.60356" lon="3.37272">
        <ele>308.7</ele>
        <time>2016-12-28T14:26:39Z</time>
      </trkpt>
      <trkpt lat="43.60359" lon="3.3726">
        <ele>309</ele>
        <time>2016-12-28T14:26:42Z</time>
      </trkpt>
      <trkpt lat="43.60362" lon="3.37247">
        <ele>309.3</ele>
        <time>2016-12-28T14:26:45Z</time>
      </trkpt>
      <trkpt lat="43.60365" lon="3.37234">
        <ele>309.6</ele>
        <time>2016-12-28T14:26:48Z</time>
      </trkpt>
      <trkpt lat="43.60368" lon="3.37221">
        <ele>309.9</ele>
        <time>2016-12-28T14:26:51Z</time>
      </trkpt>
      <trkpt lat="43.6037" lon="3.3721">
        <ele>310.2</ele>
        <time>2016-12-28T14:26:54Z</time>
      </trkpt>
      <trkpt lat="43.60372" lon="3.37198">
        <ele>310.4</ele>
        <time>2016-12-28T14:26:57Z</time>
      </trkpt>
      <trkpt lat="43.60375" lon="3.37185">
        <ele>310.6</ele>
        <time>2016-12-28T14:27:00Z</time>
      </trkpt>
      <trkpt lat="43.60377" lon="3.37173">
        <ele>310.9</ele>
        <time>2016-12-28T14:27:03Z</time>
      </trkpt>
      <trkpt lat="43.60378" lon="3.37159">
        <ele>311.1</ele>
        <time>2016-12-28T14:27:06Z</time>
      </trkpt>
      <trkpt lat="43.60379" lon="3.37146">
        <ele>311.4</ele>
        <time>2016-12-28T14:27:09Z</time>
      </trkpt>
      <trkpt lat="43.60379" lon="3.37136">
        <ele>311.6</ele>
        <time>2016-12-28T14:27:11Z</time>
      </trkpt>
      <trkpt lat="43.60379" lon="3.37121">
        <ele>311.9</ele>
        <time>2016-12-28T14:27:14Z</time>
      </trkpt>
      <trkpt lat="43.60378" lon="3.37109">
        <ele>312.1</ele>
        <time>2016-12-28T14:27:17Z</time>
      </trkpt>
      <trkpt lat="43.60378" lon="3.37095">
        <ele>312.4</ele>
        <time>2016-12-28T14:27:20Z</time>
      </trkpt>
      <trkpt lat="43.60379" lon="3.37081">
        <ele>312.6</ele>
        <time>2016-12-28T14:27:23Z</time>
      </trkpt>
      <trkpt lat="43.6038" lon="3.37067">
        <ele>312.9</ele>
        <time>2016-12-28T14:27:26Z</time>
      </trkpt>
      <trkpt lat="43.60383" lon="3.37056">
        <ele>313.1</ele>
        <time>2016-12-28T14:27:29Z</time>
      </trkpt>
      <trkpt lat="43.60385" lon="3.37043">
        <ele>313.3</ele>
        <time>2016-12-28T14:27:32Z</time>
      </trkpt>
      <trkpt lat="43.60388" lon="3.37031">
        <ele>313.7</ele>
        <time>2016-12-28T14:27:35Z</time>
      </trkpt>
      <trkpt lat="43.6039" lon="3.37019">
        <ele>313.9</ele>
        <time>2016-12-28T14:27:38Z</time>
      </trkpt>
      <trkpt lat="43.60392" lon="3.37006">
        <ele>314.2</ele>
        <time>2016-12-28T14:27:41Z</time>
      </trkpt>
      <trkpt lat="43.60393" lon="3.36992">
        <ele>314.3</ele>
        <time>2016-12-28T14:27:44Z</time>
      </trkpt>
      <trkpt lat="43.60393" lon="3.36979">
        <ele>314.5</ele>
        <time>2016-12-28T14:27:47Z</time>
      </trkpt>
      <trkpt lat="43.60393" lon="3.36966">
        <ele>314.8</ele>
        <time>2016-12-28T14:27:50Z</time>
      </trkpt>
      <trkpt lat="43.60393" lon="3.36953">
        <ele>315.1</ele>
        <time>2016-12-28T14:27:53Z</time>
      </trkpt>
      <trkpt lat="43.60392" lon="3.36939">
        <ele>315.4</ele>
        <time>2016-12-28T14:27:56Z</time>
      </trkpt>
      <trkpt lat="43.6039" lon="3.36926">
        <ele>315.6</ele>
        <time>2016-12-28T14:27:59Z</time>
      </trkpt>
      <trkpt lat="43.60389" lon="3.36914">
        <ele>315.9</ele>
        <time>2016-12-28T14:28:02Z</time>
      </trkpt>
      <trkpt lat="43.60386" lon="3.36901">
        <ele>316.2</ele>
        <time>2016-12-28T14:28:05Z</time>
      </trkpt>
      <trkpt lat="43.60382" lon="3.3689">
        <ele>316.5</ele>
        <time>2016-12-28T14:28:08Z</time>
      </trkpt>
      <trkpt lat="43.60378" lon="3.36882">
        <ele>316.5</ele>
        <time>2016-12-28T14:28:10Z</time>
      </trkpt>
      <trkpt lat="43.60371" lon="3.36872">
        <ele>316.5</ele>
        <time>2016-12-28T14:28:13Z</time>
      </trkpt>
      <trkpt lat="43.60366" lon="3.36862">
        <ele>316.6</ele>
        <time>2016-12-28T14:28:16Z</time>
      </trkpt>
      <trkpt lat="43.60361" lon="3.36851">
        <ele>316.9</ele>
        <time>2016-12-28T14:28:19Z</time>
      </trkpt>
      <trkpt lat="43.60358" lon="3.36839">
        <ele>317.3</ele>
        <time>2016-12-28T14:28:22Z</time>
      </trkpt>
      <trkpt lat="43.60354" lon="3.36827">
        <ele>317.5</ele>
        <time>2016-12-28T14:28:25Z</time>
      </trkpt>
      <trkpt lat="43.60351" lon="3.36814">
        <ele>317.8</ele>
        <time>2016-12-28T14:28:28Z</time>
      </trkpt>
      <trkpt lat="43.60348" lon="3.36801">
        <ele>318.2</ele>
        <time>2016-12-28T14:28:31Z</time>
      </trkpt>
      <trkpt lat="43.60345" lon="3.36789">
        <ele>318.6</ele>
        <time>2016-12-28T14:28:34Z</time>
      </trkpt>
      <trkpt lat="43.60344" lon="3.36779">
        <ele>319.1</ele>
        <time>2016-12-28T14:28:37Z</time>
      </trkpt>
      <trkpt lat="43.60342" lon="3.36767">
        <ele>319.5</ele>
        <time>2016-12-28T14:28:40Z</time>
      </trkpt>
      <trkpt lat="43.6034" lon="3.36756">
        <ele>319.9</ele>
        <time>2016-12-28T14:28:43Z</time>
      </trkpt>
      <trkpt lat="43.60337" lon="3.36745">
        <ele>320.3</ele>
        <time>2016-12-28T14:28:46Z</time>
      </trkpt>
      <trkpt lat="43.60334" lon="3.36735">
        <ele>320.8</ele>
        <time>2016-12-28T14:28:49Z</time>
      </trkpt>
      <trkpt lat="43.60329" lon="3.36726">
        <ele>321</ele>
        <time>2016-12-28T14:28:51Z</time>
      </trkpt>
      <trkpt lat="43.60324" lon="3.36716">
        <ele>321.4</ele>
        <time>2016-12-28T14:28:54Z</time>
      </trkpt>
      <trkpt lat="43.60319" lon="3.36708">
        <ele>321.7</ele>
        <time>2016-12-28T14:28:57Z</time>
      </trkpt>
      <trkpt lat="43.60314" lon="3.36702">
        <ele>321.9</ele>
        <time>2016-12-28T14:28:59Z</time>
      </trkpt>
      <trkpt lat="43.60309" lon="3.36693">
        <ele>322.3</ele>
        <time>2016-12-28T14:29:02Z</time>
      </trkpt>
      <trkpt lat="43.60307" lon="3.36679">
        <ele>322.8</ele>
        <time>2016-12-28T14:29:05Z</time>
      </trkpt>
      <trkpt lat="43.60309" lon="3.36669">
        <ele>323.2</ele>
        <time>2016-12-28T14:29:08Z</time>
      </trkpt>
      <trkpt lat="43.60313" lon="3.36661">
        <ele>323.6</ele>
        <time>2016-12-28T14:29:11Z</time>
      </trkpt>
      <trkpt lat="43.60319" lon="3.36654">
        <ele>324</ele>
        <time>2016-12-28T14:29:14Z</time>
      </trkpt>
      <trkpt lat="43.60324" lon="3.36645">
        <ele>324.5</ele>
        <time>2016-12-28T14:29:18Z</time>
      </trkpt>
      <trkpt lat="43.60328" lon="3.36636">
        <ele>324.9</ele>
        <time>2016-12-28T14:29:21Z</time>
      </trkpt>
      <trkpt lat="43.60332" lon="3.36626">
        <ele>325.2</ele>
        <time>2016-12-28T14:29:24Z</time>
      </trkpt>
      <trkpt lat="43.60335" lon="3.36617">
        <ele>325.6</ele>
        <time>2016-12-28T14:29:27Z</time>
      </trkpt>
      <trkpt lat="43.60339" lon="3.36606">
        <ele>326.1</ele>
        <time>2016-12-28T14:29:31Z</time>
      </trkpt>
      <trkpt lat="43.60344" lon="3.36594">
        <ele>326.7</ele>
        <time>2016-12-28T14:29:35Z</time>
      </trkpt>
      <trkpt lat="43.60348" lon="3.36583">
        <ele>327.2</ele>
        <time>2016-12-28T14:29:39Z</time>
      </trkpt>
      <trkpt lat="43.60351" lon="3.36573">
        <ele>327.6</ele>
        <time>2016-12-28T14:29:42Z</time>
      </trkpt>
      <trkpt lat="43.60353" lon="3.36563">
        <ele>328.2</ele>
        <time>2016-12-28T14:29:46Z</time>
      </trkpt>
      <trkpt lat="43.60355" lon="3.36552">
        <ele>328.6</ele>
        <time>2016-12-28T14:29:49Z</time>
      </trkpt>
      <trkpt lat="43.60357" lon="3.36542">
        <ele>329.1</ele>
        <time>2016-12-28T14:29:52Z</time>
      </trkpt>
      <trkpt lat="43.60359" lon="3.36532">
        <ele>329.5</ele>
        <time>2016-12-28T14:29:55Z</time>
      </trkpt>
      <trkpt lat="43.6036" lon="3.3652">
        <ele>330</ele>
        <time>2016-12-28T14:29:59Z</time>
      </trkpt>
      <trkpt lat="43.60361" lon="3.36509">
        <ele>330.3</ele>
        <time>2016-12-28T14:30:02Z</time>
      </trkpt>
      <trkpt lat="43.60363" lon="3.36499">
        <ele>330.7</ele>
        <time>2016-12-28T14:30:05Z</time>
      </trkpt>
      <trkpt lat="43.60365" lon="3.36488">
        <ele>331.1</ele>
        <time>2016-12-28T14:30:08Z</time>
      </trkpt>
      <trkpt lat="43.60366" lon="3.36476">
        <ele>331.4</ele>
        <time>2016-12-28T14:30:11Z</time>
      </trkpt>
      <trkpt lat="43.60368" lon="3.36464">
        <ele>331.8</ele>
        <time>2016-12-28T14:30:14Z</time>
      </trkpt>
      <trkpt lat="43.6037" lon="3.36451">
        <ele>332.2</ele>
        <time>2016-12-28T14:30:17Z</time>
      </trkpt>
      <trkpt lat="43.60372" lon="3.36439">
        <ele>332.5</ele>
        <time>2016-12-28T14:30:20Z</time>
      </trkpt>
      <trkpt lat="43.60374" lon="3.36425">
        <ele>332.9</ele>
        <time>2016-12-28T14:30:23Z</time>
      </trkpt>
      <trkpt lat="43.60376" lon="3.36412">
        <ele>333.2</ele>
        <time>2016-12-28T14:30:26Z</time>
      </trkpt>
      <trkpt lat="43.60378" lon="3.36397">
        <ele>333.6</ele>
        <time>2016-12-28T14:30:29Z</time>
      </trkpt>
      <trkpt lat="43.60379" lon="3.36383">
        <ele>333.9</ele>
        <time>2016-12-28T14:30:32Z</time>
      </trkpt>
      <trkpt lat="43.60381" lon="3.36369">
        <ele>334.2</ele>
        <time>2016-12-28T14:30:35Z</time>
      </trkpt>
      <trkpt lat="43.60383" lon="3.36355">
        <ele>334.4</ele>
        <time>2016-12-28T14:30:38Z</time>
      </trkpt>
      <trkpt lat="43.60383" lon="3.36345">
        <ele>334.5</ele>
        <time>2016-12-28T14:30:40Z</time>
      </trkpt>
      <trkpt lat="43.60385" lon="3.36331">
        <ele>334.7</ele>
        <time>2016-12-28T14:30:43Z</time>
      </trkpt>
      <trkpt lat="43.60387" lon="3.36318">
        <ele>335</ele>
        <time>2016-12-28T14:30:46Z</time>
      </trkpt>
      <trkpt lat="43.60387" lon="3.36305">
        <ele>335.3</ele>
        <time>2016-12-28T14:30:49Z</time>
      </trkpt>
      <trkpt lat="43.60389" lon="3.36292">
        <ele>335.5</ele>
        <time>2016-12-28T14:30:52Z</time>
      </trkpt>
      <trkpt lat="43.6039" lon="3.36281">
        <ele>335.7</ele>
        <time>2016-12-28T14:30:55Z</time>
      </trkpt>
      <trkpt lat="43.60392" lon="3.36267">
        <ele>335.9</ele>
        <time>2016-12-28T14:30:58Z</time>
      </trkpt>
      <trkpt lat="43.60393" lon="3.36256">
        <ele>336.2</ele>
        <time>2016-12-28T14:31:01Z</time>
      </trkpt>
      <trkpt lat="43.60395" lon="3.36243">
        <ele>336.6</ele>
        <time>2016-12-28T14:31:05Z</time>
      </trkpt>
      <trkpt lat="43.60396" lon="3.36232">
        <ele>337</ele>
        <time>2016-12-28T14:31:08Z</time>
      </trkpt>
      <trkpt lat="43.60397" lon="3.3622">
        <ele>337.4</ele>
        <time>2016-12-28T14:31:11Z</time>
      </trkpt>
      <trkpt lat="43.60399" lon="3.36208">
        <ele>337.8</ele>
        <time>2016-12-28T14:31:14Z</time>
      </trkpt>
      <trkpt lat="43.60399" lon="3.36196">
        <ele>338.2</ele>
        <time>2016-12-28T14:31:17Z</time>
      </trkpt>
      <trkpt lat="43.60399" lon="3.36184">
        <ele>338.5</ele>
        <time>2016-12-28T14:31:20Z</time>
      </trkpt>
      <trkpt lat="43.60397" lon="3.36174">
        <ele>338.7</ele>
        <time>2016-12-28T14:31:23Z</time>
      </trkpt>
      <trkpt lat="43.60394" lon="3.36163">
        <ele>338.8</ele>
        <time>2016-12-28T14:31:26Z</time>
      </trkpt>
      <trkpt lat="43.60393" lon="3.36151">
        <ele>339.1</ele>
        <time>2016-12-28T14:31:29Z</time>
      </trkpt>
      <trkpt lat="43.60391" lon="3.36139">
        <ele>339.5</ele>
        <time>2016-12-28T14:31:32Z</time>
      </trkpt>
      <trkpt lat="43.60389" lon="3.36128">
        <ele>339.9</ele>
        <time>2016-12-28T14:31:35Z</time>
      </trkpt>
      <trkpt lat="43.60385" lon="3.36116">
        <ele>340.2</ele>
        <time>2016-12-28T14:31:38Z</time>
      </trkpt>
      <trkpt lat="43.60377" lon="3.36104">
        <ele>340.5</ele>
        <time>2016-12-28T14:31:41Z</time>
      </trkpt>
      <trkpt lat="43.60371" lon="3.36097">
        <ele>340.7</ele>
        <time>2016-12-28T14:31:43Z</time>
      </trkpt>
      <trkpt lat="43.60362" lon="3.36089">
        <ele>341</ele>
        <time>2016-12-28T14:31:46Z</time>
      </trkpt>
      <trkpt lat="43.60355" lon="3.36084">
        <ele>341.2</ele>
        <time>2016-12-28T14:31:48Z</time>
      </trkpt>
      <trkpt lat="43.60345" lon="3.36077">
        <ele>341.5</ele>
        <time>2016-12-28T14:31:51Z</time>
      </trkpt>
      <trkpt lat="43.60338" lon="3.36071">
        <ele>341.8</ele>
        <time>2016-12-28T14:31:54Z</time>
      </trkpt>
      <trkpt lat="43.6033" lon="3.36065">
        <ele>342.1</ele>
        <time>2016-12-28T14:31:58Z</time>
      </trkpt>
      <trkpt lat="43.60325" lon="3.36056">
        <ele>342.1</ele>
        <time>2016-12-28T14:32:01Z</time>
      </trkpt>
      <trkpt lat="43.60324" lon="3.36044">
        <ele>342</ele>
        <time>2016-12-28T14:32:04Z</time>
      </trkpt>
      <trkpt lat="43.60325" lon="3.36031">
        <ele>341.9</ele>
        <time>2016-12-28T14:32:07Z</time>
      </trkpt>
      <trkpt lat="43.60327" lon="3.36016">
        <ele>342.1</ele>
        <time>2016-12-28T14:32:10Z</time>
      </trkpt>
      <trkpt lat="43.60329" lon="3.36006">
        <ele>342.2</ele>
        <time>2016-12-28T14:32:12Z</time>
      </trkpt>
      <trkpt lat="43.60333" lon="3.35993">
        <ele>342.4</ele>
        <time>2016-12-28T14:32:15Z</time>
      </trkpt>
      <trkpt lat="43.60338" lon="3.35981">
        <ele>342.7</ele>
        <time>2016-12-28T14:32:18Z</time>
      </trkpt>
      <trkpt lat="43.60342" lon="3.35969">
        <ele>343</ele>
        <time>2016-12-28T14:32:21Z</time>
      </trkpt>
      <trkpt lat="43.60347" lon="3.35957">
        <ele>343.3</ele>
        <time>2016-12-28T14:32:24Z</time>
      </trkpt>
      <trkpt lat="43.6035" lon="3.35945">
        <ele>343.6</ele>
        <time>2016-12-28T14:32:27Z</time>
      </trkpt>
      <trkpt lat="43.60352" lon="3.35932">
        <ele>344</ele>
        <time>2016-12-28T14:32:30Z</time>
      </trkpt>
      <trkpt lat="43.6035" lon="3.3592">
        <ele>344.4</ele>
        <time>2016-12-28T14:32:33Z</time>
      </trkpt>
      <trkpt lat="43.60345" lon="3.35907">
        <ele>344.8</ele>
        <time>2016-12-28T14:32:36Z</time>
      </trkpt>
      <trkpt lat="43.6034" lon="3.35895">
        <ele>345.1</ele>
        <time>2016-12-28T14:32:39Z</time>
      </trkpt>
      <trkpt lat="43.60333" lon="3.35888">
        <ele>345.4</ele>
        <time>2016-12-28T14:32:42Z</time>
      </trkpt>
      <trkpt lat="43.60326" lon="3.35884">
        <ele>345.7</ele>
        <time>2016-12-28T14:32:45Z</time>
      </trkpt>
      <trkpt lat="43.60318" lon="3.35887">
        <ele>346</ele>
        <time>2016-12-28T14:32:48Z</time>
      </trkpt>
      <trkpt lat="43.60311" lon="3.35889">
        <ele>346.2</ele>
        <time>2016-12-28T14:32:51Z</time>
      </trkpt>
      <trkpt lat="43.60301" lon="3.35892">
        <ele>346.5</ele>
        <time>2016-12-28T14:32:55Z</time>
      </trkpt>
      <trkpt lat="43.60292" lon="3.35891">
        <ele>346.9</ele>
        <time>2016-12-28T14:32:58Z</time>
      </trkpt>
      <trkpt lat="43.60283" lon="3.3589">
        <ele>347.2</ele>
        <time>2016-12-28T14:33:01Z</time>
      </trkpt>
      <trkpt lat="43.60274" lon="3.35889">
        <ele>347.7</ele>
        <time>2016-12-28T14:33:04Z</time>
      </trkpt>
      <trkpt lat="43.60266" lon="3.3589">
        <ele>348.1</ele>
        <time>2016-12-28T14:33:07Z</time>
      </trkpt>
      <trkpt lat="43.60256" lon="3.35893">
        <ele>348.5</ele>
        <time>2016-12-28T14:33:10Z</time>
      </trkpt>
      <trkpt lat="43.60248" lon="3.35895">
        <ele>348.7</ele>
        <time>2016-12-28T14:33:13Z</time>
      </trkpt>
      <trkpt lat="43.6024" lon="3.35893">
        <ele>349.1</ele>
        <time>2016-12-28T14:33:16Z</time>
      </trkpt>
      <trkpt lat="43.60235" lon="3.35885">
        <ele>349.4</ele>
        <time>2016-12-28T14:33:19Z</time>
      </trkpt>
      <trkpt lat="43.60238" lon="3.35874">
        <ele>350</ele>
        <time>2016-12-28T14:33:23Z</time>
      </trkpt>
      <trkpt lat="43.60247" lon="3.3587">
        <ele>350.6</ele>
        <time>2016-12-28T14:33:27Z</time>
      </trkpt>
      <trkpt lat="43.60254" lon="3.35868">
        <ele>351.3</ele>
        <time>2016-12-28T14:33:30Z</time>
      </trkpt>
      <trkpt lat="43.60263" lon="3.35864">
        <ele>352</ele>
        <time>2016-12-28T14:33:34Z</time>
      </trkpt>
      <trkpt lat="43.60269" lon="3.3586">
        <ele>352.5</ele>
        <time>2016-12-28T14:33:37Z</time>
      </trkpt>
      <trkpt lat="43.60276" lon="3.35855">
        <ele>353</ele>
        <time>2016-12-28T14:33:41Z</time>
      </trkpt>
      <trkpt lat="43.60284" lon="3.35848">
        <ele>353.5</ele>
        <time>2016-12-28T14:33:45Z</time>
      </trkpt>
      <trkpt lat="43.6029" lon="3.35842">
        <ele>353.9</ele>
        <time>2016-12-28T14:33:48Z</time>
      </trkpt>
      <trkpt lat="43.60298" lon="3.35833">
        <ele>354.5</ele>
        <time>2016-12-28T14:33:52Z</time>
      </trkpt>
      <trkpt lat="43.60304" lon="3.35826">
        <ele>354.8</ele>
        <time>2016-12-28T14:33:55Z</time>
      </trkpt>
      <trkpt lat="43.6031" lon="3.35815">
        <ele>355.4</ele>
        <time>2016-12-28T14:33:59Z</time>
      </trkpt>
      <trkpt lat="43.60315" lon="3.35806">
        <ele>355.9</ele>
        <time>2016-12-28T14:34:03Z</time>
      </trkpt>
      <trkpt lat="43.60321" lon="3.35796">
        <ele>356.6</ele>
        <time>2016-12-28T14:34:07Z</time>
      </trkpt>
      <trkpt lat="43.60326" lon="3.35789">
        <ele>357.1</ele>
        <time>2016-12-28T14:34:10Z</time>
      </trkpt>
      <trkpt lat="43.60333" lon="3.3578">
        <ele>357.5</ele>
        <time>2016-12-28T14:34:13Z</time>
      </trkpt>
      <trkpt lat="43.60339" lon="3.35773">
        <ele>357.9</ele>
        <time>2016-12-28T14:34:16Z</time>
      </trkpt>
      <trkpt lat="43.60345" lon="3.35764">
        <ele>358.3</ele>
        <time>2016-12-28T14:34:19Z</time>
      </trkpt>
      <trkpt lat="43.60351" lon="3.35755">
        <ele>358.4</ele>
        <time>2016-12-28T14:34:21Z</time>
      </trkpt>
      <trkpt lat="43.60357" lon="3.35746">
        <ele>359.9</ele>
        <time>2016-12-28T14:34:23Z</time>
      </trkpt>
      <trkpt lat="43.6036" lon="3.35736">
        <ele>360.8</ele>
        <time>2016-12-28T14:34:25Z</time>
      </trkpt>
      <trkpt lat="43.60365" lon="3.35725">
        <ele>361.3</ele>
        <time>2016-12-28T14:34:27Z</time>
      </trkpt>
      <trkpt lat="43.60369" lon="3.35711">
        <ele>361.1</ele>
        <time>2016-12-28T14:34:29Z</time>
      </trkpt>
      <trkpt lat="43.60373" lon="3.35698">
        <ele>360.6</ele>
        <time>2016-12-28T14:34:31Z</time>
      </trkpt>
      <trkpt lat="43.60376" lon="3.35683">
        <ele>360.1</ele>
        <time>2016-12-28T14:34:33Z</time>
      </trkpt>
      <trkpt lat="43.60379" lon="3.3567">
        <ele>359.7</ele>
        <time>2016-12-28T14:34:35Z</time>
      </trkpt>
      <trkpt lat="43.60381" lon="3.35659">
        <ele>360.1</ele>
        <time>2016-12-28T14:34:37Z</time>
      </trkpt>
      <trkpt lat="43.60382" lon="3.35649">
        <ele>360.6</ele>
        <time>2016-12-28T14:34:39Z</time>
      </trkpt>
      <trkpt lat="43.60383" lon="3.35636">
        <ele>361.1</ele>
        <time>2016-12-28T14:34:41Z</time>
      </trkpt>
      <trkpt lat="43.60383" lon="3.35627">
        <ele>361.1</ele>
        <time>2016-12-28T14:34:43Z</time>
      </trkpt>
      <trkpt lat="43.60383" lon="3.35613">
        <ele>361.1</ele>
        <time>2016-12-28T14:34:46Z</time>
      </trkpt>
      <trkpt lat="43.60383" lon="3.35601">
        <ele>361</ele>
        <time>2016-12-28T14:34:49Z</time>
      </trkpt>
      <trkpt lat="43.60382" lon="3.35591">
        <ele>361</ele>
        <time>2016-12-28T14:34:52Z</time>
      </trkpt>
      <trkpt lat="43.60379" lon="3.3558">
        <ele>361.1</ele>
        <time>2016-12-28T14:34:55Z</time>
      </trkpt>
      <trkpt lat="43.60374" lon="3.35569">
        <ele>361.1</ele>
        <time>2016-12-28T14:34:58Z</time>
      </trkpt>
      <trkpt lat="43.60367" lon="3.35562">
        <ele>361.1</ele>
        <time>2016-12-28T14:35:01Z</time>
      </trkpt>
      <trkpt lat="43.60358" lon="3.35557">
        <ele>361.2</ele>
        <time>2016-12-28T14:35:04Z</time>
      </trkpt>
      <trkpt lat="43.60351" lon="3.35554">
        <ele>361.4</ele>
        <time>2016-12-28T14:35:06Z</time>
      </trkpt>
      <trkpt lat="43.60343" lon="3.35551">
        <ele>361.6</ele>
        <time>2016-12-28T14:35:09Z</time>
      </trkpt>
      <trkpt lat="43.60333" lon="3.35549">
        <ele>361.8</ele>
        <time>2016-12-28T14:35:12Z</time>
      </trkpt>
      <trkpt lat="43.60323" lon="3.35546">
        <ele>361.9</ele>
        <time>2016-12-28T14:35:15Z</time>
      </trkpt>
      <trkpt lat="43.60315" lon="3.35545">
        <ele>362.1</ele>
        <time>2016-12-28T14:35:18Z</time>
      </trkpt>
      <trkpt lat="43.60307" lon="3.35544">
        <ele>362.4</ele>
        <time>2016-12-28T14:35:21Z</time>
      </trkpt>
      <trkpt lat="43.60299" lon="3.35544">
        <ele>362.5</ele>
        <time>2016-12-28T14:35:24Z</time>
      </trkpt>
      <trkpt lat="43.6029" lon="3.35542">
        <ele>362.5</ele>
        <time>2016-12-28T14:35:27Z</time>
      </trkpt>
      <trkpt lat="43.60282" lon="3.35542">
        <ele>362.5</ele>
        <time>2016-12-28T14:35:30Z</time>
      </trkpt>
      <trkpt lat="43.60274" lon="3.35541">
        <ele>362.6</ele>
        <time>2016-12-28T14:35:33Z</time>
      </trkpt>
      <trkpt lat="43.60266" lon="3.35541">
        <ele>362.6</ele>
        <time>2016-12-28T14:35:36Z</time>
      </trkpt>
      <trkpt lat="43.60257" lon="3.35541">
        <ele>362.7</ele>
        <time>2016-12-28T14:35:39Z</time>
      </trkpt>
      <trkpt lat="43.60249" lon="3.3554">
        <ele>362.7</ele>
        <time>2016-12-28T14:35:42Z</time>
      </trkpt>
      <trkpt lat="43.6024" lon="3.35537">
        <ele>362.8</ele>
        <time>2016-12-28T14:35:45Z</time>
      </trkpt>
      <trkpt lat="43.60233" lon="3.35531">
        <ele>362.9</ele>
        <time>2016-12-28T14:35:48Z</time>
      </trkpt>
      <trkpt lat="43.60228" lon="3.35521">
        <ele>363.1</ele>
        <time>2016-12-28T14:35:51Z</time>
      </trkpt>
      <trkpt lat="43.60226" lon="3.35509">
        <ele>363</ele>
        <time>2016-12-28T14:35:55Z</time>
      </trkpt>
      <trkpt lat="43.60224" lon="3.35497">
        <ele>362.8</ele>
        <time>2016-12-28T14:35:58Z</time>
      </trkpt>
      <trkpt lat="43.60223" lon="3.35487">
        <ele>362.8</ele>
        <time>2016-12-28T14:36:01Z</time>
      </trkpt>
      <trkpt lat="43.60219" lon="3.35475">
        <ele>362.7</ele>
        <time>2016-12-28T14:36:05Z</time>
      </trkpt>
      <trkpt lat="43.60214" lon="3.35464">
        <ele>362.8</ele>
        <time>2016-12-28T14:36:09Z</time>
      </trkpt>
      <trkpt lat="43.60209" lon="3.35457">
        <ele>363</ele>
        <time>2016-12-28T14:36:12Z</time>
      </trkpt>
      <trkpt lat="43.60203" lon="3.3545">
        <ele>363.2</ele>
        <time>2016-12-28T14:36:15Z</time>
      </trkpt>
      <trkpt lat="43.60195" lon="3.35443">
        <ele>363.4</ele>
        <time>2016-12-28T14:36:19Z</time>
      </trkpt>
      <trkpt lat="43.60189" lon="3.35437">
        <ele>363.5</ele>
        <time>2016-12-28T14:36:22Z</time>
      </trkpt>
      <trkpt lat="43.60181" lon="3.35433">
        <ele>363.6</ele>
        <time>2016-12-28T14:36:25Z</time>
      </trkpt>
      <trkpt lat="43.60172" lon="3.35428">
        <ele>363.7</ele>
        <time>2016-12-28T14:36:28Z</time>
      </trkpt>
      <trkpt lat="43.60165" lon="3.35422">
        <ele>363.8</ele>
        <time>2016-12-28T14:36:31Z</time>
      </trkpt>
      <trkpt lat="43.60156" lon="3.35417">
        <ele>364.4</ele>
        <time>2016-12-28T14:36:35Z</time>
      </trkpt>
      <trkpt lat="43.60148" lon="3.35411">
        <ele>365.3</ele>
        <time>2016-12-28T14:36:39Z</time>
      </trkpt>
      <trkpt lat="43.60141" lon="3.35404">
        <ele>366.3</ele>
        <time>2016-12-28T14:36:43Z</time>
      </trkpt>
      <trkpt lat="43.60134" lon="3.35395">
        <ele>367.2</ele>
        <time>2016-12-28T14:36:47Z</time>
      </trkpt>
      <trkpt lat="43.60125" lon="3.35389">
        <ele>367.8</ele>
        <time>2016-12-28T14:36:50Z</time>
      </trkpt>
      <trkpt lat="43.60117" lon="3.35385">
        <ele>368.5</ele>
        <time>2016-12-28T14:36:53Z</time>
      </trkpt>
      <trkpt lat="43.60109" lon="3.35383">
        <ele>369.6</ele>
        <time>2016-12-28T14:36:57Z</time>
      </trkpt>
      <trkpt lat="43.60102" lon="3.35382">
        <ele>370.2</ele>
        <time>2016-12-28T14:37:00Z</time>
      </trkpt>
      <trkpt lat="43.60094" lon="3.35382">
        <ele>371</ele>
        <time>2016-12-28T14:37:04Z</time>
      </trkpt>
      <trkpt lat="43.60087" lon="3.35381">
        <ele>371.3</ele>
        <time>2016-12-28T14:37:07Z</time>
      </trkpt>
      <trkpt lat="43.6008" lon="3.35375">
        <ele>371.9</ele>
        <time>2016-12-28T14:37:11Z</time>
      </trkpt>
      <trkpt lat="43.60076" lon="3.35364">
        <ele>372.4</ele>
        <time>2016-12-28T14:37:15Z</time>
      </trkpt>
      <trkpt lat="43.60077" lon="3.35354">
        <ele>372.8</ele>
        <time>2016-12-28T14:37:18Z</time>
      </trkpt>
      <trkpt lat="43.60084" lon="3.35342">
        <ele>373.5</ele>
        <time>2016-12-28T14:37:22Z</time>
      </trkpt>
      <trkpt lat="43.6009" lon="3.35333">
        <ele>374.1</ele>
        <time>2016-12-28T14:37:25Z</time>
      </trkpt>
      <trkpt lat="43.60094" lon="3.35324">
        <ele>374.6</ele>
        <time>2016-12-28T14:37:28Z</time>
      </trkpt>
      <trkpt lat="43.60099" lon="3.35314">
        <ele>375.2</ele>
        <time>2016-12-28T14:37:31Z</time>
      </trkpt>
      <trkpt lat="43.60103" lon="3.35305">
        <ele>375.8</ele>
        <time>2016-12-28T14:37:34Z</time>
      </trkpt>
      <trkpt lat="43.60105" lon="3.35294">
        <ele>376.2</ele>
        <time>2016-12-28T14:37:37Z</time>
      </trkpt>
      <trkpt lat="43.60106" lon="3.35281">
        <ele>376.5</ele>
        <time>2016-12-28T14:37:40Z</time>
      </trkpt>
      <trkpt lat="43.60103" lon="3.35271">
        <ele>376.9</ele>
        <time>2016-12-28T14:37:43Z</time>
      </trkpt>
      <trkpt lat="43.60098" lon="3.35261">
        <ele>377.3</ele>
        <time>2016-12-28T14:37:46Z</time>
      </trkpt>
      <trkpt lat="43.60091" lon="3.35254">
        <ele>377.6</ele>
        <time>2016-12-28T14:37:49Z</time>
      </trkpt>
      <trkpt lat="43.60084" lon="3.35246">
        <ele>377.9</ele>
        <time>2016-12-28T14:37:52Z</time>
      </trkpt>
      <trkpt lat="43.60078" lon="3.35236">
        <ele>378</ele>
        <time>2016-12-28T14:37:55Z</time>
      </trkpt>
      <trkpt lat="43.60071" lon="3.35226">
        <ele>378.2</ele>
        <time>2016-12-28T14:37:58Z</time>
      </trkpt>
      <trkpt lat="43.60069" lon="3.35216">
        <ele>378.7</ele>
        <time>2016-12-28T14:38:02Z</time>
      </trkpt>
      <trkpt lat="43.60065" lon="3.35205">
        <ele>379.4</ele>
        <time>2016-12-28T14:38:06Z</time>
      </trkpt>
      <trkpt lat="43.60063" lon="3.35195">
        <ele>379.8</ele>
        <time>2016-12-28T14:38:09Z</time>
      </trkpt>
      <trkpt lat="43.6006" lon="3.35186">
        <ele>380.6</ele>
        <time>2016-12-28T14:38:13Z</time>
      </trkpt>
      <trkpt lat="43.60057" lon="3.35177">
        <ele>381.4</ele>
        <time>2016-12-28T14:38:17Z</time>
      </trkpt>
      <trkpt lat="43.60053" lon="3.35168">
        <ele>382.2</ele>
        <time>2016-12-28T14:38:21Z</time>
      </trkpt>
      <trkpt lat="43.60047" lon="3.35159">
        <ele>383</ele>
        <time>2016-12-28T14:38:25Z</time>
      </trkpt>
      <trkpt lat="43.60042" lon="3.35151">
        <ele>383.8</ele>
        <time>2016-12-28T14:38:29Z</time>
      </trkpt>
      <trkpt lat="43.60035" lon="3.35143">
        <ele>384.4</ele>
        <time>2016-12-28T14:38:33Z</time>
      </trkpt>
      <trkpt lat="43.60027" lon="3.35137">
        <ele>385</ele>
        <time>2016-12-28T14:38:37Z</time>
      </trkpt>
      <trkpt lat="43.6002" lon="3.35136">
        <ele>385.6</ele>
        <time>2016-12-28T14:38:40Z</time>
      </trkpt>
      <trkpt lat="43.60012" lon="3.35137">
        <ele>386.1</ele>
        <time>2016-12-28T14:38:43Z</time>
      </trkpt>
      <trkpt lat="43.60004" lon="3.35143">
        <ele>386.7</ele>
        <time>2016-12-28T14:38:47Z</time>
      </trkpt>
      <trkpt lat="43.59998" lon="3.35149">
        <ele>387.1</ele>
        <time>2016-12-28T14:38:50Z</time>
      </trkpt>
      <trkpt lat="43.59992" lon="3.35155">
        <ele>387.7</ele>
        <time>2016-12-28T14:38:54Z</time>
      </trkpt>
      <trkpt lat="43.59985" lon="3.35162">
        <ele>388.3</ele>
        <time>2016-12-28T14:38:58Z</time>
      </trkpt>
      <trkpt lat="43.59978" lon="3.35167">
        <ele>388.8</ele>
        <time>2016-12-28T14:39:02Z</time>
      </trkpt>
      <trkpt lat="43.59971" lon="3.35173">
        <ele>389.4</ele>
        <time>2016-12-28T14:39:06Z</time>
      </trkpt>
      <trkpt lat="43.59964" lon="3.35178">
        <ele>390</ele>
        <time>2016-12-28T14:39:10Z</time>
      </trkpt>
      <trkpt lat="43.59957" lon="3.35185">
        <ele>390.7</ele>
        <time>2016-12-28T14:39:14Z</time>
      </trkpt>
      <trkpt lat="43.59951" lon="3.3519">
        <ele>391.2</ele>
        <time>2016-12-28T14:39:18Z</time>
      </trkpt>
      <trkpt lat="43.59944" lon="3.35196">
        <ele>391.7</ele>
        <time>2016-12-28T14:39:22Z</time>
      </trkpt>
      <trkpt lat="43.59937" lon="3.35203">
        <ele>392.9</ele>
        <time>2016-12-28T14:39:28Z</time>
      </trkpt>
      <trkpt lat="43.5993" lon="3.35209">
        <ele>393.7</ele>
        <time>2016-12-28T14:39:32Z</time>
      </trkpt>
      <trkpt lat="43.59921" lon="3.35215">
        <ele>394.4</ele>
        <time>2016-12-28T14:39:36Z</time>
      </trkpt>
      <trkpt lat="43.59914" lon="3.3522">
        <ele>395.1</ele>
        <time>2016-12-28T14:39:40Z</time>
      </trkpt>
      <trkpt lat="43.59907" lon="3.35223">
        <ele>395.8</ele>
        <time>2016-12-28T14:39:44Z</time>
      </trkpt>
      <trkpt lat="43.59898" lon="3.35225">
        <ele>396.5</ele>
        <time>2016-12-28T14:39:48Z</time>
      </trkpt>
      <trkpt lat="43.59889" lon="3.35226">
        <ele>397.2</ele>
        <time>2016-12-28T14:39:52Z</time>
      </trkpt>
      <trkpt lat="43.5988" lon="3.35226">
        <ele>397.9</ele>
        <time>2016-12-28T14:39:56Z</time>
      </trkpt>
      <trkpt lat="43.59873" lon="3.35228">
        <ele>398.4</ele>
        <time>2016-12-28T14:39:59Z</time>
      </trkpt>
      <trkpt lat="43.59866" lon="3.35231">
        <ele>398.9</ele>
        <time>2016-12-28T14:40:02Z</time>
      </trkpt>
      <trkpt lat="43.59859" lon="3.35234">
        <ele>399.3</ele>
        <time>2016-12-28T14:40:05Z</time>
      </trkpt>
      <trkpt lat="43.59849" lon="3.35234">
        <ele>399.9</ele>
        <time>2016-12-28T14:40:09Z</time>
      </trkpt>
      <trkpt lat="43.59842" lon="3.35231">
        <ele>400.4</ele>
        <time>2016-12-28T14:40:12Z</time>
      </trkpt>
      <trkpt lat="43.59836" lon="3.35224">
        <ele>401</ele>
        <time>2016-12-28T14:40:16Z</time>
      </trkpt>
      <trkpt lat="43.59832" lon="3.35215">
        <ele>401.9</ele>
        <time>2016-12-28T14:40:21Z</time>
      </trkpt>
      <trkpt lat="43.59827" lon="3.35206">
        <ele>402.7</ele>
        <time>2016-12-28T14:40:25Z</time>
      </trkpt>
      <trkpt lat="43.5982" lon="3.35199">
        <ele>403.4</ele>
        <time>2016-12-28T14:40:29Z</time>
      </trkpt>
      <trkpt lat="43.59812" lon="3.35193">
        <ele>404.2</ele>
        <time>2016-12-28T14:40:33Z</time>
      </trkpt>
      <trkpt lat="43.59805" lon="3.3519">
        <ele>404.9</ele>
        <time>2016-12-28T14:40:37Z</time>
      </trkpt>
      <trkpt lat="43.59798" lon="3.35188">
        <ele>405.5</ele>
        <time>2016-12-28T14:40:41Z</time>
      </trkpt>
      <trkpt lat="43.59788" lon="3.35187">
        <ele>406.2</ele>
        <time>2016-12-28T14:40:45Z</time>
      </trkpt>
      <trkpt lat="43.59781" lon="3.35187">
        <ele>406.8</ele>
        <time>2016-12-28T14:40:49Z</time>
      </trkpt>
      <trkpt lat="43.59773" lon="3.35188">
        <ele>407.5</ele>
        <time>2016-12-28T14:40:53Z</time>
      </trkpt>
      <trkpt lat="43.59765" lon="3.35188">
        <ele>408.1</ele>
        <time>2016-12-28T14:40:57Z</time>
      </trkpt>
      <trkpt lat="43.59758" lon="3.35188">
        <ele>408.8</ele>
        <time>2016-12-28T14:41:01Z</time>
      </trkpt>
      <trkpt lat="43.59749" lon="3.35189">
        <ele>409.4</ele>
        <time>2016-12-28T14:41:05Z</time>
      </trkpt>
      <trkpt lat="43.59743" lon="3.35182">
        <ele>410.3</ele>
        <time>2016-12-28T14:41:12Z</time>
      </trkpt>
      <trkpt lat="43.59737" lon="3.3517">
        <ele>412.4</ele>
        <time>2016-12-28T14:41:15Z</time>
      </trkpt>
      <trkpt lat="43.59731" lon="3.35159">
        <ele>413.3</ele>
        <time>2016-12-28T14:41:17Z</time>
      </trkpt>
      <trkpt lat="43.59724" lon="3.3515">
        <ele>413.7</ele>
        <time>2016-12-28T14:41:19Z</time>
      </trkpt>
      <trkpt lat="43.59718" lon="3.35143">
        <ele>413.8</ele>
        <time>2016-12-28T14:41:21Z</time>
      </trkpt>
      <trkpt lat="43.59714" lon="3.35139">
        <ele>414</ele>
        <time>2016-12-28T14:41:28Z</time>
      </trkpt>
      <trkpt lat="43.59712" lon="3.3513">
        <ele>414.7</ele>
        <time>2016-12-28T14:42:23Z</time>
      </trkpt>
      <trkpt lat="43.59711" lon="3.3512">
        <ele>414.6</ele>
        <time>2016-12-28T14:42:25Z</time>
      </trkpt>
      <trkpt lat="43.59709" lon="3.35107">
        <ele>414</ele>
        <time>2016-12-28T14:42:28Z</time>
      </trkpt>
      <trkpt lat="43.59707" lon="3.35094">
        <ele>413.6</ele>
        <time>2016-12-28T14:42:30Z</time>
      </trkpt>
      <trkpt lat="43.59705" lon="3.35079">
        <ele>413.3</ele>
        <time>2016-12-28T14:42:32Z</time>
      </trkpt>
      <trkpt lat="43.59705" lon="3.35061">
        <ele>412</ele>
        <time>2016-12-28T14:42:34Z</time>
      </trkpt>
      <trkpt lat="43.59705" lon="3.35051">
        <ele>411.5</ele>
        <time>2016-12-28T14:42:35Z</time>
      </trkpt>
      <trkpt lat="43.59704" lon="3.3503">
        <ele>410.8</ele>
        <time>2016-12-28T14:42:37Z</time>
      </trkpt>
      <trkpt lat="43.59701" lon="3.35018">
        <ele>410.2</ele>
        <time>2016-12-28T14:42:38Z</time>
      </trkpt>
      <trkpt lat="43.59699" lon="3.35008">
        <ele>409.6</ele>
        <time>2016-12-28T14:42:39Z</time>
      </trkpt>
      <trkpt lat="43.59696" lon="3.34987">
        <ele>408.2</ele>
        <time>2016-12-28T14:42:41Z</time>
      </trkpt>
      <trkpt lat="43.59694" lon="3.34975">
        <ele>407.8</ele>
        <time>2016-12-28T14:42:42Z</time>
      </trkpt>
      <trkpt lat="43.5969" lon="3.34964">
        <ele>407.3</ele>
        <time>2016-12-28T14:42:43Z</time>
      </trkpt>
      <trkpt lat="43.59685" lon="3.34956">
        <ele>406.8</ele>
        <time>2016-12-28T14:42:44Z</time>
      </trkpt>
      <trkpt lat="43.5968" lon="3.34948">
        <ele>406.2</ele>
        <time>2016-12-28T14:42:45Z</time>
      </trkpt>
      <trkpt lat="43.59673" lon="3.34939">
        <ele>405.4</ele>
        <time>2016-12-28T14:42:47Z</time>
      </trkpt>
      <trkpt lat="43.59667" lon="3.34931">
        <ele>405.3</ele>
        <time>2016-12-28T14:42:49Z</time>
      </trkpt>
      <trkpt lat="43.5966" lon="3.34923">
        <ele>405.2</ele>
        <time>2016-12-28T14:42:53Z</time>
      </trkpt>
      <trkpt lat="43.59655" lon="3.34915">
        <ele>405.2</ele>
        <time>2016-12-28T14:42:58Z</time>
      </trkpt>
      <trkpt lat="43.59648" lon="3.3491">
        <ele>405.3</ele>
        <time>2016-12-28T14:43:02Z</time>
      </trkpt>
      <trkpt lat="43.5964" lon="3.34914">
        <ele>405.4</ele>
        <time>2016-12-28T14:43:07Z</time>
      </trkpt>
      <trkpt lat="43.59634" lon="3.34918">
        <ele>405.5</ele>
        <time>2016-12-28T14:43:13Z</time>
      </trkpt>
      <trkpt lat="43.59631" lon="3.34921">
        <ele>405.6</ele>
        <time>2016-12-28T14:43:20Z</time>
      </trkpt>
      <trkpt lat="43.59647" lon="3.34927">
        <ele>405.5</ele>
        <time>2016-12-28T14:44:26Z</time>
      </trkpt>
      <trkpt lat="43.59655" lon="3.34928">
        <ele>405.4</ele>
        <time>2016-12-28T14:44:29Z</time>
      </trkpt>
      <trkpt lat="43.59663" lon="3.34932">
        <ele>405.3</ele>
        <time>2016-12-28T14:44:32Z</time>
      </trkpt>
      <trkpt lat="43.59671" lon="3.34934">
        <ele>404.7</ele>
        <time>2016-12-28T14:44:34Z</time>
      </trkpt>
      <trkpt lat="43.59679" lon="3.34936">
        <ele>403.5</ele>
        <time>2016-12-28T14:44:36Z</time>
      </trkpt>
      <trkpt lat="43.59687" lon="3.34938">
        <ele>403.4</ele>
        <time>2016-12-28T14:44:38Z</time>
      </trkpt>
      <trkpt lat="43.59694" lon="3.34937">
        <ele>403.2</ele>
        <time>2016-12-28T14:44:41Z</time>
      </trkpt>
      <trkpt lat="43.59694" lon="3.34924">
        <ele>402.9</ele>
        <time>2016-12-28T14:44:45Z</time>
      </trkpt>
      <trkpt lat="43.5969" lon="3.34914">
        <ele>402.7</ele>
        <time>2016-12-28T14:44:48Z</time>
      </trkpt>
      <trkpt lat="43.59687" lon="3.34904">
        <ele>402.6</ele>
        <time>2016-12-28T14:44:51Z</time>
      </trkpt>
      <trkpt lat="43.59683" lon="3.34892">
        <ele>402.5</ele>
        <time>2016-12-28T14:44:54Z</time>
      </trkpt>
      <trkpt lat="43.59681" lon="3.3488">
        <ele>402.4</ele>
        <time>2016-12-28T14:44:57Z</time>
      </trkpt>
      <trkpt lat="43.59675" lon="3.34872">
        <ele>402.2</ele>
        <time>2016-12-28T14:45:01Z</time>
      </trkpt>
      <trkpt lat="43.59667" lon="3.34865">
        <ele>402.2</ele>
        <time>2016-12-28T14:45:05Z</time>
      </trkpt>
      <trkpt lat="43.59662" lon="3.34856">
        <ele>402.2</ele>
        <time>2016-12-28T14:45:09Z</time>
      </trkpt>
      <trkpt lat="43.59656" lon="3.34847">
        <ele>402.2</ele>
        <time>2016-12-28T14:45:13Z</time>
      </trkpt>
      <trkpt lat="43.59652" lon="3.34839">
        <ele>402.2</ele>
        <time>2016-12-28T14:45:16Z</time>
      </trkpt>
      <trkpt lat="43.59647" lon="3.3483">
        <ele>402.1</ele>
        <time>2016-12-28T14:45:19Z</time>
      </trkpt>
      <trkpt lat="43.5964" lon="3.34823">
        <ele>402.2</ele>
        <time>2016-12-28T14:45:23Z</time>
      </trkpt>
      <trkpt lat="43.59633" lon="3.34818">
        <ele>402.2</ele>
        <time>2016-12-28T14:45:26Z</time>
      </trkpt>
      <trkpt lat="43.5963" lon="3.34808">
        <ele>402.4</ele>
        <time>2016-12-28T14:45:30Z</time>
      </trkpt>
      <trkpt lat="43.59627" lon="3.34799">
        <ele>402.7</ele>
        <time>2016-12-28T14:45:33Z</time>
      </trkpt>
      <trkpt lat="43.59626" lon="3.34789">
        <ele>403.1</ele>
        <time>2016-12-28T14:45:37Z</time>
      </trkpt>
      <trkpt lat="43.59623" lon="3.34778">
        <ele>403.4</ele>
        <time>2016-12-28T14:45:42Z</time>
      </trkpt>
      <trkpt lat="43.5962" lon="3.34767">
        <ele>403.4</ele>
        <time>2016-12-28T14:45:47Z</time>
      </trkpt>
      <trkpt lat="43.5962" lon="3.34755">
        <ele>403.7</ele>
        <time>2016-12-28T14:45:51Z</time>
      </trkpt>
      <trkpt lat="43.59619" lon="3.34744">
        <ele>404</ele>
        <time>2016-12-28T14:45:55Z</time>
      </trkpt>
      <trkpt lat="43.59617" lon="3.34734">
        <ele>404.7</ele>
        <time>2016-12-28T14:46:00Z</time>
      </trkpt>
      <trkpt lat="43.59615" lon="3.34723">
        <ele>405.2</ele>
        <time>2016-12-28T14:46:05Z</time>
      </trkpt>
      <trkpt lat="43.59613" lon="3.34713">
        <ele>405.7</ele>
        <time>2016-12-28T14:46:09Z</time>
      </trkpt>
      <trkpt lat="43.5961" lon="3.34702">
        <ele>406.3</ele>
        <time>2016-12-28T14:46:14Z</time>
      </trkpt>
      <trkpt lat="43.59607" lon="3.34692">
        <ele>406.9</ele>
        <time>2016-12-28T14:46:19Z</time>
      </trkpt>
      <trkpt lat="43.59603" lon="3.34681">
        <ele>407.6</ele>
        <time>2016-12-28T14:46:23Z</time>
      </trkpt>
      <trkpt lat="43.596" lon="3.34671">
        <ele>408.7</ele>
        <time>2016-12-28T14:46:29Z</time>
      </trkpt>
      <trkpt lat="43.59597" lon="3.34662">
        <ele>410.1</ele>
        <time>2016-12-28T14:46:35Z</time>
      </trkpt>
      <trkpt lat="43.59593" lon="3.34653">
        <ele>411.2</ele>
        <time>2016-12-28T14:46:40Z</time>
      </trkpt>
      <trkpt lat="43.59589" lon="3.34643">
        <ele>412.2</ele>
        <time>2016-12-28T14:46:44Z</time>
      </trkpt>
      <trkpt lat="43.59586" lon="3.34633">
        <ele>413.5</ele>
        <time>2016-12-28T14:46:49Z</time>
      </trkpt>
      <trkpt lat="43.59581" lon="3.34622">
        <ele>415.2</ele>
        <time>2016-12-28T14:46:56Z</time>
      </trkpt>
      <trkpt lat="43.59577" lon="3.34614">
        <ele>416.2</ele>
        <time>2016-12-28T14:47:01Z</time>
      </trkpt>
      <trkpt lat="43.59574" lon="3.34604">
        <ele>417</ele>
        <time>2016-12-28T14:47:06Z</time>
      </trkpt>
      <trkpt lat="43.59572" lon="3.34594">
        <ele>417.9</ele>
        <time>2016-12-28T14:47:11Z</time>
      </trkpt>
      <trkpt lat="43.5957" lon="3.34582">
        <ele>418.5</ele>
        <time>2016-12-28T14:47:15Z</time>
      </trkpt>
      <trkpt lat="43.59568" lon="3.34571">
        <ele>418.9</ele>
        <time>2016-12-28T14:47:18Z</time>
      </trkpt>
      <trkpt lat="43.59564" lon="3.34561">
        <ele>420</ele>
        <time>2016-12-28T14:47:20Z</time>
      </trkpt>
      <trkpt lat="43.59561" lon="3.34551">
        <ele>421.3</ele>
        <time>2016-12-28T14:47:22Z</time>
      </trkpt>
      <trkpt lat="43.59557" lon="3.34542">
        <ele>422.1</ele>
        <time>2016-12-28T14:47:24Z</time>
      </trkpt>
      <trkpt lat="43.59552" lon="3.34532">
        <ele>422.8</ele>
        <time>2016-12-28T14:47:26Z</time>
      </trkpt>
      <trkpt lat="43.59547" lon="3.34522">
        <ele>423.2</ele>
        <time>2016-12-28T14:47:28Z</time>
      </trkpt>
      <trkpt lat="43.59541" lon="3.34512">
        <ele>423.1</ele>
        <time>2016-12-28T14:47:30Z</time>
      </trkpt>
      <trkpt lat="43.59535" lon="3.34503">
        <ele>422.3</ele>
        <time>2016-12-28T14:47:32Z</time>
      </trkpt>
      <trkpt lat="43.59529" lon="3.34495">
        <ele>421.6</ele>
        <time>2016-12-28T14:47:34Z</time>
      </trkpt>
      <trkpt lat="43.59522" lon="3.34485">
        <ele>421</ele>
        <time>2016-12-28T14:47:36Z</time>
      </trkpt>
      <trkpt lat="43.59516" lon="3.34477">
        <ele>420.8</ele>
        <time>2016-12-28T14:47:38Z</time>
      </trkpt>
      <trkpt lat="43.5951" lon="3.34469">
        <ele>420.7</ele>
        <time>2016-12-28T14:47:40Z</time>
      </trkpt>
      <trkpt lat="43.59505" lon="3.3446">
        <ele>420.7</ele>
        <time>2016-12-28T14:47:43Z</time>
      </trkpt>
      <trkpt lat="43.59498" lon="3.34451">
        <ele>420.7</ele>
        <time>2016-12-28T14:47:47Z</time>
      </trkpt>
      <trkpt lat="43.59494" lon="3.34442">
        <ele>420.6</ele>
        <time>2016-12-28T14:47:50Z</time>
      </trkpt>
      <trkpt lat="43.59488" lon="3.34434">
        <ele>420.6</ele>
        <time>2016-12-28T14:47:53Z</time>
      </trkpt>
      <trkpt lat="43.59483" lon="3.34426">
        <ele>420.6</ele>
        <time>2016-12-28T14:47:56Z</time>
      </trkpt>
      <trkpt lat="43.59477" lon="3.34418">
        <ele>420.4</ele>
        <time>2016-12-28T14:48:01Z</time>
      </trkpt>
      <trkpt lat="43.59473" lon="3.3441">
        <ele>420.5</ele>
        <time>2016-12-28T14:48:05Z</time>
      </trkpt>
      <trkpt lat="43.59468" lon="3.34399">
        <ele>420.6</ele>
        <time>2016-12-28T14:48:09Z</time>
      </trkpt>
      <trkpt lat="43.59463" lon="3.34389">
        <ele>421</ele>
        <time>2016-12-28T14:48:13Z</time>
      </trkpt>
      <trkpt lat="43.59459" lon="3.34379">
        <ele>421.4</ele>
        <time>2016-12-28T14:48:17Z</time>
      </trkpt>
      <trkpt lat="43.59456" lon="3.34367">
        <ele>421.9</ele>
        <time>2016-12-28T14:48:22Z</time>
      </trkpt>
      <trkpt lat="43.59452" lon="3.34357">
        <ele>422.3</ele>
        <time>2016-12-28T14:48:26Z</time>
      </trkpt>
      <trkpt lat="43.59448" lon="3.34348">
        <ele>422.7</ele>
        <time>2016-12-28T14:48:30Z</time>
      </trkpt>
      <trkpt lat="43.59443" lon="3.3434">
        <ele>423.1</ele>
        <time>2016-12-28T14:48:33Z</time>
      </trkpt>
      <trkpt lat="43.59436" lon="3.34335">
        <ele>423.8</ele>
        <time>2016-12-28T14:48:38Z</time>
      </trkpt>
      <trkpt lat="43.59432" lon="3.34326">
        <ele>424.5</ele>
        <time>2016-12-28T14:48:43Z</time>
      </trkpt>
      <trkpt lat="43.59428" lon="3.34317">
        <ele>425.5</ele>
        <time>2016-12-28T14:48:49Z</time>
      </trkpt>
      <trkpt lat="43.59425" lon="3.34308">
        <ele>426.1</ele>
        <time>2016-12-28T14:48:53Z</time>
      </trkpt>
      <trkpt lat="43.59422" lon="3.34298">
        <ele>427</ele>
        <time>2016-12-28T14:48:58Z</time>
      </trkpt>
      <trkpt lat="43.59419" lon="3.34289">
        <ele>427.6</ele>
        <time>2016-12-28T14:49:04Z</time>
      </trkpt>
      <trkpt lat="43.59417" lon="3.34262">
        <ele>430</ele>
        <time>2016-12-28T14:50:41Z</time>
      </trkpt>
      <trkpt lat="43.59416" lon="3.34249">
        <ele>429.7</ele>
        <time>2016-12-28T14:50:43Z</time>
      </trkpt>
      <trkpt lat="43.59415" lon="3.34235">
        <ele>429.4</ele>
        <time>2016-12-28T14:50:45Z</time>
      </trkpt>
      <trkpt lat="43.59415" lon="3.34218">
        <ele>428.8</ele>
        <time>2016-12-28T14:50:47Z</time>
      </trkpt>
      <trkpt lat="43.59415" lon="3.34206">
        <ele>427.7</ele>
        <time>2016-12-28T14:50:49Z</time>
      </trkpt>
      <trkpt lat="43.59416" lon="3.34195">
        <ele>427.4</ele>
        <time>2016-12-28T14:50:53Z</time>
      </trkpt>
      <trkpt lat="43.5942" lon="3.34184">
        <ele>426.6</ele>
        <time>2016-12-28T14:50:57Z</time>
      </trkpt>
      <trkpt lat="43.59427" lon="3.34177">
        <ele>423.7</ele>
        <time>2016-12-28T14:51:00Z</time>
      </trkpt>
      <trkpt lat="43.59433" lon="3.34171">
        <ele>423.3</ele>
        <time>2016-12-28T14:51:02Z</time>
      </trkpt>
      <trkpt lat="43.59436" lon="3.3416">
        <ele>422</ele>
        <time>2016-12-28T14:51:06Z</time>
      </trkpt>
      <trkpt lat="43.5944" lon="3.3415">
        <ele>420.9</ele>
        <time>2016-12-28T14:51:09Z</time>
      </trkpt>
      <trkpt lat="43.59442" lon="3.34135">
        <ele>419.6</ele>
        <time>2016-12-28T14:51:13Z</time>
      </trkpt>
      <trkpt lat="43.59447" lon="3.34123">
        <ele>418.5</ele>
        <time>2016-12-28T14:51:16Z</time>
      </trkpt>
      <trkpt lat="43.59452" lon="3.34115">
        <ele>416.8</ele>
        <time>2016-12-28T14:51:20Z</time>
      </trkpt>
      <trkpt lat="43.59457" lon="3.34106">
        <ele>415.5</ele>
        <time>2016-12-28T14:51:23Z</time>
      </trkpt>
      <trkpt lat="43.59464" lon="3.34098">
        <ele>414</ele>
        <time>2016-12-28T14:51:26Z</time>
      </trkpt>
      <trkpt lat="43.59471" lon="3.34092">
        <ele>411.8</ele>
        <time>2016-12-28T14:51:30Z</time>
      </trkpt>
      <trkpt lat="43.59476" lon="3.34084">
        <ele>409.9</ele>
        <time>2016-12-28T14:51:34Z</time>
      </trkpt>
      <trkpt lat="43.59479" lon="3.34072">
        <ele>408.3</ele>
        <time>2016-12-28T14:51:37Z</time>
      </trkpt>
      <trkpt lat="43.59481" lon="3.34061">
        <ele>406.7</ele>
        <time>2016-12-28T14:51:40Z</time>
      </trkpt>
      <trkpt lat="43.59477" lon="3.34047">
        <ele>405.1</ele>
        <time>2016-12-28T14:51:43Z</time>
      </trkpt>
      <trkpt lat="43.59474" lon="3.34036">
        <ele>403.5</ele>
        <time>2016-12-28T14:51:46Z</time>
      </trkpt>
      <trkpt lat="43.59477" lon="3.34027">
        <ele>401.1</ele>
        <time>2016-12-28T14:51:50Z</time>
      </trkpt>
      <trkpt lat="43.59481" lon="3.34013">
        <ele>399.4</ele>
        <time>2016-12-28T14:51:53Z</time>
      </trkpt>
      <trkpt lat="43.59482" lon="3.34003">
        <ele>393.2</ele>
        <time>2016-12-28T14:51:55Z</time>
      </trkpt>
      <trkpt lat="43.59487" lon="3.3399">
        <ele>391.7</ele>
        <time>2016-12-28T14:51:58Z</time>
      </trkpt>
      <trkpt lat="43.59493" lon="3.33984">
        <ele>390.1</ele>
        <time>2016-12-28T14:52:01Z</time>
      </trkpt>
      <trkpt lat="43.59496" lon="3.33974">
        <ele>383.6</ele>
        <time>2016-12-28T14:52:03Z</time>
      </trkpt>
      <trkpt lat="43.59502" lon="3.33961">
        <ele>382</ele>
        <time>2016-12-28T14:52:06Z</time>
      </trkpt>
      <trkpt lat="43.59505" lon="3.33952">
        <ele>381</ele>
        <time>2016-12-28T14:52:08Z</time>
      </trkpt>
      <trkpt lat="43.5951" lon="3.33943">
        <ele>379.4</ele>
        <time>2016-12-28T14:52:11Z</time>
      </trkpt>
      <trkpt lat="43.59511" lon="3.33931">
        <ele>377.6</ele>
        <time>2016-12-28T14:52:14Z</time>
      </trkpt>
      <trkpt lat="43.59506" lon="3.33918">
        <ele>370.6</ele>
        <time>2016-12-28T14:52:17Z</time>
      </trkpt>
      <trkpt lat="43.59504" lon="3.33905">
        <ele>369</ele>
        <time>2016-12-28T14:52:20Z</time>
      </trkpt>
      <trkpt lat="43.59501" lon="3.33895">
        <ele>367.3</ele>
        <time>2016-12-28T14:52:23Z</time>
      </trkpt>
      <trkpt lat="43.59496" lon="3.33884">
        <ele>365.5</ele>
        <time>2016-12-28T14:52:26Z</time>
      </trkpt>
      <trkpt lat="43.5949" lon="3.33874">
        <ele>363.9</ele>
        <time>2016-12-28T14:52:29Z</time>
      </trkpt>
      <trkpt lat="43.5949" lon="3.33862">
        <ele>361.4</ele>
        <time>2016-12-28T14:52:33Z</time>
      </trkpt>
      <trkpt lat="43.59493" lon="3.33852">
        <ele>359.3</ele>
        <time>2016-12-28T14:52:36Z</time>
      </trkpt>
      <trkpt lat="43.59494" lon="3.3384">
        <ele>351</ele>
        <time>2016-12-28T14:52:39Z</time>
      </trkpt>
      <trkpt lat="43.59493" lon="3.3383">
        <ele>344.4</ele>
        <time>2016-12-28T14:52:41Z</time>
      </trkpt>
      <trkpt lat="43.59495" lon="3.33819">
        <ele>342.8</ele>
        <time>2016-12-28T14:52:44Z</time>
      </trkpt>
      <trkpt lat="43.59493" lon="3.33807">
        <ele>341.3</ele>
        <time>2016-12-28T14:52:47Z</time>
      </trkpt>
      <trkpt lat="43.59489" lon="3.33797">
        <ele>339.7</ele>
        <time>2016-12-28T14:52:50Z</time>
      </trkpt>
      <trkpt lat="43.5949" lon="3.33785">
        <ele>337.3</ele>
        <time>2016-12-28T14:52:54Z</time>
      </trkpt>
      <trkpt lat="43.59487" lon="3.33775">
        <ele>334.9</ele>
        <time>2016-12-28T14:52:58Z</time>
      </trkpt>
      <trkpt lat="43.59486" lon="3.33762">
        <ele>332.2</ele>
        <time>2016-12-28T14:53:02Z</time>
      </trkpt>
      <trkpt lat="43.59493" lon="3.33753">
        <ele>329.5</ele>
        <time>2016-12-28T14:53:06Z</time>
      </trkpt>
      <trkpt lat="43.59493" lon="3.33739">
        <ele>326.2</ele>
        <time>2016-12-28T14:53:11Z</time>
      </trkpt>
      <trkpt lat="43.59498" lon="3.3373">
        <ele>323.5</ele>
        <time>2016-12-28T14:53:15Z</time>
      </trkpt>
      <trkpt lat="43.59497" lon="3.33719">
        <ele>321.5</ele>
        <time>2016-12-28T14:53:18Z</time>
      </trkpt>
      <trkpt lat="43.59503" lon="3.33712">
        <ele>317.3</ele>
        <time>2016-12-28T14:53:24Z</time>
      </trkpt>
      <trkpt lat="43.59511" lon="3.33704">
        <ele>314.5</ele>
        <time>2016-12-28T14:53:28Z</time>
      </trkpt>
      <trkpt lat="43.59516" lon="3.33693">
        <ele>312.3</ele>
        <time>2016-12-28T14:53:31Z</time>
      </trkpt>
      <trkpt lat="43.59525" lon="3.3369">
        <ele>310</ele>
        <time>2016-12-28T14:53:34Z</time>
      </trkpt>
      <trkpt lat="43.59533" lon="3.33696">
        <ele>307.7</ele>
        <time>2016-12-28T14:53:37Z</time>
      </trkpt>
      <trkpt lat="43.59538" lon="3.33692">
        <ele>302.4</ele>
        <time>2016-12-28T14:53:44Z</time>
      </trkpt>
      <trkpt lat="43.59538" lon="3.33687">
        <ele>293.7</ele>
        <time>2016-12-28T14:54:27Z</time>
      </trkpt>
      <trkpt lat="43.59532" lon="3.33678">
        <ele>291</ele>
        <time>2016-12-28T14:54:33Z</time>
      </trkpt>
      <trkpt lat="43.59524" lon="3.33676">
        <ele>289.7</ele>
        <time>2016-12-28T14:54:36Z</time>
      </trkpt>
      <trkpt lat="43.59515" lon="3.33674">
        <ele>288.2</ele>
        <time>2016-12-28T14:54:40Z</time>
      </trkpt>
      <trkpt lat="43.59508" lon="3.33677">
        <ele>287.1</ele>
        <time>2016-12-28T14:54:43Z</time>
      </trkpt>
      <trkpt lat="43.595" lon="3.33682">
        <ele>285.7</ele>
        <time>2016-12-28T14:54:47Z</time>
      </trkpt>
      <trkpt lat="43.59493" lon="3.33687">
        <ele>284.4</ele>
        <time>2016-12-28T14:54:51Z</time>
      </trkpt>
      <trkpt lat="43.59485" lon="3.33692">
        <ele>282.9</ele>
        <time>2016-12-28T14:54:56Z</time>
      </trkpt>
      <trkpt lat="43.59478" lon="3.33701">
        <ele>282</ele>
        <time>2016-12-28T14:55:00Z</time>
      </trkpt>
      <trkpt lat="43.59474" lon="3.33708">
        <ele>280.9</ele>
        <time>2016-12-28T14:55:06Z</time>
      </trkpt>
      <trkpt lat="43.59466" lon="3.33712">
        <ele>280.4</ele>
        <time>2016-12-28T14:55:12Z</time>
      </trkpt>
      <trkpt lat="43.5946" lon="3.3372">
        <ele>280.2</ele>
        <time>2016-12-28T14:55:19Z</time>
      </trkpt>
      <trkpt lat="43.59452" lon="3.33727">
        <ele>280</ele>
        <time>2016-12-28T14:55:22Z</time>
      </trkpt>
      <trkpt lat="43.59444" lon="3.33732">
        <ele>279.8</ele>
        <time>2016-12-28T14:55:25Z</time>
      </trkpt>
      <trkpt lat="43.59438" lon="3.33739">
        <ele>279.7</ele>
        <time>2016-12-28T14:55:29Z</time>
      </trkpt>
      <trkpt lat="43.5943" lon="3.33745">
        <ele>279.4</ele>
        <time>2016-12-28T14:55:32Z</time>
      </trkpt>
      <trkpt lat="43.59423" lon="3.33753">
        <ele>279</ele>
        <time>2016-12-28T14:55:36Z</time>
      </trkpt>
      <trkpt lat="43.59416" lon="3.33758">
        <ele>278.7</ele>
        <time>2016-12-28T14:55:40Z</time>
      </trkpt>
      <trkpt lat="43.59409" lon="3.33766">
        <ele>278.8</ele>
        <time>2016-12-28T14:55:44Z</time>
      </trkpt>
      <trkpt lat="43.59404" lon="3.33774">
        <ele>278.8</ele>
        <time>2016-12-28T14:55:50Z</time>
      </trkpt>
      <trkpt lat="43.59399" lon="3.33789">
        <ele>277</ele>
        <time>2016-12-28T14:55:55Z</time>
      </trkpt>
      <trkpt lat="43.59395" lon="3.33802">
        <ele>274.5</ele>
        <time>2016-12-28T14:55:57Z</time>
      </trkpt>
      <trkpt lat="43.59393" lon="3.33814">
        <ele>274.4</ele>
        <time>2016-12-28T14:55:59Z</time>
      </trkpt>
      <trkpt lat="43.5939" lon="3.33824">
        <ele>274.1</ele>
        <time>2016-12-28T14:56:02Z</time>
      </trkpt>
      <trkpt lat="43.59383" lon="3.33834">
        <ele>273.6</ele>
        <time>2016-12-28T14:56:05Z</time>
      </trkpt>
      <trkpt lat="43.59375" lon="3.33842">
        <ele>271.6</ele>
        <time>2016-12-28T14:56:07Z</time>
      </trkpt>
      <trkpt lat="43.59369" lon="3.33851">
        <ele>271.3</ele>
        <time>2016-12-28T14:56:09Z</time>
      </trkpt>
      <trkpt lat="43.59363" lon="3.33857">
        <ele>271</ele>
        <time>2016-12-28T14:56:11Z</time>
      </trkpt>
      <trkpt lat="43.59354" lon="3.33865">
        <ele>270.7</ele>
        <time>2016-12-28T14:56:13Z</time>
      </trkpt>
      <trkpt lat="43.59347" lon="3.3387">
        <ele>268.7</ele>
        <time>2016-12-28T14:56:15Z</time>
      </trkpt>
      <trkpt lat="43.5934" lon="3.33875">
        <ele>268.4</ele>
        <time>2016-12-28T14:56:17Z</time>
      </trkpt>
      <trkpt lat="43.59333" lon="3.3388">
        <ele>268.1</ele>
        <time>2016-12-28T14:56:19Z</time>
      </trkpt>
      <trkpt lat="43.59325" lon="3.33883">
        <ele>263.5</ele>
        <time>2016-12-28T14:56:21Z</time>
      </trkpt>
      <trkpt lat="43.59317" lon="3.33887">
        <ele>263.3</ele>
        <time>2016-12-28T14:56:23Z</time>
      </trkpt>
      <trkpt lat="43.59309" lon="3.33888">
        <ele>261.5</ele>
        <time>2016-12-28T14:56:25Z</time>
      </trkpt>
      <trkpt lat="43.59298" lon="3.3389">
        <ele>260.4</ele>
        <time>2016-12-28T14:56:27Z</time>
      </trkpt>
      <trkpt lat="43.59291" lon="3.33892">
        <ele>258.8</ele>
        <time>2016-12-28T14:56:29Z</time>
      </trkpt>
      <trkpt lat="43.59282" lon="3.33889">
        <ele>258.6</ele>
        <time>2016-12-28T14:56:32Z</time>
      </trkpt>
      <trkpt lat="43.59276" lon="3.33883">
        <ele>258.6</ele>
        <time>2016-12-28T14:56:34Z</time>
      </trkpt>
      <trkpt lat="43.59267" lon="3.33876">
        <ele>258.4</ele>
        <time>2016-12-28T14:56:36Z</time>
      </trkpt>
      <trkpt lat="43.59261" lon="3.3387">
        <ele>258.1</ele>
        <time>2016-12-28T14:56:38Z</time>
      </trkpt>
      <trkpt lat="43.59253" lon="3.33872">
        <ele>257.2</ele>
        <time>2016-12-28T14:56:42Z</time>
      </trkpt>
      <trkpt lat="43.59246" lon="3.33874">
        <ele>256.1</ele>
        <time>2016-12-28T14:56:46Z</time>
      </trkpt>
      <trkpt lat="43.59248" lon="3.33868">
        <ele>254.4</ele>
        <time>2016-12-28T14:56:53Z</time>
      </trkpt>
      <trkpt lat="43.59248" lon="3.33856">
        <ele>253.7</ele>
        <time>2016-12-28T14:56:56Z</time>
      </trkpt>
      <trkpt lat="43.59242" lon="3.33845">
        <ele>252.6</ele>
        <time>2016-12-28T14:57:00Z</time>
      </trkpt>
      <trkpt lat="43.59237" lon="3.33838">
        <ele>252.1</ele>
        <time>2016-12-28T14:57:02Z</time>
      </trkpt>
      <trkpt lat="43.59229" lon="3.33831">
        <ele>251.2</ele>
        <time>2016-12-28T14:57:05Z</time>
      </trkpt>
      <trkpt lat="43.59222" lon="3.33825">
        <ele>250.6</ele>
        <time>2016-12-28T14:57:07Z</time>
      </trkpt>
      <trkpt lat="43.59214" lon="3.33823">
        <ele>249.7</ele>
        <time>2016-12-28T14:57:10Z</time>
      </trkpt>
      <trkpt lat="43.5921" lon="3.33821">
        <ele>247.8</ele>
        <time>2016-12-28T14:57:17Z</time>
      </trkpt>
      <trkpt lat="43.59208" lon="3.33824">
        <ele>246.3</ele>
        <time>2016-12-28T14:57:24Z</time>
      </trkpt>
      <trkpt lat="43.59196" lon="3.33844">
        <ele>242.7</ele>
        <time>2016-12-28T14:57:40Z</time>
      </trkpt>
      <trkpt lat="43.59194" lon="3.33856">
        <ele>242.1</ele>
        <time>2016-12-28T14:57:43Z</time>
      </trkpt>
      <trkpt lat="43.59192" lon="3.33867">
        <ele>241.5</ele>
        <time>2016-12-28T14:57:46Z</time>
      </trkpt>
      <trkpt lat="43.59191" lon="3.33877">
        <ele>241.2</ele>
        <time>2016-12-28T14:57:48Z</time>
      </trkpt>
      <trkpt lat="43.59187" lon="3.33892">
        <ele>236.5</ele>
        <time>2016-12-28T14:57:51Z</time>
      </trkpt>
      <trkpt lat="43.59184" lon="3.33903">
        <ele>235.4</ele>
        <time>2016-12-28T14:57:53Z</time>
      </trkpt>
      <trkpt lat="43.5918" lon="3.33912">
        <ele>235.2</ele>
        <time>2016-12-28T14:57:55Z</time>
      </trkpt>
      <trkpt lat="43.59174" lon="3.33926">
        <ele>234.9</ele>
        <time>2016-12-28T14:57:58Z</time>
      </trkpt>
      <trkpt lat="43.59171" lon="3.33938">
        <ele>234.5</ele>
        <time>2016-12-28T14:58:02Z</time>
      </trkpt>
      <trkpt lat="43.59169" lon="3.33947">
        <ele>233.1</ele>
        <time>2016-12-28T14:58:04Z</time>
      </trkpt>
      <trkpt lat="43.59166" lon="3.33959">
        <ele>232.1</ele>
        <time>2016-12-28T14:58:06Z</time>
      </trkpt>
      <trkpt lat="43.59162" lon="3.33973">
        <ele>231.3</ele>
        <time>2016-12-28T14:58:09Z</time>
      </trkpt>
      <trkpt lat="43.59157" lon="3.33985">
        <ele>231.1</ele>
        <time>2016-12-28T14:58:12Z</time>
      </trkpt>
      <trkpt lat="43.59152" lon="3.33997">
        <ele>231</ele>
        <time>2016-12-28T14:58:15Z</time>
      </trkpt>
      <trkpt lat="43.59147" lon="3.34007">
        <ele>230.9</ele>
        <time>2016-12-28T14:58:18Z</time>
      </trkpt>
      <trkpt lat="43.5914" lon="3.34019">
        <ele>230.6</ele>
        <time>2016-12-28T14:58:21Z</time>
      </trkpt>
      <trkpt lat="43.59137" lon="3.34028">
        <ele>230.3</ele>
        <time>2016-12-28T14:58:24Z</time>
      </trkpt>
      <trkpt lat="43.59137" lon="3.3404">
        <ele>230.4</ele>
        <time>2016-12-28T14:58:28Z</time>
      </trkpt>
      <trkpt lat="43.59139" lon="3.34051">
        <ele>230.6</ele>
        <time>2016-12-28T14:58:32Z</time>
      </trkpt>
      <trkpt lat="43.59138" lon="3.34062">
        <ele>230.6</ele>
        <time>2016-12-28T14:58:37Z</time>
      </trkpt>
      <trkpt lat="43.59137" lon="3.34072">
        <ele>230.9</ele>
        <time>2016-12-28T14:58:41Z</time>
      </trkpt>
      <trkpt lat="43.59137" lon="3.34084">
        <ele>231.4</ele>
        <time>2016-12-28T14:58:47Z</time>
      </trkpt>
      <trkpt lat="43.59136" lon="3.34096">
        <ele>231.7</ele>
        <time>2016-12-28T14:58:50Z</time>
      </trkpt>
      <trkpt lat="43.59137" lon="3.34106">
        <ele>232.3</ele>
        <time>2016-12-28T14:58:55Z</time>
      </trkpt>
      <trkpt lat="43.59137" lon="3.34117">
        <ele>232.9</ele>
        <time>2016-12-28T14:58:59Z</time>
      </trkpt>
      <trkpt lat="43.59137" lon="3.34129">
        <ele>233.8</ele>
        <time>2016-12-28T14:59:04Z</time>
      </trkpt>
      <trkpt lat="43.59137" lon="3.3414">
        <ele>234.5</ele>
        <time>2016-12-28T14:59:08Z</time>
      </trkpt>
      <trkpt lat="43.59136" lon="3.34151">
        <ele>235.7</ele>
        <time>2016-12-28T14:59:14Z</time>
      </trkpt>
      <trkpt lat="43.59137" lon="3.34163">
        <ele>236.6</ele>
        <time>2016-12-28T14:59:19Z</time>
      </trkpt>
      <trkpt lat="43.59137" lon="3.34174">
        <ele>237.2</ele>
        <time>2016-12-28T14:59:24Z</time>
      </trkpt>
      <trkpt lat="43.59136" lon="3.34185">
        <ele>237.8</ele>
        <time>2016-12-28T14:59:28Z</time>
      </trkpt>
      <trkpt lat="43.59135" lon="3.34195">
        <ele>238.4</ele>
        <time>2016-12-28T14:59:33Z</time>
      </trkpt>
      <trkpt lat="43.59133" lon="3.34206">
        <ele>239</ele>
        <time>2016-12-28T14:59:38Z</time>
      </trkpt>
      <trkpt lat="43.59134" lon="3.34217">
        <ele>239.9</ele>
        <time>2016-12-28T14:59:43Z</time>
      </trkpt>
      <trkpt lat="43.59135" lon="3.34228">
        <ele>240.7</ele>
        <time>2016-12-28T14:59:48Z</time>
      </trkpt>
      <trkpt lat="43.59132" lon="3.34238">
        <ele>241.5</ele>
        <time>2016-12-28T14:59:54Z</time>
      </trkpt>
      <trkpt lat="43.59131" lon="3.34248">
        <ele>241.9</ele>
        <time>2016-12-28T14:59:58Z</time>
      </trkpt>
      <trkpt lat="43.59131" lon="3.34258">
        <ele>242.5</ele>
        <time>2016-12-28T15:00:02Z</time>
      </trkpt>
      <trkpt lat="43.5913" lon="3.34268">
        <ele>243</ele>
        <time>2016-12-28T15:00:07Z</time>
      </trkpt>
      <trkpt lat="43.59131" lon="3.34282">
        <ele>243.5</ele>
        <time>2016-12-28T15:00:12Z</time>
      </trkpt>
      <trkpt lat="43.59132" lon="3.34296">
        <ele>243.9</ele>
        <time>2016-12-28T15:00:15Z</time>
      </trkpt>
      <trkpt lat="43.59131" lon="3.34309">
        <ele>244.4</ele>
        <time>2016-12-28T15:00:18Z</time>
      </trkpt>
      <trkpt lat="43.59128" lon="3.34322">
        <ele>244.8</ele>
        <time>2016-12-28T15:00:21Z</time>
      </trkpt>
      <trkpt lat="43.59127" lon="3.34333">
        <ele>245.1</ele>
        <time>2016-12-28T15:00:24Z</time>
      </trkpt>
      <trkpt lat="43.59124" lon="3.34344">
        <ele>245.3</ele>
        <time>2016-12-28T15:00:27Z</time>
      </trkpt>
      <trkpt lat="43.59122" lon="3.34355">
        <ele>245.5</ele>
        <time>2016-12-28T15:00:30Z</time>
      </trkpt>
      <trkpt lat="43.59121" lon="3.34367">
        <ele>245.9</ele>
        <time>2016-12-28T15:00:34Z</time>
      </trkpt>
      <trkpt lat="43.59124" lon="3.34376">
        <ele>246.5</ele>
        <time>2016-12-28T15:00:38Z</time>
      </trkpt>
      <trkpt lat="43.59127" lon="3.34389">
        <ele>247.1</ele>
        <time>2016-12-28T15:00:42Z</time>
      </trkpt>
      <trkpt lat="43.59131" lon="3.344">
        <ele>247.7</ele>
        <time>2016-12-28T15:00:46Z</time>
      </trkpt>
      <trkpt lat="43.59136" lon="3.34411">
        <ele>248.1</ele>
        <time>2016-12-28T15:00:50Z</time>
      </trkpt>
      <trkpt lat="43.59142" lon="3.34421">
        <ele>248.3</ele>
        <time>2016-12-28T15:00:53Z</time>
      </trkpt>
      <trkpt lat="43.59148" lon="3.3443">
        <ele>249.4</ele>
        <time>2016-12-28T15:00:56Z</time>
      </trkpt>
      <trkpt lat="43.59155" lon="3.34441">
        <ele>249.7</ele>
        <time>2016-12-28T15:00:59Z</time>
      </trkpt>
      <trkpt lat="43.59158" lon="3.34451">
        <ele>250.3</ele>
        <time>2016-12-28T15:01:03Z</time>
      </trkpt>
      <trkpt lat="43.59162" lon="3.34464">
        <ele>250.7</ele>
        <time>2016-12-28T15:01:06Z</time>
      </trkpt>
      <trkpt lat="43.59163" lon="3.34475">
        <ele>251.8</ele>
        <time>2016-12-28T15:01:08Z</time>
      </trkpt>
      <trkpt lat="43.59166" lon="3.34488">
        <ele>251.8</ele>
        <time>2016-12-28T15:01:10Z</time>
      </trkpt>
      <trkpt lat="43.59168" lon="3.34499">
        <ele>252.5</ele>
        <time>2016-12-28T15:01:12Z</time>
      </trkpt>
      <trkpt lat="43.59172" lon="3.34514">
        <ele>253.2</ele>
        <time>2016-12-28T15:01:14Z</time>
      </trkpt>
      <trkpt lat="43.59174" lon="3.34532">
        <ele>252.9</ele>
        <time>2016-12-28T15:01:16Z</time>
      </trkpt>
      <trkpt lat="43.59176" lon="3.34544">
        <ele>252.4</ele>
        <time>2016-12-28T15:01:18Z</time>
      </trkpt>
      <trkpt lat="43.59177" lon="3.3456">
        <ele>251.2</ele>
        <time>2016-12-28T15:01:20Z</time>
      </trkpt>
      <trkpt lat="43.5918" lon="3.34574">
        <ele>251.1</ele>
        <time>2016-12-28T15:01:22Z</time>
      </trkpt>
      <trkpt lat="43.59183" lon="3.34588">
        <ele>250.8</ele>
        <time>2016-12-28T15:01:24Z</time>
      </trkpt>
      <trkpt lat="43.59184" lon="3.34602">
        <ele>251.1</ele>
        <time>2016-12-28T15:01:26Z</time>
      </trkpt>
      <trkpt lat="43.59188" lon="3.34615">
        <ele>250.6</ele>
        <time>2016-12-28T15:01:28Z</time>
      </trkpt>
      <trkpt lat="43.59196" lon="3.34624">
        <ele>250.5</ele>
        <time>2016-12-28T15:01:30Z</time>
      </trkpt>
      <trkpt lat="43.59201" lon="3.34633">
        <ele>250.4</ele>
        <time>2016-12-28T15:01:35Z</time>
      </trkpt>
      <trkpt lat="43.59204" lon="3.34643">
        <ele>250.1</ele>
        <time>2016-12-28T15:01:39Z</time>
      </trkpt>
      <trkpt lat="43.59208" lon="3.34652">
        <ele>249.8</ele>
        <time>2016-12-28T15:01:43Z</time>
      </trkpt>
      <trkpt lat="43.5921" lon="3.34664">
        <ele>249.3</ele>
        <time>2016-12-28T15:01:47Z</time>
      </trkpt>
      <trkpt lat="43.59214" lon="3.34677">
        <ele>248.8</ele>
        <time>2016-12-28T15:01:51Z</time>
      </trkpt>
      <trkpt lat="43.59216" lon="3.34688">
        <ele>248.5</ele>
        <time>2016-12-28T15:01:54Z</time>
      </trkpt>
      <trkpt lat="43.59219" lon="3.34699">
        <ele>248.6</ele>
        <time>2016-12-28T15:01:57Z</time>
      </trkpt>
      <trkpt lat="43.59222" lon="3.3471">
        <ele>248.5</ele>
        <time>2016-12-28T15:02:00Z</time>
      </trkpt>
      <trkpt lat="43.59226" lon="3.34719">
        <ele>248.4</ele>
        <time>2016-12-28T15:02:03Z</time>
      </trkpt>
      <trkpt lat="43.59229" lon="3.34734">
        <ele>247.6</ele>
        <time>2016-12-28T15:02:06Z</time>
      </trkpt>
      <trkpt lat="43.59229" lon="3.34749">
        <ele>247.6</ele>
        <time>2016-12-28T15:02:09Z</time>
      </trkpt>
      <trkpt lat="43.5923" lon="3.34762">
        <ele>247.8</ele>
        <time>2016-12-28T15:02:11Z</time>
      </trkpt>
      <trkpt lat="43.59228" lon="3.34774">
        <ele>247.3</ele>
        <time>2016-12-28T15:02:13Z</time>
      </trkpt>
      <trkpt lat="43.59231" lon="3.34786">
        <ele>246.8</ele>
        <time>2016-12-28T15:02:15Z</time>
      </trkpt>
      <trkpt lat="43.59232" lon="3.34797">
        <ele>246.4</ele>
        <time>2016-12-28T15:02:17Z</time>
      </trkpt>
      <trkpt lat="43.59228" lon="3.34807">
        <ele>245.7</ele>
        <time>2016-12-28T15:02:19Z</time>
      </trkpt>
      <trkpt lat="43.59221" lon="3.34819">
        <ele>243.7</ele>
        <time>2016-12-28T15:02:22Z</time>
      </trkpt>
      <trkpt lat="43.59216" lon="3.34828">
        <ele>242</ele>
        <time>2016-12-28T15:02:24Z</time>
      </trkpt>
      <trkpt lat="43.59212" lon="3.34838">
        <ele>241.5</ele>
        <time>2016-12-28T15:02:26Z</time>
      </trkpt>
      <trkpt lat="43.59211" lon="3.3485">
        <ele>241.8</ele>
        <time>2016-12-28T15:02:28Z</time>
      </trkpt>
      <trkpt lat="43.59215" lon="3.34859">
        <ele>241.7</ele>
        <time>2016-12-28T15:02:30Z</time>
      </trkpt>
      <trkpt lat="43.59219" lon="3.3487">
        <ele>239.9</ele>
        <time>2016-12-28T15:02:32Z</time>
      </trkpt>
      <trkpt lat="43.59222" lon="3.3488">
        <ele>238.7</ele>
        <time>2016-12-28T15:02:34Z</time>
      </trkpt>
      <trkpt lat="43.59226" lon="3.34891">
        <ele>238.2</ele>
        <time>2016-12-28T15:02:36Z</time>
      </trkpt>
      <trkpt lat="43.59231" lon="3.34902">
        <ele>237.6</ele>
        <time>2016-12-28T15:02:38Z</time>
      </trkpt>
      <trkpt lat="43.59235" lon="3.34913">
        <ele>236.6</ele>
        <time>2016-12-28T15:02:40Z</time>
      </trkpt>
      <trkpt lat="43.59237" lon="3.34925">
        <ele>235.8</ele>
        <time>2016-12-28T15:02:42Z</time>
      </trkpt>
      <trkpt lat="43.59239" lon="3.3494">
        <ele>234.8</ele>
        <time>2016-12-28T15:02:44Z</time>
      </trkpt>
      <trkpt lat="43.59241" lon="3.34955">
        <ele>233.7</ele>
        <time>2016-12-28T15:02:46Z</time>
      </trkpt>
      <trkpt lat="43.59243" lon="3.34972">
        <ele>232.1</ele>
        <time>2016-12-28T15:02:48Z</time>
      </trkpt>
      <trkpt lat="43.59246" lon="3.34988">
        <ele>230.4</ele>
        <time>2016-12-28T15:02:50Z</time>
      </trkpt>
      <trkpt lat="43.5925" lon="3.35004">
        <ele>229.5</ele>
        <time>2016-12-28T15:02:52Z</time>
      </trkpt>
      <trkpt lat="43.59252" lon="3.35016">
        <ele>228.9</ele>
        <time>2016-12-28T15:02:54Z</time>
      </trkpt>
      <trkpt lat="43.59256" lon="3.3503">
        <ele>228.2</ele>
        <time>2016-12-28T15:02:56Z</time>
      </trkpt>
      <trkpt lat="43.59263" lon="3.35045">
        <ele>226.4</ele>
        <time>2016-12-28T15:02:58Z</time>
      </trkpt>
      <trkpt lat="43.59267" lon="3.35058">
        <ele>224.3</ele>
        <time>2016-12-28T15:03:00Z</time>
      </trkpt>
      <trkpt lat="43.59268" lon="3.35069">
        <ele>223.3</ele>
        <time>2016-12-28T15:03:03Z</time>
      </trkpt>
      <trkpt lat="43.59261" lon="3.35073">
        <ele>222.7</ele>
        <time>2016-12-28T15:03:06Z</time>
      </trkpt>
      <trkpt lat="43.59253" lon="3.35071">
        <ele>222.1</ele>
        <time>2016-12-28T15:03:08Z</time>
      </trkpt>
      <trkpt lat="43.59244" lon="3.3507">
        <ele>222</ele>
        <time>2016-12-28T15:03:10Z</time>
      </trkpt>
      <trkpt lat="43.59236" lon="3.35072">
        <ele>220.6</ele>
        <time>2016-12-28T15:03:12Z</time>
      </trkpt>
      <trkpt lat="43.59225" lon="3.35071">
        <ele>219.1</ele>
        <time>2016-12-28T15:03:14Z</time>
      </trkpt>
      <trkpt lat="43.59217" lon="3.35066">
        <ele>217.7</ele>
        <time>2016-12-28T15:03:16Z</time>
      </trkpt>
      <trkpt lat="43.59207" lon="3.35062">
        <ele>216.7</ele>
        <time>2016-12-28T15:03:18Z</time>
      </trkpt>
      <trkpt lat="43.59199" lon="3.35066">
        <ele>216.2</ele>
        <time>2016-12-28T15:03:20Z</time>
      </trkpt>
      <trkpt lat="43.59197" lon="3.35079">
        <ele>216.2</ele>
        <time>2016-12-28T15:03:22Z</time>
      </trkpt>
      <trkpt lat="43.59201" lon="3.35094">
        <ele>214.6</ele>
        <time>2016-12-28T15:03:24Z</time>
      </trkpt>
      <trkpt lat="43.59208" lon="3.35108">
        <ele>212.8</ele>
        <time>2016-12-28T15:03:26Z</time>
      </trkpt>
      <trkpt lat="43.59214" lon="3.35125">
        <ele>211.2</ele>
        <time>2016-12-28T15:03:28Z</time>
      </trkpt>
      <trkpt lat="43.59218" lon="3.35143">
        <ele>209.8</ele>
        <time>2016-12-28T15:03:30Z</time>
      </trkpt>
      <trkpt lat="43.59215" lon="3.35161">
        <ele>207.9</ele>
        <time>2016-12-28T15:03:32Z</time>
      </trkpt>
      <trkpt lat="43.59214" lon="3.35178">
        <ele>206.2</ele>
        <time>2016-12-28T15:03:34Z</time>
      </trkpt>
      <trkpt lat="43.59216" lon="3.35193">
        <ele>204.6</ele>
        <time>2016-12-28T15:03:36Z</time>
      </trkpt>
      <trkpt lat="43.59221" lon="3.35205">
        <ele>204</ele>
        <time>2016-12-28T15:03:38Z</time>
      </trkpt>
      <trkpt lat="43.59224" lon="3.35206">
        <ele>203.4</ele>
        <time>2016-12-28T15:03:45Z</time>
      </trkpt>
      <trkpt lat="43.59226" lon="3.35217">
        <ele>203.1</ele>
        <time>2016-12-28T15:03:48Z</time>
      </trkpt>
      <trkpt lat="43.59222" lon="3.35231">
        <ele>203</ele>
        <time>2016-12-28T15:03:51Z</time>
      </trkpt>
      <trkpt lat="43.59215" lon="3.3524">
        <ele>202.7</ele>
        <time>2016-12-28T15:03:54Z</time>
      </trkpt>
      <trkpt lat="43.59209" lon="3.35249">
        <ele>201.6</ele>
        <time>2016-12-28T15:03:56Z</time>
      </trkpt>
      <trkpt lat="43.59205" lon="3.3526">
        <ele>200.3</ele>
        <time>2016-12-28T15:03:58Z</time>
      </trkpt>
      <trkpt lat="43.59202" lon="3.35275">
        <ele>199.1</ele>
        <time>2016-12-28T15:04:00Z</time>
      </trkpt>
      <trkpt lat="43.59199" lon="3.35291">
        <ele>197.8</ele>
        <time>2016-12-28T15:04:02Z</time>
      </trkpt>
      <trkpt lat="43.59194" lon="3.35305">
        <ele>196.9</ele>
        <time>2016-12-28T15:04:04Z</time>
      </trkpt>
      <trkpt lat="43.59188" lon="3.35317">
        <ele>194.4</ele>
        <time>2016-12-28T15:04:06Z</time>
      </trkpt>
      <trkpt lat="43.59185" lon="3.3533">
        <ele>192.3</ele>
        <time>2016-12-28T15:04:08Z</time>
      </trkpt>
      <trkpt lat="43.59186" lon="3.35346">
        <ele>191.4</ele>
        <time>2016-12-28T15:04:10Z</time>
      </trkpt>
      <trkpt lat="43.59179" lon="3.35354">
        <ele>191.2</ele>
        <time>2016-12-28T15:04:12Z</time>
      </trkpt>
      <trkpt lat="43.5917" lon="3.35352">
        <ele>192</ele>
        <time>2016-12-28T15:04:14Z</time>
      </trkpt>
      <trkpt lat="43.59159" lon="3.35351">
        <ele>192.4</ele>
        <time>2016-12-28T15:04:16Z</time>
      </trkpt>
      <trkpt lat="43.59149" lon="3.35356">
        <ele>191.9</ele>
        <time>2016-12-28T15:04:18Z</time>
      </trkpt>
      <trkpt lat="43.59143" lon="3.35363">
        <ele>189.8</ele>
        <time>2016-12-28T15:04:20Z</time>
      </trkpt>
      <trkpt lat="43.59134" lon="3.35371">
        <ele>188.5</ele>
        <time>2016-12-28T15:04:22Z</time>
      </trkpt>
      <trkpt lat="43.59127" lon="3.35377">
        <ele>187.8</ele>
        <time>2016-12-28T15:04:24Z</time>
      </trkpt>
      <trkpt lat="43.59118" lon="3.35385">
        <ele>186.6</ele>
        <time>2016-12-28T15:04:26Z</time>
      </trkpt>
      <trkpt lat="43.5911" lon="3.35394">
        <ele>185.6</ele>
        <time>2016-12-28T15:04:28Z</time>
      </trkpt>
      <trkpt lat="43.59102" lon="3.35399">
        <ele>185.5</ele>
        <time>2016-12-28T15:04:30Z</time>
      </trkpt>
      <trkpt lat="43.5909" lon="3.35403">
        <ele>184.8</ele>
        <time>2016-12-28T15:04:32Z</time>
      </trkpt>
      <trkpt lat="43.59078" lon="3.3541">
        <ele>185.3</ele>
        <time>2016-12-28T15:04:34Z</time>
      </trkpt>
      <trkpt lat="43.59068" lon="3.3542">
        <ele>185.2</ele>
        <time>2016-12-28T15:04:36Z</time>
      </trkpt>
      <trkpt lat="43.59056" lon="3.35431">
        <ele>184.2</ele>
        <time>2016-12-28T15:04:38Z</time>
      </trkpt>
      <trkpt lat="43.59042" lon="3.35437">
        <ele>182.9</ele>
        <time>2016-12-28T15:04:40Z</time>
      </trkpt>
      <trkpt lat="43.59035" lon="3.35439">
        <ele>182.2</ele>
        <time>2016-12-28T15:04:41Z</time>
      </trkpt>
      <trkpt lat="43.59022" lon="3.35441">
        <ele>181.6</ele>
        <time>2016-12-28T15:04:43Z</time>
      </trkpt>
      <trkpt lat="43.59011" lon="3.35448">
        <ele>180.8</ele>
        <time>2016-12-28T15:04:45Z</time>
      </trkpt>
      <trkpt lat="43.59001" lon="3.3546">
        <ele>179.5</ele>
        <time>2016-12-28T15:04:47Z</time>
      </trkpt>
      <trkpt lat="43.58993" lon="3.35471">
        <ele>178.5</ele>
        <time>2016-12-28T15:04:49Z</time>
      </trkpt>
      <trkpt lat="43.58985" lon="3.35483">
        <ele>177.4</ele>
        <time>2016-12-28T15:04:51Z</time>
      </trkpt>
      <trkpt lat="43.58978" lon="3.35497">
        <ele>177.2</ele>
        <time>2016-12-28T15:04:53Z</time>
      </trkpt>
      <trkpt lat="43.58972" lon="3.3551">
        <ele>177.6</ele>
        <time>2016-12-28T15:04:55Z</time>
      </trkpt>
      <trkpt lat="43.58966" lon="3.35523">
        <ele>177.7</ele>
        <time>2016-12-28T15:04:57Z</time>
      </trkpt>
      <trkpt lat="43.5896" lon="3.35536">
        <ele>177.6</ele>
        <time>2016-12-28T15:04:59Z</time>
      </trkpt>
      <trkpt lat="43.58957" lon="3.3555">
        <ele>176.9</ele>
        <time>2016-12-28T15:05:01Z</time>
      </trkpt>
      <trkpt lat="43.58954" lon="3.35566">
        <ele>176.1</ele>
        <time>2016-12-28T15:05:03Z</time>
      </trkpt>
      <trkpt lat="43.58947" lon="3.35577">
        <ele>175.3</ele>
        <time>2016-12-28T15:05:05Z</time>
      </trkpt>
      <trkpt lat="43.58938" lon="3.35589">
        <ele>174.7</ele>
        <time>2016-12-28T15:05:07Z</time>
      </trkpt>
      <trkpt lat="43.5893" lon="3.35603">
        <ele>173.7</ele>
        <time>2016-12-28T15:05:09Z</time>
      </trkpt>
      <trkpt lat="43.58923" lon="3.35617">
        <ele>172.9</ele>
        <time>2016-12-28T15:05:11Z</time>
      </trkpt>
      <trkpt lat="43.58917" lon="3.35632">
        <ele>172.2</ele>
        <time>2016-12-28T15:05:13Z</time>
      </trkpt>
      <trkpt lat="43.58911" lon="3.35644">
        <ele>171.2</ele>
        <time>2016-12-28T15:05:15Z</time>
      </trkpt>
      <trkpt lat="43.58907" lon="3.35654">
        <ele>170.9</ele>
        <time>2016-12-28T15:05:17Z</time>
      </trkpt>
      <trkpt lat="43.58903" lon="3.35663">
        <ele>171</ele>
        <time>2016-12-28T15:05:19Z</time>
      </trkpt>
      <trkpt lat="43.58898" lon="3.35672">
        <ele>171.1</ele>
        <time>2016-12-28T15:05:22Z</time>
      </trkpt>
      <trkpt lat="43.58893" lon="3.35679">
        <ele>171</ele>
        <time>2016-12-28T15:05:24Z</time>
      </trkpt>
      <trkpt lat="43.58883" lon="3.35683">
        <ele>171.1</ele>
        <time>2016-12-28T15:05:26Z</time>
      </trkpt>
      <trkpt lat="43.58875" lon="3.35688">
        <ele>171.3</ele>
        <time>2016-12-28T15:05:28Z</time>
      </trkpt>
      <trkpt lat="43.58869" lon="3.35697">
        <ele>172</ele>
        <time>2016-12-28T15:05:30Z</time>
      </trkpt>
      <trkpt lat="43.58861" lon="3.35708">
        <ele>172.9</ele>
        <time>2016-12-28T15:05:32Z</time>
      </trkpt>
      <trkpt lat="43.58856" lon="3.35718">
        <ele>173.4</ele>
        <time>2016-12-28T15:05:34Z</time>
      </trkpt>
      <trkpt lat="43.58849" lon="3.3573">
        <ele>173.8</ele>
        <time>2016-12-28T15:05:36Z</time>
      </trkpt>
      <trkpt lat="43.58841" lon="3.35741">
        <ele>173.9</ele>
        <time>2016-12-28T15:05:38Z</time>
      </trkpt>
      <trkpt lat="43.58834" lon="3.35754">
        <ele>174.1</ele>
        <time>2016-12-28T15:05:40Z</time>
      </trkpt>
      <trkpt lat="43.58825" lon="3.35766">
        <ele>173.7</ele>
        <time>2016-12-28T15:05:42Z</time>
      </trkpt>
      <trkpt lat="43.58817" lon="3.35775">
        <ele>173.8</ele>
        <time>2016-12-28T15:05:44Z</time>
      </trkpt>
      <trkpt lat="43.5881" lon="3.35785">
        <ele>173.8</ele>
        <time>2016-12-28T15:05:46Z</time>
      </trkpt>
      <trkpt lat="43.58801" lon="3.35793">
        <ele>174.2</ele>
        <time>2016-12-28T15:05:48Z</time>
      </trkpt>
      <trkpt lat="43.58793" lon="3.35802">
        <ele>174.5</ele>
        <time>2016-12-28T15:05:50Z</time>
      </trkpt>
      <trkpt lat="43.58786" lon="3.35811">
        <ele>175.7</ele>
        <time>2016-12-28T15:05:52Z</time>
      </trkpt>
      <trkpt lat="43.5878" lon="3.35817">
        <ele>176</ele>
        <time>2016-12-28T15:05:54Z</time>
      </trkpt>
      <trkpt lat="43.58772" lon="3.35826">
        <ele>176</ele>
        <time>2016-12-28T15:05:57Z</time>
      </trkpt>
      <trkpt lat="43.58765" lon="3.35833">
        <ele>175.9</ele>
        <time>2016-12-28T15:05:59Z</time>
      </trkpt>
      <trkpt lat="43.58757" lon="3.35842">
        <ele>176</ele>
        <time>2016-12-28T15:06:02Z</time>
      </trkpt>
      <trkpt lat="43.58751" lon="3.35849">
        <ele>176</ele>
        <time>2016-12-28T15:06:04Z</time>
      </trkpt>
      <trkpt lat="43.58745" lon="3.35856">
        <ele>176.1</ele>
        <time>2016-12-28T15:06:06Z</time>
      </trkpt>
      <trkpt lat="43.58739" lon="3.35863">
        <ele>176.2</ele>
        <time>2016-12-28T15:06:08Z</time>
      </trkpt>
      <trkpt lat="43.58733" lon="3.35869">
        <ele>176.1</ele>
        <time>2016-12-28T15:06:10Z</time>
      </trkpt>
      <trkpt lat="43.58726" lon="3.35874">
        <ele>176</ele>
        <time>2016-12-28T15:06:12Z</time>
      </trkpt>
      <trkpt lat="43.58718" lon="3.3588">
        <ele>174.6</ele>
        <time>2016-12-28T15:06:14Z</time>
      </trkpt>
      <trkpt lat="43.5871" lon="3.35885">
        <ele>173.2</ele>
        <time>2016-12-28T15:06:16Z</time>
      </trkpt>
      <trkpt lat="43.58702" lon="3.35892">
        <ele>172.6</ele>
        <time>2016-12-28T15:06:18Z</time>
      </trkpt>
      <trkpt lat="43.58693" lon="3.359">
        <ele>172.1</ele>
        <time>2016-12-28T15:06:20Z</time>
      </trkpt>
      <trkpt lat="43.58684" lon="3.35907">
        <ele>171.8</ele>
        <time>2016-12-28T15:06:22Z</time>
      </trkpt>
      <trkpt lat="43.58675" lon="3.35914">
        <ele>172</ele>
        <time>2016-12-28T15:06:24Z</time>
      </trkpt>
      <trkpt lat="43.58666" lon="3.35922">
        <ele>172</ele>
        <time>2016-12-28T15:06:26Z</time>
      </trkpt>
      <trkpt lat="43.58657" lon="3.35929">
        <ele>172.2</ele>
        <time>2016-12-28T15:06:28Z</time>
      </trkpt>
      <trkpt lat="43.58647" lon="3.35937">
        <ele>172.4</ele>
        <time>2016-12-28T15:06:30Z</time>
      </trkpt>
      <trkpt lat="43.58637" lon="3.35944">
        <ele>172</ele>
        <time>2016-12-28T15:06:32Z</time>
      </trkpt>
      <trkpt lat="43.58625" lon="3.35951">
        <ele>171.1</ele>
        <time>2016-12-28T15:06:34Z</time>
      </trkpt>
      <trkpt lat="43.58615" lon="3.35955">
        <ele>170.5</ele>
        <time>2016-12-28T15:06:36Z</time>
      </trkpt>
      <trkpt lat="43.58606" lon="3.35959">
        <ele>170.1</ele>
        <time>2016-12-28T15:06:38Z</time>
      </trkpt>
      <trkpt lat="43.58596" lon="3.35961">
        <ele>169.7</ele>
        <time>2016-12-28T15:06:40Z</time>
      </trkpt>
      <trkpt lat="43.58586" lon="3.35964">
        <ele>169.8</ele>
        <time>2016-12-28T15:06:42Z</time>
      </trkpt>
      <trkpt lat="43.58578" lon="3.35968">
        <ele>170.5</ele>
        <time>2016-12-28T15:06:44Z</time>
      </trkpt>
      <trkpt lat="43.58568" lon="3.35973">
        <ele>170.8</ele>
        <time>2016-12-28T15:06:46Z</time>
      </trkpt>
      <trkpt lat="43.58559" lon="3.3598">
        <ele>170.8</ele>
        <time>2016-12-28T15:06:48Z</time>
      </trkpt>
      <trkpt lat="43.58548" lon="3.35986">
        <ele>170.4</ele>
        <time>2016-12-28T15:06:50Z</time>
      </trkpt>
      <trkpt lat="43.58541" lon="3.35992">
        <ele>170.6</ele>
        <time>2016-12-28T15:06:52Z</time>
      </trkpt>
      <trkpt lat="43.58533" lon="3.35998">
        <ele>171.4</ele>
        <time>2016-12-28T15:06:54Z</time>
      </trkpt>
      <trkpt lat="43.58522" lon="3.36005">
        <ele>171.6</ele>
        <time>2016-12-28T15:06:56Z</time>
      </trkpt>
      <trkpt lat="43.58514" lon="3.36012">
        <ele>171.2</ele>
        <time>2016-12-28T15:06:58Z</time>
      </trkpt>
      <trkpt lat="43.58505" lon="3.3602">
        <ele>170.6</ele>
        <time>2016-12-28T15:07:00Z</time>
      </trkpt>
      <trkpt lat="43.58496" lon="3.36027">
        <ele>169.5</ele>
        <time>2016-12-28T15:07:02Z</time>
      </trkpt>
      <trkpt lat="43.58487" lon="3.36036">
        <ele>168.7</ele>
        <time>2016-12-28T15:07:04Z</time>
      </trkpt>
      <trkpt lat="43.58476" lon="3.36046">
        <ele>169</ele>
        <time>2016-12-28T15:07:06Z</time>
      </trkpt>
      <trkpt lat="43.58467" lon="3.36054">
        <ele>169.1</ele>
        <time>2016-12-28T15:07:08Z</time>
      </trkpt>
      <trkpt lat="43.58458" lon="3.36062">
        <ele>169</ele>
        <time>2016-12-28T15:07:10Z</time>
      </trkpt>
      <trkpt lat="43.5845" lon="3.3607">
        <ele>168.7</ele>
        <time>2016-12-28T15:07:12Z</time>
      </trkpt>
      <trkpt lat="43.58442" lon="3.36078">
        <ele>168.5</ele>
        <time>2016-12-28T15:07:14Z</time>
      </trkpt>
      <trkpt lat="43.58434" lon="3.36086">
        <ele>168.2</ele>
        <time>2016-12-28T15:07:16Z</time>
      </trkpt>
      <trkpt lat="43.58426" lon="3.36098">
        <ele>167.7</ele>
        <time>2016-12-28T15:07:19Z</time>
      </trkpt>
      <trkpt lat="43.58419" lon="3.36108">
        <ele>167</ele>
        <time>2016-12-28T15:07:21Z</time>
      </trkpt>
      <trkpt lat="43.58411" lon="3.36117">
        <ele>167.2</ele>
        <time>2016-12-28T15:07:23Z</time>
      </trkpt>
      <trkpt lat="43.58404" lon="3.36125">
        <ele>167.7</ele>
        <time>2016-12-28T15:07:25Z</time>
      </trkpt>
      <trkpt lat="43.58397" lon="3.36135">
        <ele>167</ele>
        <time>2016-12-28T15:07:27Z</time>
      </trkpt>
      <trkpt lat="43.58389" lon="3.36146">
        <ele>166.6</ele>
        <time>2016-12-28T15:07:29Z</time>
      </trkpt>
      <trkpt lat="43.58382" lon="3.36157">
        <ele>166.3</ele>
        <time>2016-12-28T15:07:31Z</time>
      </trkpt>
      <trkpt lat="43.58375" lon="3.36166">
        <ele>165.8</ele>
        <time>2016-12-28T15:07:33Z</time>
      </trkpt>
      <trkpt lat="43.58368" lon="3.36175">
        <ele>166.1</ele>
        <time>2016-12-28T15:07:35Z</time>
      </trkpt>
      <trkpt lat="43.5836" lon="3.3618">
        <ele>166.2</ele>
        <time>2016-12-28T15:07:37Z</time>
      </trkpt>
      <trkpt lat="43.58351" lon="3.36184">
        <ele>166.7</ele>
        <time>2016-12-28T15:07:39Z</time>
      </trkpt>
      <trkpt lat="43.58343" lon="3.36187">
        <ele>167.2</ele>
        <time>2016-12-28T15:07:41Z</time>
      </trkpt>
      <trkpt lat="43.58335" lon="3.3619">
        <ele>167.3</ele>
        <time>2016-12-28T15:07:43Z</time>
      </trkpt>
      <trkpt lat="43.58327" lon="3.36192">
        <ele>166.5</ele>
        <time>2016-12-28T15:07:45Z</time>
      </trkpt>
      <trkpt lat="43.58318" lon="3.36195">
        <ele>166.4</ele>
        <time>2016-12-28T15:07:47Z</time>
      </trkpt>
      <trkpt lat="43.5831" lon="3.36197">
        <ele>166.4</ele>
        <time>2016-12-28T15:07:49Z</time>
      </trkpt>
      <trkpt lat="43.58301" lon="3.36201">
        <ele>166.3</ele>
        <time>2016-12-28T15:07:51Z</time>
      </trkpt>
      <trkpt lat="43.58293" lon="3.36203">
        <ele>166.5</ele>
        <time>2016-12-28T15:07:53Z</time>
      </trkpt>
      <trkpt lat="43.58283" lon="3.36206">
        <ele>166.6</ele>
        <time>2016-12-28T15:07:55Z</time>
      </trkpt>
      <trkpt lat="43.58274" lon="3.36208">
        <ele>167</ele>
        <time>2016-12-28T15:07:57Z</time>
      </trkpt>
      <trkpt lat="43.58265" lon="3.36213">
        <ele>167.4</ele>
        <time>2016-12-28T15:07:59Z</time>
      </trkpt>
      <trkpt lat="43.58255" lon="3.36218">
        <ele>167.4</ele>
        <time>2016-12-28T15:08:01Z</time>
      </trkpt>
      <trkpt lat="43.58245" lon="3.36223">
        <ele>167.2</ele>
        <time>2016-12-28T15:08:03Z</time>
      </trkpt>
      <trkpt lat="43.58236" lon="3.36229">
        <ele>167</ele>
        <time>2016-12-28T15:08:05Z</time>
      </trkpt>
      <trkpt lat="43.58226" lon="3.36235">
        <ele>167</ele>
        <time>2016-12-28T15:08:07Z</time>
      </trkpt>
      <trkpt lat="43.58216" lon="3.36241">
        <ele>167.1</ele>
        <time>2016-12-28T15:08:09Z</time>
      </trkpt>
      <trkpt lat="43.58207" lon="3.36246">
        <ele>166.7</ele>
        <time>2016-12-28T15:08:11Z</time>
      </trkpt>
      <trkpt lat="43.58196" lon="3.36252">
        <ele>166.6</ele>
        <time>2016-12-28T15:08:13Z</time>
      </trkpt>
      <trkpt lat="43.58185" lon="3.36258">
        <ele>166.6</ele>
        <time>2016-12-28T15:08:15Z</time>
      </trkpt>
      <trkpt lat="43.58176" lon="3.36263">
        <ele>166.7</ele>
        <time>2016-12-28T15:08:17Z</time>
      </trkpt>
      <trkpt lat="43.58166" lon="3.36269">
        <ele>166.8</ele>
        <time>2016-12-28T15:08:19Z</time>
      </trkpt>
      <trkpt lat="43.58156" lon="3.36275">
        <ele>166.7</ele>
        <time>2016-12-28T15:08:21Z</time>
      </trkpt>
      <trkpt lat="43.58145" lon="3.3628">
        <ele>166.5</ele>
        <time>2016-12-28T15:08:23Z</time>
      </trkpt>
      <trkpt lat="43.58135" lon="3.36286">
        <ele>166.3</ele>
        <time>2016-12-28T15:08:25Z</time>
      </trkpt>
      <trkpt lat="43.58125" lon="3.36292">
        <ele>166.3</ele>
        <time>2016-12-28T15:08:27Z</time>
      </trkpt>
      <trkpt lat="43.58115" lon="3.36298">
        <ele>166.2</ele>
        <time>2016-12-28T15:08:29Z</time>
      </trkpt>
      <trkpt lat="43.58104" lon="3.36303">
        <ele>166</ele>
        <time>2016-12-28T15:08:31Z</time>
      </trkpt>
      <trkpt lat="43.58094" lon="3.36309">
        <ele>165.8</ele>
        <time>2016-12-28T15:08:33Z</time>
      </trkpt>
      <trkpt lat="43.58083" lon="3.36314">
        <ele>165.7</ele>
        <time>2016-12-28T15:08:35Z</time>
      </trkpt>
      <trkpt lat="43.58073" lon="3.36321">
        <ele>165.2</ele>
        <time>2016-12-28T15:08:37Z</time>
      </trkpt>
      <trkpt lat="43.58063" lon="3.36327">
        <ele>165</ele>
        <time>2016-12-28T15:08:39Z</time>
      </trkpt>
      <trkpt lat="43.58052" lon="3.36332">
        <ele>164.4</ele>
        <time>2016-12-28T15:08:41Z</time>
      </trkpt>
      <trkpt lat="43.58042" lon="3.36338">
        <ele>163.9</ele>
        <time>2016-12-28T15:08:43Z</time>
      </trkpt>
      <trkpt lat="43.58031" lon="3.36343">
        <ele>163.6</ele>
        <time>2016-12-28T15:08:45Z</time>
      </trkpt>
      <trkpt lat="43.5802" lon="3.36346">
        <ele>162.5</ele>
        <time>2016-12-28T15:08:47Z</time>
      </trkpt>
      <trkpt lat="43.58009" lon="3.36349">
        <ele>162.4</ele>
        <time>2016-12-28T15:08:49Z</time>
      </trkpt>
      <trkpt lat="43.57998" lon="3.36352">
        <ele>161.9</ele>
        <time>2016-12-28T15:08:51Z</time>
      </trkpt>
      <trkpt lat="43.57987" lon="3.36354">
        <ele>161.9</ele>
        <time>2016-12-28T15:08:53Z</time>
      </trkpt>
      <trkpt lat="43.57977" lon="3.36356">
        <ele>162.8</ele>
        <time>2016-12-28T15:08:55Z</time>
      </trkpt>
      <trkpt lat="43.57968" lon="3.36358">
        <ele>164</ele>
        <time>2016-12-28T15:08:57Z</time>
      </trkpt>
      <trkpt lat="43.57959" lon="3.3636">
        <ele>165.4</ele>
        <time>2016-12-28T15:08:59Z</time>
      </trkpt>
      <trkpt lat="43.57949" lon="3.36362">
        <ele>165.8</ele>
        <time>2016-12-28T15:09:01Z</time>
      </trkpt>
      <trkpt lat="43.57938" lon="3.36364">
        <ele>165.6</ele>
        <time>2016-12-28T15:09:03Z</time>
      </trkpt>
      <trkpt lat="43.57926" lon="3.36366">
        <ele>165.1</ele>
        <time>2016-12-28T15:09:05Z</time>
      </trkpt>
      <trkpt lat="43.57915" lon="3.36368">
        <ele>164.6</ele>
        <time>2016-12-28T15:09:07Z</time>
      </trkpt>
      <trkpt lat="43.57904" lon="3.36371">
        <ele>164.4</ele>
        <time>2016-12-28T15:09:09Z</time>
      </trkpt>
      <trkpt lat="43.57894" lon="3.36373">
        <ele>164.7</ele>
        <time>2016-12-28T15:09:11Z</time>
      </trkpt>
      <trkpt lat="43.57884" lon="3.36374">
        <ele>165.8</ele>
        <time>2016-12-28T15:09:13Z</time>
      </trkpt>
      <trkpt lat="43.57874" lon="3.36376">
        <ele>166.3</ele>
        <time>2016-12-28T15:09:15Z</time>
      </trkpt>
      <trkpt lat="43.57863" lon="3.36379">
        <ele>166.3</ele>
        <time>2016-12-28T15:09:17Z</time>
      </trkpt>
      <trkpt lat="43.57853" lon="3.36381">
        <ele>166.7</ele>
        <time>2016-12-28T15:09:19Z</time>
      </trkpt>
      <trkpt lat="43.57842" lon="3.36383">
        <ele>166.4</ele>
        <time>2016-12-28T15:09:21Z</time>
      </trkpt>
      <trkpt lat="43.57832" lon="3.36386">
        <ele>165.5</ele>
        <time>2016-12-28T15:09:23Z</time>
      </trkpt>
      <trkpt lat="43.57823" lon="3.36388">
        <ele>164.1</ele>
        <time>2016-12-28T15:09:25Z</time>
      </trkpt>
      <trkpt lat="43.57813" lon="3.3639">
        <ele>163.4</ele>
        <time>2016-12-28T15:09:27Z</time>
      </trkpt>
      <trkpt lat="43.57802" lon="3.36392">
        <ele>163.4</ele>
        <time>2016-12-28T15:09:29Z</time>
      </trkpt>
      <trkpt lat="43.57791" lon="3.36394">
        <ele>163</ele>
        <time>2016-12-28T15:09:31Z</time>
      </trkpt>
      <trkpt lat="43.5778" lon="3.36397">
        <ele>162.3</ele>
        <time>2016-12-28T15:09:33Z</time>
      </trkpt>
      <trkpt lat="43.5777" lon="3.36399">
        <ele>161.5</ele>
        <time>2016-12-28T15:09:35Z</time>
      </trkpt>
      <trkpt lat="43.57762" lon="3.364">
        <ele>161</ele>
        <time>2016-12-28T15:09:37Z</time>
      </trkpt>
      <trkpt lat="43.57754" lon="3.36401">
        <ele>160.3</ele>
        <time>2016-12-28T15:09:39Z</time>
      </trkpt>
      <trkpt lat="43.57746" lon="3.36402">
        <ele>158.6</ele>
        <time>2016-12-28T15:09:41Z</time>
      </trkpt>
      <trkpt lat="43.57737" lon="3.36401">
        <ele>156.6</ele>
        <time>2016-12-28T15:09:43Z</time>
      </trkpt>
      <trkpt lat="43.57727" lon="3.36398">
        <ele>155.6</ele>
        <time>2016-12-28T15:09:45Z</time>
      </trkpt>
      <trkpt lat="43.57718" lon="3.36393">
        <ele>155</ele>
        <time>2016-12-28T15:09:47Z</time>
      </trkpt>
      <trkpt lat="43.57707" lon="3.36391">
        <ele>153.7</ele>
        <time>2016-12-28T15:09:49Z</time>
      </trkpt>
      <trkpt lat="43.57696" lon="3.36392">
        <ele>154</ele>
        <time>2016-12-28T15:09:51Z</time>
      </trkpt>
      <trkpt lat="43.57686" lon="3.36392">
        <ele>155.8</ele>
        <time>2016-12-28T15:09:53Z</time>
      </trkpt>
      <trkpt lat="43.57677" lon="3.3639">
        <ele>157.8</ele>
        <time>2016-12-28T15:09:55Z</time>
      </trkpt>
      <trkpt lat="43.5767" lon="3.36387">
        <ele>158.4</ele>
        <time>2016-12-28T15:09:57Z</time>
      </trkpt>
      <trkpt lat="43.5766" lon="3.36384">
        <ele>158.5</ele>
        <time>2016-12-28T15:09:59Z</time>
      </trkpt>
      <trkpt lat="43.5765" lon="3.3638">
        <ele>157.8</ele>
        <time>2016-12-28T15:10:01Z</time>
      </trkpt>
      <trkpt lat="43.5764" lon="3.36377">
        <ele>155.7</ele>
        <time>2016-12-28T15:10:03Z</time>
      </trkpt>
      <trkpt lat="43.5763" lon="3.36374">
        <ele>153.1</ele>
        <time>2016-12-28T15:10:05Z</time>
      </trkpt>
      <trkpt lat="43.5762" lon="3.36372">
        <ele>150.9</ele>
        <time>2016-12-28T15:10:07Z</time>
      </trkpt>
      <trkpt lat="43.5761" lon="3.3637">
        <ele>149.1</ele>
        <time>2016-12-28T15:10:09Z</time>
      </trkpt>
      <trkpt lat="43.57598" lon="3.36368">
        <ele>148.1</ele>
        <time>2016-12-28T15:10:11Z</time>
      </trkpt>
      <trkpt lat="43.57587" lon="3.36367">
        <ele>147.5</ele>
        <time>2016-12-28T15:10:13Z</time>
      </trkpt>
      <trkpt lat="43.57573" lon="3.36367">
        <ele>148.2</ele>
        <time>2016-12-28T15:10:15Z</time>
      </trkpt>
      <trkpt lat="43.57561" lon="3.36367">
        <ele>149</ele>
        <time>2016-12-28T15:10:17Z</time>
      </trkpt>
      <trkpt lat="43.5755" lon="3.36367">
        <ele>150.8</ele>
        <time>2016-12-28T15:10:19Z</time>
      </trkpt>
      <trkpt lat="43.5754" lon="3.36367">
        <ele>152.6</ele>
        <time>2016-12-28T15:10:21Z</time>
      </trkpt>
      <trkpt lat="43.57528" lon="3.36364">
        <ele>153.9</ele>
        <time>2016-12-28T15:10:23Z</time>
      </trkpt>
      <trkpt lat="43.57517" lon="3.36362">
        <ele>154.9</ele>
        <time>2016-12-28T15:10:25Z</time>
      </trkpt>
      <trkpt lat="43.57507" lon="3.3636">
        <ele>155.1</ele>
        <time>2016-12-28T15:10:27Z</time>
      </trkpt>
      <trkpt lat="43.57496" lon="3.36357">
        <ele>154.7</ele>
        <time>2016-12-28T15:10:29Z</time>
      </trkpt>
      <trkpt lat="43.57486" lon="3.36354">
        <ele>153.6</ele>
        <time>2016-12-28T15:10:31Z</time>
      </trkpt>
      <trkpt lat="43.57474" lon="3.36351">
        <ele>153.7</ele>
        <time>2016-12-28T15:10:33Z</time>
      </trkpt>
      <trkpt lat="43.57461" lon="3.36349">
        <ele>154.7</ele>
        <time>2016-12-28T15:10:35Z</time>
      </trkpt>
      <trkpt lat="43.57452" lon="3.36349">
        <ele>156.9</ele>
        <time>2016-12-28T15:10:37Z</time>
      </trkpt>
      <trkpt lat="43.57441" lon="3.36349">
        <ele>159.1</ele>
        <time>2016-12-28T15:10:39Z</time>
      </trkpt>
      <trkpt lat="43.57431" lon="3.3635">
        <ele>161.8</ele>
        <time>2016-12-28T15:10:41Z</time>
      </trkpt>
      <trkpt lat="43.57421" lon="3.36352">
        <ele>163.5</ele>
        <time>2016-12-28T15:10:43Z</time>
      </trkpt>
      <trkpt lat="43.57409" lon="3.36356">
        <ele>163.5</ele>
        <time>2016-12-28T15:10:45Z</time>
      </trkpt>
      <trkpt lat="43.57397" lon="3.36359">
        <ele>164.5</ele>
        <time>2016-12-28T15:10:47Z</time>
      </trkpt>
      <trkpt lat="43.57386" lon="3.36363">
        <ele>164.3</ele>
        <time>2016-12-28T15:10:49Z</time>
      </trkpt>
      <trkpt lat="43.57375" lon="3.36366">
        <ele>164.3</ele>
        <time>2016-12-28T15:10:51Z</time>
      </trkpt>
      <trkpt lat="43.57364" lon="3.36367">
        <ele>163.3</ele>
        <time>2016-12-28T15:10:53Z</time>
      </trkpt>
      <trkpt lat="43.57352" lon="3.36365">
        <ele>161.7</ele>
        <time>2016-12-28T15:10:55Z</time>
      </trkpt>
      <trkpt lat="43.57344" lon="3.36362">
        <ele>160.9</ele>
        <time>2016-12-28T15:10:57Z</time>
      </trkpt>
      <trkpt lat="43.57334" lon="3.36359">
        <ele>160.9</ele>
        <time>2016-12-28T15:10:59Z</time>
      </trkpt>
      <trkpt lat="43.57323" lon="3.36357">
        <ele>161.3</ele>
        <time>2016-12-28T15:11:01Z</time>
      </trkpt>
      <trkpt lat="43.57311" lon="3.36355">
        <ele>161</ele>
        <time>2016-12-28T15:11:03Z</time>
      </trkpt>
      <trkpt lat="43.573" lon="3.36352">
        <ele>162</ele>
        <time>2016-12-28T15:11:05Z</time>
      </trkpt>
      <trkpt lat="43.5729" lon="3.36351">
        <ele>162.9</ele>
        <time>2016-12-28T15:11:07Z</time>
      </trkpt>
      <trkpt lat="43.5728" lon="3.36349">
        <ele>162.7</ele>
        <time>2016-12-28T15:11:09Z</time>
      </trkpt>
      <trkpt lat="43.5727" lon="3.36349">
        <ele>161.2</ele>
        <time>2016-12-28T15:11:11Z</time>
      </trkpt>
      <trkpt lat="43.57259" lon="3.36352">
        <ele>160.5</ele>
        <time>2016-12-28T15:11:13Z</time>
      </trkpt>
      <trkpt lat="43.57252" lon="3.36352">
        <ele>160.6</ele>
        <time>2016-12-28T15:11:20Z</time>
      </trkpt>
    </trkseg>
  </trk>
</gpx>